GFSSW_700_spd_000.txt.gz
Wind_Speed
33 32 31 27 22 19 18 17 17 16 15 13 10 9 9 9 10 10 8 9 8 12 14 14 16 18 20 24 19 5 1 10 13 11 13 11 9 15 11 8 7 6 5 3 8
33 32 29 23 19 17 17 17 16 15 13 10 8 8 8 9 8 7 9 8 10 16 15 17 18 19 24 24 9 5 3 6 16 14 18 12 7 5 11 13 11 9 6 3 6
31 29 24 20 17 16 17 16 15 13 11 8 8 9 10 10 6 4 3 10 19 16 13 17 12 12 20 18 7 7 8 11 11 27 13 9 8 5 7 11 4 1 12 9 4
28 23 19 17 15 14 14 14 14 13 11 10 13 13 15 10 5 10 12 20 14 16 13 14 13 17 19 10 7 5 12 6 18 14 11 8 8 7 6 3 6 1 3 4 3
22 17 16 14 13 12 12 11 13 13 13 16 18 19 13 9 11 16 21 15 7 11 11 8 6 7 10 8 7 16 8 6 11 17 12 10 8 11 5 4 5 3 2 2 4
18 14 13 12 10 11 12 13 15 16 17 20 21 19 12 13 14 14 15 6 4 7 3 4 7 4 10 16 19 10 7 6 9 18 14 10 9 12 5 4 4 6 6 5 2
13 10 11 10 11 12 14 16 18 18 19 20 23 14 8 11 9 15 8 7 8 6 9 7 3 2 11 12 15 8 4 7 12 10 12 11 11 9 10 8 7 5 8 6 5
10 7 9 11 14 17 19 20 19 19 19 23 19 10 7 11 16 15 9 10 10 6 10 10 6 10 8 15 10 1 5 6 6 7 6 5 4 10 12 14 5 2 5 4 10
7 9 12 16 19 21 23 22 20 19 19 22 15 8 7 13 19 16 11 11 9 5 13 11 6 13 8 7 9 9 10 14 8 8 4 7 2 17 12 10 4 5 12 13 15
10 14 17 20 25 26 25 23 21 20 21 21 11 6 8 8 16 22 12 10 12 6 13 12 6 8 6 5 8 11 14 21 19 16 13 8 5 17 13 10 12 16 20 22 20
14 19 23 28 28 27 24 21 19 18 19 11 10 6 2 3 10 17 15 17 17 17 14 11 2 4 6 7 10 4 7 8 20 14 13 8 21 16 14 15 17 17 15 20 21
19 26 29 29 27 23 22 21 22 17 8 10 9 11 13 10 12 15 16 19 16 13 5 5 8 7 10 9 7 6 10 21 18 12 8 20 21 20 17 14 13 15 15 17 20
25 30 30 28 27 15 21 19 18 14 11 10 7 10 8 10 11 20 16 14 6 4 3 9 9 9 6 5 9 8 17 17 13 9 9 20 20 17 17 19 18 16 15 16 14
29 30 28 30 19 19 21 21 18 12 6 10 8 16 12 11 7 16 14 8 5 5 8 7 9 9 5 5 4 7 7 4 4 8 16 9 10 22 20 18 17 17 15 13 11
30 28 28 26 19 20 22 24 19 7 3 11 7 15 11 8 8 18 12 6 7 6 6 7 6 5 4 2 0 4 2 1 2 5 7 7 14 20 19 16 14 15 13 12 8
28 25 25 26 20 17 20 22 14 3 3 7 8 10 11 9 9 8 12 12 8 6 7 6 2 3 2 10 8 4 3 2 1 1 1 5 10 25 22 20 15 12 12 10 10
28 25 24 25 21 17 19 18 6 2 13 10 14 13 11 9 12 12 14 14 8 11 11 9 6 7 8 8 8 2 2 3 3 2 4 2 5 6 16 15 12 14 9 9 12
27 26 23 21 21 17 22 11 3 8 6 11 17 13 12 11 10 14 9 8 8 8 16 5 4 3 5 6 6 8 7 5 4 2 2 4 5 6 17 14 9 4 1 9 18
25 26 25 22 21 21 19 7 6 7 14 16 13 16 13 12 10 10 7 6 8 9 11 7 4 6 9 8 5 5 11 7 5 2 2 5 13 13 11 9 12 10 11 3 7
25 25 26 24 19 22 17 5 5 7 13 6 19 14 10 14 11 8 4 4 10 8 9 9 9 11 11 11 10 10 6 2 3 2 1 2 9 7 16 13 11 8 6 11 14
24 23 24 23 21 23 17 8 7 9 11 13 15 9 9 12 14 10 6 6 7 10 10 12 8 9 7 5 6 4 3 3 2 1 4 2 3 6 17 11 12 12 8 6 12
25 22 22 23 24 25 17 6 6 12 14 13 11 9 16 16 15 14 9 7 7 8 14 10 11 9 7 5 6 3 2 1 1 1 2 3 3 11 17 15 13 15 13 14 21
25 21 19 25 26 27 10 8 10 7 15 14 12 12 14 14 10 7 8 9 8 10 14 14 10 9 5 5 4 4 2 2 2 4 5 3 3 15 12 14 16 18 22 24 23
29 20 20 25 25 25 12 11 9 12 11 16 13 11 15 13 10 7 10 9 9 12 12 10 14 7 8 5 5 7 6 5 8 10 12 16 13 19 21 21 21 20 18 20 23
25 18 20 27 28 26 14 10 13 16 12 12 14 13 15 14 12 12 11 12 11 13 13 9 10 8 8 9 9 11 10 12 12 10 12 13 14 22 21 19 18 19 19 22 23
20 19 15 13 23 25 17 13 7 17 14 12 9 14 14 14 13 13 10 12 11 14 13 12 10 10 9 10 9 9 11 11 12 16 18 19 15 18 20 21 19 20 23 23 27
23 17 19 27 23 23 20 14 13 10 9 10 12 13 10 11 9 8 7 6 6 10 11 11 10 9 6 9 9 6 10 7 8 11 13 13 18 19 20 20 20 21 24 27 33

GFSSW_700_spd_003.txt.gz
Wind_Speed
30 31 32 32 30 26 21 17 16 15 14 15 15 11 11 11 12 13 9 12 10 12 13 13 15 17 20 22 22 15 6 11 19 15 16 6 13 13 10 7 6 4 1 8 13
30 31 31 29 26 21 19 17 15 14 14 13 10 9 8 8 7 7 11 12 9 16 15 14 15 19 22 24 22 8 0 11 19 8 16 14 13 14 11 6 5 5 4 4 4
30 30 29 24 20 17 16 16 14 12 11 9 10 8 7 6 5 5 5 8 16 18 17 15 16 17 19 25 15 2 3 6 18 18 9 12 10 7 7 7 2 2 8 2 1
29 28 25 18 15 14 14 12 12 11 10 11 11 10 10 9 4 6 11 19 17 16 16 13 11 16 22 23 13 8 7 10 21 15 19 16 11 9 6 6 1 4 8 6 5
26 24 20 14 12 12 11 11 11 11 12 13 13 13 12 12 14 12 14 14 10 8 11 9 9 9 14 12 8 10 13 9 11 19 13 13 8 4 6 5 6 2 5 8 12
22 19 15 11 10 11 11 11 12 13 15 16 17 17 16 15 11 12 13 10 8 11 5 6 10 6 7 9 8 19 17 9 8 13 13 11 8 9 5 2 3 3 2 6 8
17 15 11 9 9 11 11 13 14 16 18 19 22 17 13 12 9 14 12 14 12 10 8 14 6 3 5 13 17 13 7 10 16 18 14 11 8 7 5 2 1 4 1 3 4
13 11 9 8 10 13 14 16 17 19 20 20 20 13 12 15 15 13 13 10 9 8 10 10 7 10 11 22 15 8 6 10 15 13 14 12 7 11 7 7 2 5 4 5 6
10 9 9 10 13 15 17 19 19 19 19 23 17 10 12 15 16 12 10 10 8 4 5 10 13 21 18 19 15 10 11 7 8 11 8 11 2 14 12 11 7 6 7 10 11
8 8 11 13 17 20 21 20 18 17 21 21 14 8 8 12 20 14 7 9 8 7 8 8 9 11 9 6 9 8 12 11 13 8 11 8 6 16 13 13 11 13 14 15 16
9 11 16 20 24 23 20 17 15 17 23 16 9 4 7 6 20 18 11 9 9 11 14 12 5 4 3 5 5 6 11 18 20 17 16 14 16 21 18 17 18 21 23 23 22
13 17 25 27 24 22 18 16 16 18 15 13 12 8 10 7 11 18 15 13 14 13 12 8 3 1 4 7 5 7 4 14 13 14 15 15 20 19 19 18 18 21 18 17 20
19 25 29 27 25 22 19 17 18 14 11 14 11 8 4 8 13 14 15 14 12 8 6 6 5 6 8 9 4 12 17 18 15 11 12 20 14 13 15 16 15 13 12 12 10
26 30 29 27 23 21 19 21 17 13 9 12 13 8 6 9 12 15 10 6 4 8 8 7 9 11 11 5 4 15 12 13 13 11 19 15 8 15 17 16 13 12 9 7 1
31 30 29 27 21 20 19 20 17 9 3 12 12 14 13 10 14 14 8 8 9 11 6 7 6 7 6 6 8 10 9 9 10 13 13 11 7 19 19 18 17 14 10 7 2
32 29 28 25 25 22 22 21 15 1 2 9 12 15 14 12 10 17 10 11 9 7 6 10 8 7 6 7 10 9 9 8 5 7 4 12 7 22 29 26 21 15 10 6 12
31 27 28 24 24 23 24 21 7 4 13 12 13 16 15 11 8 16 14 14 10 13 11 8 7 7 13 8 5 7 10 3 1 0 4 5 8 6 28 23 16 12 11 9 3
30 26 30 26 24 24 24 17 5 6 11 13 17 16 12 15 10 13 13 12 10 9 14 5 4 6 13 9 4 7 7 4 5 3 2 2 2 2 25 14 12 13 13 6 15
31 28 28 29 26 24 21 14 1 10 8 20 17 18 12 10 12 13 11 11 9 12 7 7 4 6 8 8 6 3 6 5 6 4 2 2 4 9 18 17 19 18 13 20 16
31 29 27 31 26 24 19 7 5 10 18 21 18 14 17 12 15 14 10 8 13 13 18 8 8 11 10 7 6 5 4 1 3 3 1 3 7 8 21 21 20 18 21 17 17
30 30 28 29 26 26 20 7 8 10 15 17 17 16 10 17 13 12 8 7 12 13 14 12 8 12 9 4 7 5 1 2 3 2 5 2 5 15 18 21 21 20 17 16 18
30 29 29 28 27 28 23 7 9 7 13 12 16 9 12 17 16 11 10 7 9 12 13 12 9 12 8 7 6 3 3 3 2 4 3 2 4 7 14 20 19 17 16 19 20
31 28 28 28 31 32 21 8 12 8 11 15 11 10 12 18 15 14 13 9 8 10 14 13 11 11 5 7 7 6 6 5 3 5 7 3 4 10 17 19 18 20 22 25 24
31 28 29 31 32 34 21 12 12 9 10 13 13 10 13 14 9 9 10 9 11 12 16 16 14 11 12 5 9 9 10 9 10 8 9 16 11 13 19 24 25 25 25 25 25
34 25 33 35 35 31 23 14 13 11 13 15 13 14 14 14 11 11 9 11 11 13 14 16 11 13 9 8 8 9 13 15 17 16 15 16 18 19 22 27 27 29 26 24 24
33 21 29 14 32 32 24 16 15 12 11 10 12 15 14 13 12 8 12 12 11 14 16 15 8 13 12 12 12 14 15 16 18 18 20 22 23 22 23 24 26 25 24 25 26
31 24 27 19 32 34 26 19 10 14 15 11 8 10 11 10 8 6 8 7 9 11 15 14 12 12 7 11 12 14 18 17 15 17 18 21 19 18 18 20 24 25 26 29 32

GFSSW_700_spd_006.txt.gz
Wind_Speed
30 30 31 33 34 32 29 24 18 14 12 11 13 16 14 11 11 11 8 10 13 12 10 12 14 16 18 19 18 15 8 8 12 13 16 7 8 13 12 9 9 5 5 8 13
30 31 31 33 34 30 25 20 14 12 12 12 13 11 9 7 6 4 11 13 12 10 11 13 15 17 19 20 16 16 4 11 16 16 17 13 10 17 14 8 5 2 1 7 9
30 30 32 33 31 25 19 16 12 10 10 11 10 8 5 1 2 4 6 8 8 15 16 15 15 18 19 20 18 7 2 8 16 11 3 3 13 14 7 4 2 2 4 6 6
30 30 32 31 26 19 16 12 10 9 11 11 8 6 5 7 3 3 6 9 15 16 12 10 13 17 19 22 19 4 1 16 11 11 11 13 11 5 4 4 8 10 11 9 10
29 29 31 26 20 15 12 10 8 11 12 10 9 9 11 12 11 10 10 16 11 10 10 8 8 10 13 17 12 5 13 6 18 19 15 14 8 2 5 4 4 8 13 18 19
28 29 27 20 16 12 9 9 10 13 13 11 13 16 16 14 11 14 12 10 8 9 7 7 7 7 11 11 7 6 11 11 15 17 12 11 6 3 6 6 6 7 11 14 14
27 26 22 15 12 9 9 11 12 14 14 14 17 17 14 11 11 14 12 13 12 12 8 10 9 8 6 11 7 13 14 14 16 17 14 9 6 6 4 6 9 11 8 9 7
25 21 17 11 9 9 11 12 13 15 15 17 20 16 13 10 10 12 12 11 11 8 10 10 4 7 8 12 17 15 8 12 15 16 12 9 6 9 6 4 7 8 7 6 5
20 15 12 9 8 10 11 13 14 14 16 19 17 12 8 16 12 12 12 9 8 7 11 8 7 4 14 24 18 10 7 6 12 10 8 11 4 14 8 7 5 7 7 8 8
14 10 9 9 10 12 14 15 16 16 16 18 15 9 7 13 17 12 11 9 5 5 7 7 11 19 21 21 12 12 12 11 9 11 9 9 12 11 13 11 11 11 11 11 12
10 10 11 12 15 16 16 15 13 13 19 15 12 4 7 11 20 12 10 10 8 6 11 9 10 12 12 10 8 5 8 12 13 11 16 15 10 6 15 13 15 14 15 16 17
11 13 15 17 20 19 16 13 12 12 19 11 11 8 10 8 19 16 13 11 11 9 14 9 6 6 4 2 1 6 9 12 13 20 17 14 12 13 17 16 16 16 17 19 20
14 17 20 23 22 18 15 14 12 14 11 11 10 7 5 4 14 23 16 10 9 9 8 9 5 4 2 3 4 6 5 9 16 17 10 11 9 12 18 17 16 14 11 10 5
19 23 26 24 20 15 15 15 12 10 8 14 11 7 4 10 11 14 12 9 8 9 8 7 4 5 5 5 5 8 7 8 16 17 9 13 6 11 14 14 11 8 6 6 7
24 29 28 23 17 15 17 17 13 12 3 13 14 8 8 10 13 13 9 8 11 11 11 8 6 5 5 5 6 6 5 6 8 10 11 13 5 15 16 16 15 12 11 10 6
30 31 28 23 19 17 19 18 13 4 3 12 15 14 11 8 13 13 9 11 12 8 6 6 8 7 8 8 10 12 7 7 5 6 3 13 10 14 26 26 22 18 15 11 7
33 30 29 21 18 21 22 18 7 4 11 11 17 15 12 10 12 15 12 14 10 9 9 7 7 9 9 9 9 10 10 1 1 0 4 8 10 16 14 26 23 16 14 10 9
34 30 30 22 19 24 22 18 6 4 12 14 16 16 13 11 10 17 15 13 9 8 12 7 5 9 12 11 5 9 13 5 6 3 4 7 6 7 13 22 19 13 13 15 12
33 30 31 25 22 23 22 18 2 5 7 13 17 17 12 13 9 14 14 14 11 10 7 8 5 8 10 12 7 4 4 8 3 3 2 4 6 6 11 22 23 22 22 19 18
33 31 31 28 25 24 24 17 4 4 10 19 17 17 13 13 12 13 13 12 12 12 14 6 5 9 7 7 8 5 6 2 2 3 2 3 6 8 16 23 24 26 23 21 20
35 32 30 31 26 25 26 21 5 5 15 21 16 13 13 15 13 15 8 7 11 14 16 10 8 10 9 5 10 7 3 2 2 1 5 1 5 8 13 15 16 20 21 21 22
37 34 31 31 27 28 29 20 7 6 15 18 15 14 13 17 15 16 11 7 9 13 13 14 8 13 11 8 8 7 5 4 3 3 3 2 7 8 12 20 23 23 23 23 23
35 34 32 29 30 29 32 16 8 8 11 13 15 16 10 12 16 15 11 10 7 10 12 13 7 9 5 8 11 9 8 7 6 6 7 2 5 7 7 10 21 24 24 23 25
34 32 31 32 31 32 33 16 9 10 9 10 12 10 11 13 16 9 13 11 9 9 12 15 8 12 13 4 9 11 12 11 9 6 7 16 17 15 14 13 17 20 24 27 26
36 32 34 34 34 33 34 14 13 11 11 11 12 12 10 10 11 8 8 10 10 11 13 14 10 17 11 9 9 10 12 13 16 16 16 19 20 16 19 19 21 24 27 29 28
39 29 33 23 31 34 36 19 17 13 9 11 11 13 13 11 10 9 10 11 10 10 14 15 9 11 14 12 13 14 14 17 19 21 23 24 25 20 18 19 22 24 27 29 28
38 33 26 31 23 35 38 25 17 14 11 9 7 13 13 11 9 7 7 7 8 9 10 14 14 9 8 14 15 16 20 21 23 24 22 24 19 17 16 17 19 19 22 26 27

GFSSW_700_spd_009.txt.gz
Wind_Speed
27 28 29 30 31 32 33 31 27 20 14 12 12 12 12 14 11 10 4 13 14 12 11 14 15 15 15 15 18 13 8 7 12 10 14 15 8 10 11 9 13 3 8 7 15
28 28 29 31 32 33 32 28 20 14 12 13 12 11 10 8 6 4 13 12 11 10 11 13 15 14 15 18 18 14 5 10 14 10 10 5 10 8 10 8 3 3 6 10 15
28 27 29 31 32 32 29 20 15 11 12 12 10 8 5 3 3 2 5 7 8 10 13 16 15 16 18 19 15 14 3 11 14 9 8 5 5 6 7 5 1 1 5 12 15
26 25 28 31 31 30 22 16 11 11 13 11 8 5 4 6 3 3 4 7 6 11 11 11 13 17 20 19 16 7 6 13 15 10 13 12 3 9 7 6 10 9 8 12 14
24 24 28 29 29 24 16 13 11 12 12 10 8 7 10 9 9 6 6 10 13 10 7 7 7 13 17 17 14 4 1 13 17 18 19 12 7 5 8 6 11 17 17 20 22
23 23 27 27 24 18 13 12 11 12 10 10 10 13 14 14 11 11 10 12 10 9 8 6 8 9 11 14 13 3 6 6 21 17 19 12 10 7 6 7 12 18 21 21 20
22 23 26 25 18 14 12 13 12 10 11 11 13 15 16 11 10 13 9 6 8 10 8 8 12 16 9 9 9 5 9 8 16 19 17 13 9 9 10 12 11 16 17 17 17
22 23 24 20 13 12 10 12 11 12 12 13 16 15 14 13 10 11 11 11 11 9 11 14 15 10 11 10 12 14 11 12 16 16 17 11 12 9 11 15 13 12 12 12 11
22 21 20 15 10 9 10 11 11 12 13 16 18 16 9 17 13 13 10 10 8 6 9 10 10 11 13 15 18 14 8 10 14 14 12 9 7 11 12 12 12 10 10 10 9
20 19 16 11 9 9 11 11 12 13 16 19 16 12 7 19 15 11 8 6 4 5 10 4 7 5 17 22 13 11 11 14 14 11 8 10 7 5 12 12 10 10 10 10 10
18 16 13 10 10 12 13 13 12 12 17 14 14 6 8 14 18 14 11 7 5 5 8 14 12 10 22 17 7 8 8 12 13 13 11 9 6 7 12 13 11 11 12 13 14
16 14 13 11 13 14 14 14 12 11 17 10 14 7 9 13 19 13 11 11 8 4 12 13 17 14 13 11 7 7 6 8 13 16 14 14 12 8 8 15 15 15 14 14 16
16 14 15 14 15 16 15 12 10 14 17 10 9 7 9 8 22 16 13 9 6 6 9 10 8 10 8 6 5 2 3 5 6 19 16 12 10 11 13 18 18 16 14 12 8
17 17 17 21 20 17 15 14 10 14 10 12 11 7 6 7 13 23 17 9 6 8 11 9 8 5 4 5 4 1 3 5 5 17 7 14 6 13 16 19 19 16 12 10 10
20 21 25 25 20 17 16 15 13 13 3 10 14 7 6 10 14 18 17 11 12 15 11 8 8 5 3 3 2 4 5 5 12 10 7 13 5 11 19 20 20 16 14 14 14
24 27 30 27 21 18 17 15 14 6 4 11 18 11 9 7 16 15 14 12 14 12 9 9 9 7 6 2 1 4 8 10 8 6 3 9 14 11 20 23 23 20 18 17 16
28 32 31 26 22 20 19 17 9 4 8 11 21 14 11 12 17 14 14 15 11 9 8 8 8 6 4 5 5 7 13 3 2 2 4 8 10 20 8 18 25 23 21 21 18
35 36 33 27 23 21 21 18 6 4 13 12 19 17 12 12 16 16 14 15 10 9 11 8 4 7 9 9 6 11 14 6 5 3 2 7 7 11 13 18 20 20 22 21 18
40 37 35 29 24 22 22 19 7 5 12 15 17 19 14 11 9 16 15 13 11 9 6 8 5 8 8 11 8 7 10 12 3 2 1 5 9 12 13 16 24 27 26 23 19
40 36 35 27 26 21 22 19 10 5 12 14 16 17 14 13 8 13 14 13 12 11 11 7 5 9 8 10 10 7 8 4 5 3 3 4 9 13 7 12 23 29 29 25 21
41 36 35 29 27 25 25 25 9 6 12 15 17 16 13 15 10 12 9 6 13 12 13 11 7 8 9 8 10 10 8 4 4 3 3 2 5 3 4 9 11 15 20 22 22
44 38 36 33 29 30 26 26 9 7 14 18 17 9 11 15 14 12 12 7 6 11 14 14 8 8 11 8 10 10 9 7 4 5 6 3 7 3 3 8 15 19 19 22 24
44 38 36 34 33 30 28 27 15 10 11 15 17 12 11 11 16 16 14 12 9 9 11 14 9 7 5 10 13 13 13 11 8 6 7 3 4 2 6 7 14 22 25 27 28
43 33 37 34 34 32 29 28 15 11 10 11 12 15 13 10 14 14 17 14 11 11 14 15 14 12 16 7 10 17 17 14 12 7 8 17 20 17 16 12 9 15 19 22 29
43 35 42 38 36 32 29 26 17 12 10 12 11 12 11 9 15 12 13 11 12 13 14 16 15 16 14 12 9 11 13 14 16 17 15 19 21 16 16 15 13 14 19 23 26
40 36 34 22 34 31 30 26 21 13 11 11 11 12 13 10 7 8 7 9 11 12 14 15 11 14 15 15 13 15 15 17 19 22 24 24 25 17 15 16 15 14 15 19 24
38 31 32 35 21 33 34 33 19 16 11 9 12 13 12 12 11 10 9 10 9 11 10 14 16 12 8 14 16 15 22 22 23 23 22 24 19 18 19 16 15 16 15 15 19

GFSSW_700_spd_012.txt.gz
Wind_Speed
27 27 27 26 25 26 29 31 32 30 21 14 13 11 9 11 12 10 6 15 16 13 12 13 13 13 11 14 15 15 10 10 9 9 15 11 12 10 5 8 7 6 6 8 12
27 27 27 26 24 26 29 30 30 23 16 11 12 11 9 9 9 8 10 11 11 11 10 11 13 12 13 15 17 11 9 7 10 14 7 12 5 6 3 3 6 3 8 12 14
27 26 26 25 23 26 28 28 23 18 12 11 10 9 7 6 4 2 5 6 6 11 13 14 15 15 13 17 18 12 5 10 15 8 11 15 10 6 6 11 2 3 8 19 19
25 24 24 24 23 26 27 24 19 15 11 10 10 7 5 4 3 3 2 7 6 7 10 11 12 15 13 13 15 11 8 14 12 9 10 11 4 6 6 4 5 11 10 17 18
22 23 23 23 24 26 25 20 17 13 11 10 8 8 8 7 4 2 3 5 7 9 9 7 9 12 13 13 16 10 8 9 15 16 12 14 4 9 7 8 9 17 17 16 17
21 23 22 23 24 26 21 17 15 12 10 9 9 10 12 11 7 5 7 12 11 9 8 9 8 10 11 11 11 6 4 18 17 18 12 11 10 10 10 14 17 21 22 22 21
20 22 21 23 24 23 17 14 13 11 9 9 11 14 15 10 8 9 7 5 6 7 7 6 6 10 8 8 10 8 4 10 24 14 11 13 10 10 13 17 20 24 23 21 19
20 21 21 22 23 19 14 12 12 9 9 11 13 15 14 14 11 10 7 6 6 6 10 14 14 12 11 11 10 7 10 9 13 13 13 14 11 12 15 18 20 20 20 19 19
20 20 21 21 20 14 11 11 10 8 10 12 16 17 12 13 12 6 6 7 7 7 8 13 13 11 10 8 9 12 9 11 13 17 17 7 11 14 16 19 19 20 19 17 15
19 20 19 20 15 12 10 11 10 10 12 16 16 16 13 15 15 10 3 6 9 3 9 12 19 11 14 14 15 12 9 14 14 15 12 8 8 14 17 16 17 17 17 15 13
19 19 16 16 13 11 11 11 10 10 14 15 16 7 12 21 14 10 9 6 8 6 5 5 7 7 14 14 5 8 8 14 14 17 13 12 12 10 18 17 17 16 15 15 14
19 17 15 14 13 12 13 12 12 11 16 13 16 9 10 19 17 12 7 7 4 8 8 7 7 8 16 13 7 4 12 12 16 16 14 13 12 9 13 18 17 16 15 15 14
19 16 14 15 12 13 14 13 11 13 16 11 14 10 9 13 22 15 9 13 1 12 12 13 16 10 10 9 8 9 9 8 9 21 19 14 11 15 15 14 17 19 18 16 16
19 16 16 15 17 19 15 13 11 14 10 10 11 9 10 8 20 22 14 10 11 9 10 6 10 10 10 7 6 5 5 2 2 14 14 19 13 16 19 18 19 21 21 18 17
21 18 19 21 23 19 17 14 14 18 7 11 12 10 9 12 14 26 19 10 10 10 10 8 11 9 7 6 7 7 5 4 5 9 8 12 12 8 17 19 22 24 23 19 16
23 23 25 28 24 22 21 16 17 9 5 10 17 11 10 13 14 22 21 13 12 11 12 10 12 10 8 7 7 7 6 8 7 6 8 8 12 10 13 17 21 24 22 20 19
26 28 29 30 26 24 23 18 10 9 5 10 20 14 12 11 15 18 19 17 11 12 10 10 10 8 7 6 7 8 10 6 7 6 7 6 9 20 12 13 19 22 24 22 21
30 33 37 32 29 25 24 20 9 11 9 11 19 15 12 13 17 16 17 16 16 14 12 13 7 8 10 10 7 11 10 6 5 6 7 5 9 10 17 23 18 18 20 22 23
36 41 42 35 30 27 26 19 11 8 13 14 20 18 13 15 12 17 14 14 14 12 8 8 4 9 9 12 9 9 10 11 5 3 5 11 11 15 16 16 18 23 27 26 25
40 44 41 36 31 29 27 19 12 9 15 17 19 18 17 15 12 17 16 16 13 11 9 9 4 9 9 10 12 9 7 4 6 3 5 4 9 10 7 15 17 24 28 28 28
45 47 43 39 32 29 25 23 21 10 18 17 16 14 16 15 13 12 11 11 16 13 11 10 7 6 9 9 9 12 9 8 5 3 3 3 2 3 3 8 9 14 24 28 29
52 46 45 42 36 29 26 25 18 13 15 18 16 13 14 14 13 11 11 14 12 16 14 14 9 6 10 12 14 15 10 10 7 5 5 1 7 3 2 3 10 14 20 27 28
55 36 44 42 34 34 26 29 23 13 16 18 19 13 15 13 13 16 14 13 10 7 11 15 9 6 4 8 13 13 16 15 13 9 8 3 4 6 10 9 8 15 22 26 27
53 35 45 44 32 30 28 27 24 14 15 19 19 16 13 14 15 12 18 14 13 11 10 12 16 11 13 6 8 14 21 19 13 8 9 15 13 14 15 14 12 14 20 25 30
52 34 39 51 42 30 28 26 22 18 16 17 16 17 17 14 13 17 17 18 16 14 13 14 14 19 19 15 13 13 13 20 22 18 13 13 15 12 13 15 16 16 17 22 26
44 35 38 28 43 31 31 26 24 20 17 17 12 15 15 12 9 13 13 15 13 13 16 17 13 16 18 18 17 17 17 18 20 21 24 22 23 18 15 16 19 18 17 19 22
39 30 40 25 41 37 35 28 26 20 16 14 12 14 15 14 11 9 10 12 12 14 14 17 16 12 8 16 18 15 25 25 25 24 24 21 18 22 17 18 18 18 17 17 18

GFSSW_700_spd_015.txt.gz
Wind_Speed
24 24 25 25 26 25 26 28 29 30 30 24 15 11 11 10 12 13 12 16 16 12 12 12 13 11 10 11 13 12 13 19 14 13 9 8 10 7 7 14 8 5 3 7 6
24 24 24 25 25 24 25 27 29 30 24 18 11 10 10 11 12 11 11 11 11 11 11 10 10 9 11 11 12 13 13 14 9 16 17 13 9 8 9 10 6 3 7 6 10
24 24 24 23 24 23 25 28 29 26 19 14 10 9 10 9 6 6 7 5 5 9 10 9 10 11 11 11 12 14 11 8 4 6 3 8 14 10 8 14 8 9 8 14 17
23 24 23 23 22 22 25 27 27 21 16 13 10 9 8 5 5 9 5 3 5 7 8 10 12 12 11 13 14 10 10 6 10 6 8 5 5 15 3 14 14 13 14 19 20
22 23 22 22 21 21 24 27 23 17 14 12 9 9 7 6 3 6 3 3 3 6 9 10 9 9 9 11 13 8 7 8 9 7 10 8 8 8 11 9 14 18 19 18 18
23 23 21 22 21 20 24 25 20 14 11 10 8 9 8 7 4 1 4 9 10 10 10 10 7 8 9 12 13 9 9 8 9 10 9 7 6 2 8 9 16 18 17 17 16
23 22 21 21 21 20 23 22 17 13 9 8 10 9 10 7 4 2 6 5 8 5 6 9 7 7 6 8 11 7 7 12 11 15 8 7 6 4 8 11 16 16 16 15 14
24 23 21 20 20 19 21 19 14 9 7 9 9 12 11 9 6 4 1 3 4 7 11 14 12 10 10 11 8 8 10 18 15 13 10 13 11 9 12 13 14 15 15 15 15
24 23 21 19 19 17 17 14 10 6 8 10 12 15 8 12 7 3 3 3 3 4 6 7 12 13 7 7 9 10 11 10 15 13 9 11 13 12 14 15 14 15 16 17 15
24 23 21 19 17 14 13 11 8 8 10 12 15 13 11 10 10 4 3 3 2 1 4 5 8 7 9 12 13 9 13 14 13 14 14 8 10 13 15 16 15 14 15 15 16
25 23 21 18 15 12 11 9 6 7 12 17 11 6 11 15 14 4 4 4 6 4 4 3 7 8 10 14 6 10 9 13 14 11 13 11 9 14 16 16 16 16 16 15 15
27 23 20 18 14 12 11 11 14 12 10 15 18 10 12 21 12 9 7 5 10 7 8 8 16 11 12 12 6 5 6 11 8 12 11 12 12 12 16 17 17 17 17 17 17
28 24 20 17 14 11 11 13 12 10 10 11 18 14 9 16 15 12 10 8 7 11 16 10 8 3 8 9 7 6 10 11 10 13 12 12 16 15 16 19 21 19 17 18 19
29 25 20 17 15 13 14 14 12 12 7 13 17 13 11 11 17 15 11 9 7 7 7 9 11 5 6 7 6 9 7 10 6 9 21 19 21 24 21 22 20 21 20 20 18
31 26 21 20 16 20 21 17 14 16 5 13 14 12 11 12 13 20 15 5 13 7 14 10 11 10 11 6 9 6 9 8 8 14 7 14 15 18 18 20 20 21 20 20 21
32 27 24 22 24 24 22 19 17 11 8 12 15 14 12 13 13 17 20 12 10 11 11 8 11 7 3 8 6 7 5 6 9 14 10 20 17 17 18 17 17 18 20 21 21
35 30 25 27 30 28 25 20 12 15 9 15 20 15 15 14 12 16 23 20 16 14 14 9 8 10 8 5 6 7 9 14 11 11 11 8 9 20 13 8 14 20 19 22 23
37 33 30 35 33 32 28 22 17 17 15 9 18 16 16 13 13 14 20 23 21 17 17 16 12 13 11 10 7 11 14 16 6 6 11 6 9 7 11 9 9 20 20 20 22
40 37 37 40 36 34 31 23 22 14 16 13 18 18 17 15 12 15 16 20 18 18 18 13 6 11 9 8 8 10 12 11 8 6 10 19 19 13 12 13 10 19 22 21 21
42 38 39 42 39 36 29 28 21 13 15 15 21 21 19 18 15 19 17 14 12 15 14 5 5 4 8 8 11 11 4 6 10 4 9 7 8 8 4 6 11 19 22 22 22
44 39 45 45 40 39 33 29 21 15 13 17 21 17 18 18 18 19 15 10 16 14 13 12 12 5 7 11 12 10 14 11 6 5 4 4 3 3 4 5 11 16 21 22 23
47 41 52 48 44 36 33 29 18 15 14 14 18 15 17 18 18 16 19 13 15 15 14 14 10 11 12 11 14 8 11 13 10 7 5 4 13 9 4 2 7 12 19 22 23
51 36 45 48 44 36 30 27 22 16 14 17 18 15 14 16 16 17 15 17 13 15 13 13 12 13 11 10 11 12 14 13 11 11 11 5 6 4 9 13 8 10 16 21 24
43 38 48 55 40 31 33 30 25 18 15 16 16 15 14 14 15 12 14 15 15 15 12 13 16 16 16 10 4 12 14 16 17 12 14 17 15 10 10 9 9 11 14 19 23
43 42 51 58 47 33 32 29 29 20 15 17 16 19 16 14 14 13 13 16 17 17 15 14 11 16 19 12 13 11 12 15 21 22 19 17 15 13 14 13 14 15 15 18 24
42 42 38 33 43 32 34 30 33 22 19 19 16 18 16 15 14 12 14 14 15 18 16 17 11 15 17 14 18 16 16 18 19 21 22 23 22 19 18 16 16 15 20 20 23
40 39 40 32 46 35 36 28 33 23 20 18 17 16 14 15 14 10 15 11 11 12 14 13 16 11 9 10 10 15 25 22 21 21 20 23 22 18 15 17 17 15 19 19 20

GFSSW_700_spd_018.txt.gz
Wind_Speed
23 22 23 24 26 26 26 24 25 27 29 29 25 19 12 10 11 15 14 16 15 12 13 13 13 10 8 11 11 11 18 22 20 23 8 21 3 4 4 10 13 12 17 14 12
23 22 23 23 24 25 25 23 24 27 28 24 21 15 11 10 12 13 13 12 10 7 8 10 10 8 9 9 12 15 17 16 8 5 11 15 10 8 1 6 4 2 29 11 7
23 23 24 23 23 24 24 23 23 27 25 20 17 13 11 8 8 6 13 9 5 3 8 6 4 6 10 10 13 15 20 15 9 22 20 6 5 7 13 13 5 14 6 8 12
22 24 23 23 23 24 23 22 22 26 21 18 14 12 10 5 5 9 11 7 4 5 7 10 8 10 10 13 13 15 14 14 11 15 16 5 13 8 7 19 13 10 8 8 14
22 23 23 24 23 23 22 22 21 24 18 15 12 11 9 4 6 11 8 3 3 6 8 6 8 8 10 9 12 13 10 9 6 9 9 1 8 9 10 13 14 15 15 10 14
23 22 22 23 23 22 21 21 21 20 15 13 11 10 6 5 3 6 2 2 6 7 11 8 5 6 11 9 11 12 8 4 2 3 3 5 10 6 9 15 16 14 15 11 13
23 22 22 23 22 21 21 21 19 16 12 10 8 8 6 5 5 2 4 4 7 8 4 6 5 6 4 7 9 7 8 4 5 8 6 4 12 9 11 14 14 16 14 12 11
24 22 22 22 22 21 20 20 16 13 9 7 6 6 6 5 7 1 2 2 2 4 9 9 13 12 8 5 7 6 7 6 3 9 6 4 12 10 13 13 19 15 10 12 12
24 22 21 21 21 20 19 18 13 10 7 6 6 8 6 10 5 2 0 1 3 3 7 8 7 9 5 8 9 9 8 13 13 10 4 8 13 12 13 14 21 16 14 15 14
25 22 20 21 20 18 18 14 9 8 7 7 9 8 7 9 3 5 2 2 1 2 2 4 6 5 8 11 10 8 8 14 14 12 12 8 14 16 15 11 15 16 16 15 16
26 23 21 21 19 18 16 9 3 6 9 9 7 7 7 9 10 5 5 3 3 3 4 4 3 7 8 12 6 8 15 19 11 13 12 12 13 14 16 16 13 15 22 12 14
27 24 23 21 19 17 14 9 5 13 9 16 15 20 14 14 9 7 8 4 5 2 6 9 7 8 4 11 15 12 8 12 9 8 13 12 13 16 18 20 18 17 12 14 13
28 26 23 21 19 16 13 13 15 9 11 9 16 20 10 11 15 13 10 9 9 10 8 6 13 5 11 15 13 9 7 11 9 7 10 7 15 17 18 19 18 18 19 18 20
30 28 24 22 18 14 9 14 11 7 5 10 18 20 15 14 18 10 15 10 8 9 13 5 8 9 10 11 11 11 2 9 9 13 13 13 14 20 13 19 22 22 22 22 22
32 29 26 24 19 14 18 16 12 8 4 10 17 14 14 17 16 17 14 10 12 9 8 13 14 8 9 5 1 3 5 7 16 12 11 6 17 26 29 20 27 27 30 25 27
34 32 30 25 19 23 20 18 14 8 7 10 17 17 17 17 17 16 19 12 9 8 14 10 6 13 12 5 4 2 5 10 12 16 3 19 20 16 29 13 23 22 22 26 29
37 35 31 26 22 27 22 21 11 12 7 13 18 17 19 17 17 15 19 20 14 11 12 11 14 10 7 8 8 8 10 9 9 6 9 12 13 17 18 20 21 20 26 26 25
40 39 35 30 31 30 27 25 16 13 20 5 16 17 20 18 18 18 17 25 22 18 12 10 20 16 12 12 5 14 13 8 7 4 10 5 6 1 9 11 5 22 23 21 21
43 43 41 32 34 37 33 30 21 15 21 14 14 21 20 21 13 16 21 23 24 23 18 8 7 3 5 7 6 9 12 11 8 12 10 5 17 3 6 5 1 18 20 20 19
45 46 40 35 38 39 38 34 26 20 10 17 21 22 21 20 15 16 17 19 21 17 19 14 8 17 8 10 9 11 8 5 5 2 4 11 14 4 3 1 3 12 17 21 22
44 46 40 39 44 44 44 34 23 18 14 14 21 20 21 17 18 17 16 12 21 10 10 9 19 5 4 8 10 8 10 12 10 7 1 3 4 6 3 3 4 9 17 21 24
48 48 44 45 49 50 43 34 26 20 19 15 15 19 20 19 18 16 17 14 16 13 9 10 8 11 12 8 7 7 9 13 10 8 5 3 13 12 10 5 10 8 15 20 24
54 43 31 46 56 47 37 32 30 22 18 20 18 19 18 16 16 17 13 13 11 9 10 10 8 13 13 10 10 14 14 13 8 12 10 5 6 9 11 13 13 7 10 17 22
49 42 35 48 55 47 42 32 31 26 19 18 19 16 16 16 15 14 16 14 12 13 17 15 11 14 14 15 6 16 14 14 16 14 14 20 19 11 16 11 8 11 9 13 21
49 46 45 59 64 44 37 30 32 27 23 21 21 22 17 16 16 15 15 12 15 16 14 14 13 13 18 18 8 12 9 12 17 19 20 19 17 15 12 8 9 8 14 15 15
61 45 43 26 54 46 39 40 35 30 25 20 17 21 19 15 16 15 15 16 13 18 18 18 12 12 17 14 16 17 17 17 18 17 21 22 22 17 17 16 14 15 13 19 17
61 48 34 37 55 51 47 41 33 31 24 20 22 18 19 15 16 14 14 15 7 13 17 12 14 14 10 10 11 15 22 22 22 19 19 21 20 17 17 16 11 14 12 18 19

GFSSW_700_spd_021.txt.gz
Wind_Speed
22 21 20 21 23 24 24 23 24 25 26 27 25 21 14 10 10 13 14 17 12 11 10 12 10 10 8 12 11 5 16 19 21 16 11 10 2 7 1 8 7 9 12 11 13
22 22 20 20 22 23 23 22 24 24 24 26 21 17 13 10 10 11 12 11 10 5 3 7 8 9 10 7 8 9 16 18 16 20 16 4 15 9 1 7 8 10 13 8 3
23 22 21 20 21 22 22 22 23 23 24 24 18 15 13 9 9 8 13 12 8 2 6 8 11 1 3 1 4 8 15 13 14 9 3 7 5 15 15 11 9 7 11 10 12
24 23 22 19 20 21 21 21 22 22 24 21 16 13 11 6 4 9 14 8 4 2 5 9 9 2 8 7 3 13 16 16 13 5 13 11 6 4 8 10 3 3 15 12 14
25 23 22 19 19 20 21 21 21 21 23 18 14 12 9 5 5 10 10 6 3 4 7 11 7 3 5 4 7 10 12 7 10 14 13 10 6 3 2 16 9 9 15 12 14
25 23 21 20 18 19 20 21 20 21 21 15 11 10 5 1 6 4 6 4 1 5 11 14 7 6 15 17 13 7 8 11 7 7 5 3 9 6 6 17 13 11 15 12 13
27 23 21 20 18 18 19 20 19 21 18 12 9 7 2 4 6 7 6 4 6 7 16 8 5 8 7 8 4 7 4 1 6 7 5 3 9 9 8 9 12 16 8 11 10
28 24 22 20 17 18 18 19 18 19 14 9 7 4 3 4 4 2 4 1 2 2 9 1 10 12 9 5 3 2 6 5 8 6 3 2 10 13 12 7 12 10 9 14 10
29 25 22 20 17 17 17 17 17 15 12 8 6 5 6 6 7 3 4 3 8 5 8 7 5 12 5 5 5 8 7 5 10 9 8 8 14 11 14 13 14 8 10 16 12
29 26 21 20 18 17 16 15 15 13 10 7 6 6 3 4 4 1 2 3 4 6 1 2 2 7 4 5 7 6 6 16 12 14 11 11 14 16 18 19 14 18 15 16 13
30 26 23 21 19 17 14 13 13 14 13 8 10 8 15 7 9 7 2 4 1 2 5 5 6 3 2 9 10 12 9 7 15 16 10 13 18 17 18 14 8 20 18 15 15
28 27 24 22 20 16 13 10 18 18 13 13 14 21 20 15 13 11 9 1 3 4 1 8 5 3 7 9 11 13 14 21 18 13 10 13 15 13 19 12 13 16 17 8 17
27 27 25 23 21 15 13 8 16 16 17 13 17 23 18 12 14 11 16 5 7 4 4 5 10 6 8 12 14 9 3 9 9 3 9 10 8 17 18 15 16 17 16 13 17
28 28 25 25 21 15 12 12 14 13 9 10 14 22 22 8 12 18 18 8 12 9 11 6 9 12 12 12 11 17 6 4 8 3 4 7 3 16 21 18 19 21 17 14 19
31 29 27 28 20 16 15 16 14 8 3 1 13 9 23 18 10 19 6 22 11 11 12 5 10 9 19 8 3 6 8 6 13 15 11 9 5 19 19 22 16 23 22 20 22
35 31 32 28 20 16 17 17 16 7 8 8 14 18 16 14 13 14 15 14 8 7 11 14 13 11 11 3 8 5 4 5 11 10 6 13 11 10 24 22 22 27 25 25 26
38 34 33 30 23 24 23 18 13 8 8 12 20 16 20 19 15 19 25 22 14 13 12 6 11 12 8 8 6 8 9 2 3 5 3 18 9 22 21 20 28 22 27 28 35
41 36 35 32 30 26 27 25 14 8 16 10 20 18 17 19 17 18 19 23 25 16 8 13 7 6 9 18 11 8 13 6 5 1 7 14 7 8 13 13 19 15 21 27 34
44 42 42 34 33 29 33 33 22 18 22 12 20 20 19 19 19 21 23 25 25 26 22 13 12 21 12 7 6 8 7 12 5 5 2 10 12 3 8 14 14 17 23 29 32
49 48 42 35 37 35 41 38 31 20 13 16 17 20 22 23 22 23 21 23 24 28 24 17 3 9 20 8 10 14 10 2 2 5 4 5 6 9 10 9 6 17 20 25 26
49 48 43 39 40 42 53 42 36 29 16 11 19 20 23 22 21 20 21 20 23 19 13 16 16 5 19 19 15 15 11 10 8 3 5 1 2 3 1 6 1 11 16 20 22
55 49 43 45 48 51 58 49 40 32 22 14 14 25 24 22 21 22 22 11 17 20 23 17 10 13 18 11 9 11 6 7 13 6 3 3 8 16 14 4 6 2 12 18 21
55 48 31 43 53 57 52 50 42 36 25 12 23 20 24 20 25 24 18 14 16 21 14 15 5 8 11 7 11 14 14 17 11 16 14 5 5 6 17 15 12 7 5 13 18
54 46 44 44 55 57 51 53 50 41 23 16 20 23 19 14 18 17 22 16 19 19 17 17 11 10 10 11 9 9 10 13 14 11 11 15 18 22 12 18 14 8 5 4 15
56 56 48 57 61 57 52 50 50 44 34 21 21 29 21 16 21 17 18 15 13 10 11 13 17 16 17 17 15 10 11 9 16 15 18 19 16 12 14 2 7 7 6 6 9
57 54 50 33 55 53 45 55 52 45 30 26 20 25 23 18 20 18 17 14 17 14 14 14 15 15 15 18 19 16 14 19 16 13 16 14 18 13 10 14 10 10 9 7 10
59 55 48 50 28 55 60 58 48 43 27 25 20 21 23 22 20 15 19 21 12 12 19 19 19 18 14 15 16 18 22 22 18 20 19 18 17 15 15 15 12 11 13 13 17

GFSSW_700_spd_024.txt.gz
Wind_Speed
20 20 20 20 19 21 22 21 21 23 23 23 24 20 17 12 11 10 11 12 12 11 8 8 8 8 8 8 9 7 7 6 10 14 13 9 10 10 11 14 12 16 11 7 8
20 20 20 20 20 20 22 21 20 21 22 22 23 18 16 12 10 10 9 12 9 9 4 7 9 8 5 4 11 10 8 5 11 10 16 12 12 12 8 9 7 12 10 7 11
22 22 21 20 21 20 21 21 20 21 21 21 22 17 14 12 10 7 9 12 7 6 3 8 9 8 5 7 9 6 2 7 10 12 13 8 8 12 11 11 8 8 14 16 11
25 24 23 22 21 19 20 20 19 20 20 20 19 16 11 9 5 8 13 9 5 2 4 8 9 8 8 10 4 9 7 12 16 14 12 6 6 11 6 6 5 1 11 12 12
28 26 25 23 21 19 19 19 18 19 19 19 17 13 8 6 4 7 7 5 3 1 8 10 12 7 6 11 16 15 9 4 7 9 13 6 3 4 6 11 8 6 7 9 18
29 27 25 23 21 19 19 19 18 18 18 18 14 10 5 4 2 3 6 9 7 4 17 12 5 0 10 11 8 7 4 7 10 5 4 4 6 2 4 13 7 8 9 12 15
30 29 26 24 22 19 19 18 17 17 18 15 11 7 4 5 2 5 6 8 10 13 11 3 1 2 7 5 6 7 8 7 9 6 4 10 7 4 8 7 8 12 10 8 9
30 29 27 24 21 19 18 18 17 16 17 13 9 5 6 8 6 7 4 4 5 11 11 6 6 6 9 3 4 4 9 7 14 8 6 5 7 7 8 7 13 9 13 8 7
28 29 27 24 22 20 19 18 18 16 16 12 8 5 6 5 5 6 6 6 7 4 9 8 8 9 5 1 4 4 6 6 5 10 5 7 9 10 12 12 14 16 15 12 8
22 25 25 24 22 20 20 18 17 16 16 11 8 6 6 8 6 5 5 5 5 8 1 6 3 10 6 5 3 2 3 9 11 15 16 13 11 12 12 9 11 15 15 17 10
20 21 23 23 23 20 19 18 17 18 14 10 9 12 18 16 11 9 4 2 3 1 4 6 7 7 7 7 8 10 8 15 15 12 16 20 17 14 16 15 7 11 14 16 13
23 20 21 22 22 21 18 16 17 18 17 13 16 20 21 19 16 12 9 4 2 3 3 2 4 2 6 4 5 10 17 16 19 14 15 14 18 15 21 16 10 10 16 14 14
26 23 21 19 23 21 17 16 21 16 18 10 15 22 23 19 14 19 14 8 2 1 4 6 2 5 7 12 10 17 14 9 3 9 9 12 20 23 19 17 14 13 10 11 9
31 26 20 21 23 20 18 19 16 15 11 11 16 22 28 18 18 22 18 15 12 5 10 9 8 10 11 15 15 10 9 10 5 3 2 3 4 26 22 21 23 18 16 18 16
33 27 24 25 23 20 20 16 13 11 3 2 15 11 27 23 8 22 21 18 10 11 13 11 13 12 15 11 4 7 5 7 9 10 3 5 3 19 19 26 25 25 24 22 21
36 32 27 26 21 23 19 17 15 8 8 9 12 17 28 26 15 22 21 13 18 15 12 9 8 5 4 6 8 5 4 9 8 8 2 6 9 17 19 24 30 29 25 26 26
42 37 30 26 24 27 21 18 13 8 8 14 18 16 22 29 18 26 21 19 16 8 13 9 6 5 6 8 7 4 7 3 3 1 4 5 6 12 14 16 26 25 30 24 25
46 41 36 29 31 29 26 23 14 9 17 8 22 18 20 21 18 19 20 19 22 17 13 13 4 11 10 7 6 10 10 6 3 3 3 4 8 12 12 12 18 20 22 28 28
48 46 43 32 36 33 34 35 17 18 24 12 25 25 24 17 19 21 23 20 24 26 23 8 8 8 10 12 6 5 7 7 6 2 2 5 9 11 12 11 14 18 22 25 26
53 50 48 36 39 36 40 42 34 28 11 22 23 26 25 20 24 21 25 19 24 25 23 24 14 15 12 16 20 16 7 2 4 4 3 4 7 6 7 6 11 15 19 22 26
52 50 52 42 44 43 54 49 40 33 24 10 21 16 26 21 25 28 26 21 19 26 26 26 19 12 16 18 18 16 14 13 10 5 4 1 3 7 6 6 4 6 7 14 15
56 52 48 49 47 52 60 55 43 40 33 22 17 11 22 24 25 27 29 24 16 22 27 27 17 15 22 10 9 9 14 15 9 6 6 3 9 10 11 6 9 5 4 6 14
59 44 34 51 54 60 56 51 49 41 42 33 24 12 13 23 27 26 22 22 18 13 28 23 14 13 12 18 17 21 16 15 15 12 16 8 7 9 10 14 17 13 6 8 8
53 42 40 48 61 60 61 57 53 46 45 37 28 20 15 18 13 23 23 24 23 19 24 22 17 21 19 16 11 6 10 10 11 10 14 20 17 16 20 16 16 18 12 9 11
54 51 54 61 68 66 59 56 56 52 47 39 30 27 18 15 14 21 21 23 25 26 23 25 21 19 16 15 15 12 9 10 11 11 10 14 20 15 14 16 8 13 11 11 13
57 43 51 43 62 67 62 62 55 51 46 44 33 25 19 21 13 24 30 19 27 23 22 20 18 21 23 22 21 21 17 15 17 19 16 11 11 9 16 13 11 10 18 17 16
58 45 49 54 51 64 72 64 57 50 46 42 31 22 19 23 15 12 15 21 17 17 17 20 18 16 17 14 14 16 24 25 22 24 22 21 19 13 12 15 13 12 14 19 17

GFSSW_700_spd_027.txt.gz
Wind_Speed
24 22 21 20 20 20 21 21 23 23 23 23 21 20 15 13 12 10 11 11 12 10 7 6 9 5 4 3 3 9 10 5 4 5 10 16 7 10 12 13 16 15 11 9 8
23 22 21 21 21 21 22 21 22 23 23 22 21 19 14 12 10 9 9 12 10 9 4 6 8 7 4 3 9 12 7 2 3 7 12 10 8 10 11 9 9 8 6 9 5
25 23 22 22 23 22 23 22 22 22 23 21 20 17 13 11 9 7 8 11 7 5 2 3 6 5 6 8 9 8 4 5 7 4 9 9 4 9 7 6 7 7 6 6 9
28 27 26 25 24 24 23 22 22 21 22 20 19 15 11 8 4 9 10 7 3 2 3 6 6 7 5 3 2 9 9 12 9 8 9 8 8 5 8 8 7 4 2 7 11
30 29 28 27 26 25 24 22 22 19 21 19 18 13 9 5 5 7 7 4 2 4 8 9 10 6 6 3 8 6 5 2 6 5 8 5 2 2 5 3 8 10 14 23 24
30 29 28 27 27 25 24 21 21 19 20 18 16 12 7 3 2 3 5 10 6 9 13 9 6 4 5 2 8 8 3 1 7 4 3 3 3 4 6 6 6 8 5 17 21
28 29 28 27 26 26 23 21 20 19 19 17 15 10 6 5 3 4 5 8 8 13 8 7 7 3 5 2 5 1 1 4 2 9 5 4 1 3 9 8 9 8 9 13 16
20 25 27 26 26 26 24 21 20 19 18 17 13 10 6 1 4 6 3 3 9 13 7 9 8 6 2 2 2 7 7 1 5 9 8 6 4 4 7 5 7 7 10 12 13
16 18 23 25 26 26 24 23 21 20 17 15 12 9 7 6 10 7 5 6 8 10 11 11 9 11 5 3 4 3 8 6 6 6 5 9 7 6 5 10 8 8 12 12 12
21 15 19 22 23 24 25 24 22 21 18 15 12 8 10 11 14 13 9 8 4 4 4 9 8 7 6 4 3 1 3 4 7 6 11 14 10 9 8 11 6 5 9 11 12
32 21 18 18 21 22 24 24 21 20 21 14 11 14 15 17 14 13 9 6 6 6 2 3 6 10 5 3 1 2 6 8 8 12 16 18 17 16 11 13 14 9 5 9 8
37 25 20 18 17 19 22 24 22 22 22 16 16 17 21 22 17 17 11 9 7 6 2 2 5 4 6 7 2 2 10 12 12 14 16 15 18 19 18 10 10 7 9 6 6
36 31 24 19 17 16 21 24 19 20 23 17 20 18 25 22 19 21 15 10 7 5 2 3 1 1 3 9 6 8 15 12 11 2 7 9 13 19 21 16 17 15 15 12 6
32 30 30 24 18 14 25 22 14 16 14 16 16 18 31 26 20 22 20 15 13 6 6 4 6 6 9 17 10 19 7 8 10 1 2 5 3 20 22 18 19 19 19 19 15
36 32 28 27 22 18 20 15 11 14 3 6 15 15 31 28 13 26 22 20 16 13 7 4 6 9 11 18 13 9 6 8 8 5 7 6 2 9 21 26 22 21 23 22 23
40 35 31 28 22 23 27 17 13 9 9 7 14 19 34 32 14 23 26 20 18 14 14 10 6 5 12 10 7 8 6 5 8 8 2 2 2 9 13 19 23 21 24 25 26
45 41 36 28 22 23 21 19 13 10 10 12 19 21 29 34 25 27 28 26 23 17 20 12 13 9 9 13 9 7 6 3 2 2 4 6 6 16 16 16 20 24 26 27 24
50 46 41 33 28 27 26 23 17 10 23 10 20 21 22 30 29 24 25 24 21 20 12 10 5 12 10 7 6 6 5 2 3 2 3 6 6 16 11 12 15 18 17 24 24
55 51 47 40 33 32 34 38 18 19 20 15 22 24 24 26 26 24 29 29 21 23 19 7 10 13 12 8 7 8 4 6 5 3 1 5 11 14 13 12 14 11 14 17 25
60 56 54 43 39 37 42 47 31 28 12 18 19 25 27 24 29 24 25 30 25 20 23 21 10 9 10 13 14 13 12 4 4 3 3 5 6 11 7 4 1 5 11 14 15
61 58 60 48 43 41 57 50 39 34 26 11 21 21 29 27 28 26 22 25 23 22 24 25 20 19 15 16 18 25 22 15 12 7 4 1 5 9 6 2 1 4 4 8 14
62 61 58 54 48 54 60 49 43 44 35 26 18 21 25 29 27 26 27 30 19 22 27 24 17 19 23 23 22 14 16 13 12 7 8 8 13 11 11 12 11 9 9 5 3
61 52 30 53 57 64 58 56 48 46 45 38 23 19 16 22 32 27 28 26 28 20 25 28 20 19 17 17 17 17 17 18 19 20 16 9 10 6 11 13 18 17 12 11 8
52 41 40 46 65 62 61 53 58 52 48 45 37 22 17 13 23 31 27 29 24 23 19 19 22 23 20 19 19 16 17 18 18 17 18 22 22 16 17 18 16 15 14 13 12
51 50 53 58 70 68 60 57 53 54 52 44 47 39 23 15 14 23 28 30 24 21 24 24 24 20 21 19 19 19 17 14 15 17 19 21 21 16 17 18 13 12 12 15 17
53 48 45 51 63 71 53 63 57 56 40 50 48 45 30 23 15 19 21 26 25 25 30 29 19 22 20 20 21 24 26 22 20 19 20 19 19 13 13 19 17 12 13 18 19
62 44 48 56 55 57 79 67 65 51 55 38 42 43 35 24 17 12 18 22 24 24 31 28 28 22 22 22 21 21 27 31 32 30 26 26 25 23 23 18 19 17 17 22 22

GFSSW_700_spd_030.txt.gz
Wind_Speed
25 24 23 21 20 21 22 22 23 23 23 23 20 20 19 14 12 8 8 8 12 11 10 4 6 3 2 2 6 8 6 4 2 4 6 7 6 7 9 11 11 10 12 10 8
24 23 22 21 21 22 23 23 23 23 22 22 20 19 17 14 11 8 7 9 10 9 5 3 5 3 3 5 7 7 4 4 1 4 6 7 4 6 9 7 6 6 4 8 6
23 23 22 22 22 23 24 25 24 23 21 21 19 19 15 12 10 6 8 9 7 6 3 2 5 5 4 1 2 5 4 7 4 6 8 6 5 6 4 4 7 6 8 7 6
28 26 25 25 25 25 26 26 25 23 21 20 18 17 14 10 5 6 7 7 4 2 4 6 7 6 7 6 4 8 6 9 7 8 6 8 4 2 4 3 1 7 10 10 15
31 29 28 27 28 26 26 26 26 23 20 20 17 15 13 8 6 4 4 2 1 4 8 9 6 9 5 3 5 5 3 1 2 3 2 5 4 3 4 3 9 12 23 14 11
31 31 29 29 29 27 26 26 25 23 20 19 16 14 11 7 6 1 3 2 4 8 10 7 6 5 6 3 3 7 1 1 4 3 3 2 5 4 10 12 12 7 17 20 24
26 28 29 28 28 27 27 27 25 22 20 19 16 13 10 8 5 6 4 4 3 12 8 6 5 1 3 3 2 5 1 1 6 3 3 1 2 3 5 9 8 3 12 19 19
20 22 25 27 27 26 27 28 25 22 21 20 16 12 7 6 8 9 6 4 4 11 6 8 6 5 5 2 1 4 5 1 4 3 2 4 2 3 5 2 7 5 8 15 14
17 16 19 23 24 25 28 28 26 22 22 21 16 13 8 11 12 12 8 7 7 11 8 10 10 10 8 3 3 2 5 4 2 4 5 6 3 3 4 5 6 8 11 13 15
22 24 21 22 21 21 25 27 25 23 22 22 17 13 11 15 18 14 12 10 9 11 11 11 15 11 8 4 2 2 6 5 6 4 13 10 7 6 4 5 7 8 12 13 14
33 33 27 23 22 19 22 28 23 22 24 23 16 10 10 17 18 17 14 13 8 6 2 3 7 9 8 5 2 5 5 5 5 7 12 16 15 9 10 9 7 8 11 13 15
30 31 32 30 32 24 23 24 20 21 25 21 19 18 16 21 23 21 17 14 10 6 3 2 3 5 6 7 4 1 5 6 7 11 12 12 14 15 16 13 5 3 8 11 10
34 32 34 26 29 26 23 20 18 19 24 22 23 19 21 24 25 25 21 16 10 9 4 4 2 4 7 8 8 8 8 14 12 12 4 7 11 11 17 19 16 11 9 11 9
38 33 31 30 29 23 19 18 13 16 14 19 15 20 26 29 29 26 23 18 16 12 6 5 8 6 8 14 11 8 10 13 7 6 4 6 3 8 13 18 20 16 14 11 11
42 37 33 30 28 25 17 11 8 7 3 8 14 15 25 33 23 30 26 22 18 13 9 5 5 9 13 11 15 11 10 10 6 4 5 4 3 6 8 19 21 19 19 17 15
47 41 38 34 29 23 23 12 9 9 9 6 9 18 27 35 19 29 30 24 20 15 15 14 12 8 12 11 12 10 9 8 7 6 1 5 5 5 9 11 13 17 22 21 21
52 47 43 37 31 25 22 17 13 13 9 12 14 20 26 37 28 26 34 31 24 20 21 17 16 14 11 11 12 5 5 3 3 3 4 4 4 10 21 19 20 14 16 22 23
56 52 49 43 34 29 25 23 17 11 29 7 18 20 24 34 36 21 31 33 27 23 11 16 11 13 14 11 6 8 4 3 2 1 3 6 6 14 21 18 16 15 12 14 17
60 58 55 48 39 35 31 36 24 19 13 33 10 17 24 30 29 30 27 33 30 26 19 13 10 9 13 12 7 6 5 4 3 2 1 7 13 17 8 13 11 13 10 9 11
64 62 60 52 43 40 40 49 34 21 24 17 22 15 25 28 29 34 32 31 30 28 22 17 7 8 12 9 11 10 6 3 3 2 3 4 7 9 16 6 5 6 4 7 8
54 62 65 55 48 46 53 49 41 33 30 17 19 13 22 28 29 28 30 22 34 28 23 19 20 19 17 18 12 12 12 13 12 6 4 1 5 9 13 2 3 5 5 5 6
44 57 64 57 51 55 60 58 38 43 32 28 15 24 20 24 30 31 30 22 19 36 25 20 15 24 26 18 19 19 19 16 17 6 7 7 20 18 17 12 14 12 10 8 3
49 47 40 51 54 64 60 54 53 46 42 40 34 17 18 18 21 28 30 27 24 25 28 25 25 19 18 19 20 18 16 14 15 13 15 7 15 9 7 14 13 13 16 11 9
52 41 38 41 66 67 59 50 55 51 46 45 38 30 20 17 16 23 29 25 28 30 24 20 29 25 24 23 12 14 18 16 15 11 17 22 27 21 19 17 16 15 15 14 13
52 44 48 56 65 72 62 57 54 56 52 44 45 42 31 18 11 23 26 29 28 27 27 27 26 29 32 26 23 21 21 18 19 20 22 23 22 19 19 19 19 17 14 14 13
55 47 51 39 63 69 45 56 54 58 45 52 46 42 41 31 12 13 16 26 29 24 23 24 21 24 22 21 21 21 23 21 22 25 25 24 25 22 20 15 15 17 18 16 14
60 54 50 53 42 55 78 60 55 55 57 41 45 43 39 39 20 16 16 16 19 27 27 28 27 23 22 20 21 23 28 27 30 33 32 31 29 25 26 24 22 22 19 19 19

GFSSW_700_spd_033.txt.gz
Wind_Speed
25 24 23 22 21 19 20 19 19 19 20 19 19 18 17 15 12 9 9 7 9 8 8 5 2 1 1 3 4 2 4 4 2 5 9 8 4 4 5 7 9 9 11 11 9
26 26 24 23 22 21 20 20 21 19 20 20 19 17 16 14 12 9 7 7 8 6 4 2 4 2 4 3 2 2 2 2 2 9 10 8 6 2 5 6 6 7 7 8 9
25 25 25 24 23 22 22 21 22 20 20 20 18 17 16 13 11 6 6 6 5 3 2 3 5 3 3 5 4 4 4 3 3 8 7 8 8 5 1 4 8 9 10 11 8
29 28 27 27 26 25 24 24 23 22 20 19 18 16 15 11 6 6 5 4 2 1 5 7 8 7 7 5 3 1 2 6 5 8 3 6 5 3 3 1 3 6 10 9 7
31 30 29 28 28 29 28 27 25 23 20 19 17 15 14 11 8 5 3 2 2 5 8 8 8 8 6 2 4 3 8 1 2 4 1 2 4 4 1 4 5 7 8 13 13
31 31 30 30 29 30 30 29 28 24 21 18 17 15 13 10 7 5 2 1 5 9 9 8 8 8 6 3 1 4 3 3 2 5 1 4 5 4 5 9 6 9 19 15 22
27 27 29 29 31 30 29 29 28 25 22 18 17 15 13 11 8 8 6 3 6 11 9 8 8 6 7 4 4 4 2 5 2 2 2 3 4 4 3 4 2 6 14 23 15
25 22 22 25 27 29 30 29 27 26 23 19 18 16 12 10 11 12 9 6 7 9 8 8 6 5 5 6 6 3 2 2 2 4 2 3 3 3 0 3 2 6 12 17 19
25 22 18 17 19 23 26 29 28 27 23 21 19 17 13 12 15 16 12 9 10 12 10 10 8 6 9 7 2 2 1 3 5 1 1 1 3 2 1 3 3 7 11 14 16
29 25 20 16 16 18 21 25 26 26 22 23 20 17 16 15 20 19 16 13 11 12 12 12 11 9 9 6 3 3 5 5 5 3 4 7 9 4 1 2 3 9 11 12 15
33 29 25 23 23 22 20 20 22 25 24 23 16 10 13 18 21 21 18 15 12 10 10 8 8 10 10 7 4 3 2 1 2 7 11 12 12 11 5 5 7 10 13 13 15
37 36 34 33 32 29 29 24 24 24 27 24 23 24 20 20 25 25 22 20 17 11 9 5 3 7 11 9 8 5 4 5 4 5 13 13 10 11 13 6 3 10 12 14 15
43 38 35 32 31 29 25 25 26 28 26 27 24 26 22 24 28 30 26 21 17 14 10 6 6 8 8 10 10 8 6 8 9 6 7 9 7 7 9 10 9 9 14 17 12
47 42 37 36 31 25 22 18 18 20 16 22 16 27 25 30 31 31 27 22 18 17 12 9 10 8 7 11 12 10 5 5 4 3 2 1 2 3 6 7 12 13 15 17 15
52 46 41 39 31 26 23 18 14 10 4 7 17 20 23 33 23 35 31 26 22 19 16 9 9 8 9 11 12 13 8 5 3 4 4 4 3 4 3 6 9 14 16 18 19
56 51 44 43 35 27 25 18 13 8 8 5 8 16 23 35 29 34 35 29 25 20 17 13 7 7 8 13 10 12 12 7 5 6 3 7 7 6 6 7 9 10 16 18 21
60 56 50 45 39 31 27 20 13 13 7 10 10 14 21 34 32 32 39 37 31 25 23 18 15 11 11 8 11 12 9 2 1 2 2 5 5 8 8 13 15 14 15 16 22
60 59 55 50 43 35 31 23 16 15 33 6 8 11 18 29 31 26 39 38 34 27 20 18 8 15 13 15 11 13 11 6 3 3 2 4 5 5 15 13 14 11 15 12 17
42 54 59 55 49 40 36 31 25 26 13 29 28 10 19 26 29 25 34 41 37 32 20 14 11 8 12 15 13 10 11 9 4 1 2 3 7 11 4 7 6 4 10 12 13
41 50 60 58 51 43 43 48 42 25 27 15 23 11 16 25 28 37 24 34 38 33 28 17 8 11 14 16 15 10 6 4 4 2 2 3 5 9 8 7 1 6 4 2 5
40 47 63 55 41 44 51 59 47 37 28 30 16 23 17 21 31 28 31 18 31 35 29 27 16 10 12 15 12 11 14 9 5 7 3 2 5 6 9 12 4 5 7 6 6
45 50 64 49 46 53 65 59 43 40 32 33 25 19 25 18 23 32 32 36 16 33 35 28 15 20 21 17 16 16 16 14 10 7 9 6 12 19 6 10 9 10 8 9 7
47 44 38 56 51 50 66 60 42 35 40 38 33 20 19 14 15 23 30 26 32 23 35 32 25 16 12 16 18 20 21 18 17 15 13 7 10 6 9 9 14 12 11 13 12
52 40 34 39 58 64 50 44 50 45 39 41 33 31 16 13 13 10 23 24 25 20 25 35 30 23 23 25 18 17 22 22 19 15 19 24 25 16 14 12 14 16 16 14 15
58 41 38 54 58 65 50 52 55 51 50 41 43 39 34 20 13 15 18 21 24 27 26 29 27 26 28 28 26 25 21 17 25 21 21 20 22 19 18 15 15 16 18 15 14
63 47 51 39 62 68 50 50 50 60 51 53 48 46 39 33 18 9 16 20 21 25 30 33 28 26 27 25 26 24 27 24 20 21 25 26 30 25 25 21 17 15 12 15 16
67 63 49 61 52 57 71 48 42 43 55 40 49 41 37 35 30 24 12 8 11 17 25 31 32 27 22 23 21 24 28 25 24 26 29 33 34 26 23 22 22 22 19 19 20

GFSSW_700_spd_036.txt.gz
Wind_Speed
24 25 23 23 22 21 21 19 18 17 16 15 16 16 15 16 14 11 9 8 8 6 5 1 2 3 1 2 5 1 2 1 1 3 6 11 5 4 5 7 9 11 12 12 12
25 25 24 25 24 23 22 21 20 18 16 16 16 15 15 15 13 10 8 8 7 4 2 1 3 3 1 4 3 1 3 1 1 5 6 7 6 5 5 7 9 10 11 12 12
28 27 26 26 24 23 22 23 21 20 18 17 16 16 16 15 11 9 7 6 7 3 2 5 6 4 3 4 3 2 1 3 5 7 8 7 9 6 4 3 8 9 11 13 13
29 29 30 29 28 26 24 25 23 22 21 19 17 15 15 14 5 6 7 6 5 4 4 7 8 7 6 2 2 1 3 6 8 8 7 5 5 3 7 6 7 11 13 13 12
30 30 31 31 30 30 29 28 26 24 23 21 20 16 15 14 11 10 8 5 5 6 7 10 9 8 4 3 3 3 8 8 5 5 3 2 3 5 3 5 4 14 8 10 11
29 30 31 31 31 30 32 30 29 26 24 23 20 18 15 13 11 10 9 6 7 9 9 10 11 9 7 5 3 8 4 5 5 2 1 1 4 3 0 3 5 12 6 14 11
28 28 28 30 31 31 31 31 30 27 26 25 21 18 17 13 11 12 10 7 9 12 11 10 10 9 9 4 5 7 2 3 3 1 3 1 1 1 2 3 5 4 18 22 14
28 27 27 27 28 27 26 28 29 28 26 27 23 19 17 14 12 15 13 10 10 12 10 10 9 9 9 8 5 1 4 4 1 4 4 1 5 4 4 2 4 6 9 15 11
30 28 27 26 25 23 20 20 22 25 26 26 25 21 18 17 15 19 17 14 14 14 11 10 8 8 10 6 6 3 3 2 9 7 3 1 3 5 1 1 1 8 8 10 17
33 30 28 27 25 20 16 14 16 18 21 24 25 19 19 12 19 22 20 17 17 16 14 11 10 8 10 10 11 4 2 4 3 10 8 6 4 7 3 1 4 6 8 8 11
38 34 31 29 27 22 17 16 15 17 16 19 21 18 18 16 19 24 22 19 19 18 13 13 11 13 12 13 8 6 4 3 1 5 7 10 9 10 8 4 5 10 12 11 13
43 39 35 33 30 28 24 23 23 23 26 19 19 24 18 13 21 27 27 24 23 17 14 11 13 11 14 15 12 8 7 6 6 8 9 11 9 8 8 3 4 8 12 15 17
48 43 40 37 35 32 31 28 25 25 27 36 29 28 27 27 23 31 30 27 23 18 16 11 7 11 15 13 13 9 9 6 7 7 9 9 8 9 5 11 11 11 13 17 17
51 49 44 41 37 32 29 25 20 21 19 34 33 27 29 29 31 32 31 26 23 21 16 13 12 12 12 12 13 10 8 5 5 5 5 6 4 6 8 6 12 15 19 17 16
55 53 49 44 41 34 30 22 18 14 6 8 16 23 23 35 24 34 35 32 23 21 21 15 17 15 12 12 14 10 9 5 3 5 5 5 8 7 4 6 7 14 20 20 21
55 57 53 49 42 35 31 23 18 9 10 7 9 17 21 34 28 24 39 35 23 20 24 13 17 14 12 12 12 11 11 7 5 4 8 7 6 5 8 5 5 9 11 22 23
42 55 56 52 42 37 32 24 14 19 9 11 11 13 20 26 26 25 42 41 31 25 24 20 17 12 12 9 13 11 11 10 8 7 7 5 7 13 7 9 10 11 11 18 26
39 43 57 55 44 39 33 31 20 23 30 8 13 10 14 20 24 27 33 38 33 27 21 22 18 18 15 15 12 17 15 9 4 5 4 4 6 4 7 12 10 11 15 21 21
33 38 44 58 45 44 38 34 41 33 23 29 9 7 13 19 18 25 31 40 37 33 24 23 21 13 18 16 14 14 16 12 5 4 5 9 8 11 4 6 5 8 9 12 16
31 38 38 52 47 48 40 45 39 27 23 22 34 13 12 19 23 26 27 34 34 33 27 13 17 16 14 15 19 12 14 8 8 6 7 7 8 7 6 2 4 1 2 4 9
29 39 46 38 39 47 42 51 50 32 23 24 20 23 19 17 25 28 23 17 37 33 31 22 16 9 15 17 17 17 12 9 7 6 5 5 7 8 7 7 7 6 4 4 4
38 47 39 34 42 55 53 60 45 38 27 27 25 21 17 18 18 28 32 28 14 33 40 31 19 18 15 14 18 16 15 16 14 9 8 6 14 15 14 9 9 7 7 6 4
45 43 37 33 45 55 60 63 42 26 34 30 25 24 23 17 15 21 28 33 24 18 31 33 24 20 19 19 21 17 17 16 16 17 15 8 9 4 8 13 11 12 12 11 10
52 47 35 38 42 48 67 68 44 37 27 32 28 23 25 23 19 15 24 29 29 28 21 31 29 32 25 21 15 16 20 20 20 18 18 20 17 16 16 14 12 13 14 17 16
58 46 55 55 54 60 63 68 66 49 37 28 29 30 25 17 19 19 17 24 25 25 28 32 31 30 28 23 21 23 23 20 24 23 23 20 19 18 16 16 17 18 15 17 20
61 48 54 37 50 49 54 57 56 40 39 41 34 27 25 22 17 9 14 17 20 29 28 26 26 29 27 28 25 23 25 25 25 23 22 23 23 20 18 22 22 22 19 16 15
62 61 40 52 36 40 58 59 49 49 47 30 32 26 34 36 23 18 8 19 10 8 29 31 27 24 24 24 23 20 30 25 25 25 25 24 23 19 21 25 25 23 22 22 20

GFSSW_700_spd_042.txt.gz
Wind_Speed
28 27 25 23 21 22 21 21 22 21 20 20 20 20 20 20 19 19 16 14 11 10 8 7 4 1 2 4 8 8 14 15 13 5 7 9 10 18 8 3 9 9 10 10 9
29 29 29 26 24 22 21 21 22 21 20 20 21 21 20 21 19 19 17 12 10 9 7 5 2 3 7 6 7 10 16 15 7 12 10 9 14 17 16 4 12 14 9 11 16
29 29 29 28 27 25 22 22 23 22 21 20 19 20 21 20 18 19 10 7 9 8 8 6 7 9 9 9 11 11 16 11 8 11 13 12 19 17 8 6 18 14 15 14 19
28 27 27 27 27 26 25 23 26 25 24 22 20 20 20 19 7 18 11 11 10 8 7 5 6 7 9 10 8 11 11 12 13 16 15 12 13 11 13 9 12 9 13 18 23
27 27 26 25 25 26 26 26 26 27 26 25 24 24 21 22 17 23 15 13 12 8 7 6 7 6 12 11 11 12 13 14 13 14 11 11 11 8 8 8 8 11 16 12 10
30 28 26 24 24 24 25 27 27 27 27 26 27 26 25 24 19 22 16 13 12 9 9 8 7 10 17 11 13 11 13 15 11 12 11 9 14 5 7 15 13 15 13 22 8
32 31 29 26 25 23 23 25 27 26 27 27 27 29 28 19 21 21 17 12 12 11 9 8 10 12 9 13 14 16 17 15 15 10 10 15 15 23 2 8 10 14 18 23 13
34 32 30 29 27 25 24 23 24 25 24 26 28 30 31 21 20 20 17 15 13 13 14 14 17 14 13 12 15 16 17 19 17 13 13 13 11 4 6 5 11 13 8 20 16
36 35 33 30 28 26 24 24 24 24 22 24 26 26 28 23 21 19 20 15 15 15 15 15 14 14 11 15 16 18 22 17 11 6 12 11 9 7 7 10 13 5 9 5 8
39 37 36 32 30 28 25 23 23 23 24 21 22 20 13 16 12 20 19 17 16 17 15 14 12 13 14 14 22 9 17 14 10 11 11 18 6 3 14 14 9 5 3 4 6
41 40 39 35 32 30 26 22 21 19 25 24 12 16 10 9 14 15 16 22 17 18 19 15 15 19 17 18 19 17 14 22 5 1 10 15 11 1 16 13 11 3 0 2 5
40 41 41 38 35 31 27 24 17 26 32 28 23 25 17 12 15 14 19 25 24 25 19 17 26 17 18 19 19 18 18 19 9 7 7 10 13 13 19 16 9 3 4 6 9
35 39 40 41 37 31 31 26 25 26 33 39 34 31 23 23 22 16 23 27 25 24 24 24 18 16 22 18 16 18 19 18 13 10 10 11 14 7 8 13 12 9 6 11 10
32 34 37 37 34 36 29 25 24 21 23 32 30 32 32 26 29 21 25 28 25 27 25 25 21 20 15 18 16 19 17 17 12 14 14 8 16 9 20 13 15 15 14 16 18
33 32 33 33 35 30 25 29 19 14 8 9 11 25 16 33 17 29 28 29 31 27 22 28 23 20 19 18 17 16 10 17 13 17 20 18 11 10 14 17 21 16 18 20 17
36 31 34 31 31 24 27 23 20 10 13 7 14 19 21 21 34 13 26 34 30 28 27 25 22 21 21 17 17 14 9 12 14 16 16 20 17 13 6 10 15 19 18 21 23
37 34 34 32 26 23 23 22 16 23 14 19 15 13 15 16 27 31 29 37 38 35 35 28 27 24 19 20 19 17 15 14 12 13 10 20 16 14 8 6 6 14 14 23 20
33 30 33 33 26 24 26 28 24 33 37 5 8 21 18 15 19 27 29 38 37 33 29 30 25 27 22 24 21 18 21 15 4 3 10 10 6 12 12 8 7 9 10 11 21
26 28 30 34 29 26 33 38 50 41 19 41 10 16 19 18 18 25 31 36 40 41 35 29 33 21 26 23 23 20 24 23 8 7 8 19 9 11 11 7 6 6 8 12 14
27 28 32 27 28 30 33 40 49 37 38 27 37 24 17 21 21 22 33 29 35 37 38 33 18 26 27 27 23 26 18 19 14 5 6 10 14 5 8 9 6 5 4 4 9
28 31 36 26 28 35 44 50 57 48 34 38 33 29 33 21 25 26 25 32 28 34 37 34 24 20 23 33 26 22 24 17 20 23 6 4 7 6 10 11 5 5 9 6 3
36 41 38 28 37 47 50 51 47 38 42 45 35 33 28 32 29 19 28 26 27 31 43 40 25 30 26 23 23 27 26 27 24 13 11 6 13 14 7 9 11 11 12 9 9
45 43 35 34 47 51 52 49 46 40 42 40 40 33 26 30 28 33 28 26 25 28 41 40 41 19 27 28 26 27 30 24 28 23 22 11 15 2 5 7 11 9 12 14 14
51 47 47 41 46 50 54 57 48 42 41 41 39 32 27 26 25 20 19 22 23 24 32 31 36 39 26 24 23 25 26 25 26 24 20 28 18 17 17 11 13 13 15 17 12
60 47 56 56 58 56 44 36 43 35 41 38 43 42 38 32 28 26 19 14 23 15 27 32 34 39 38 31 29 28 27 28 29 34 27 24 24 22 22 24 17 14 9 12 14
66 56 56 42 49 48 47 49 42 29 36 48 48 45 34 41 27 24 27 25 17 25 21 33 29 30 37 33 34 35 30 32 29 29 31 29 30 25 22 21 24 19 14 15 20
68 65 38 59 38 46 55 55 52 34 28 38 48 42 45 35 36 29 26 20 24 12 26 28 27 31 30 32 27 40 39 30 28 30 25 28 25 22 23 21 17 16 23 23 22

GFSSW_700_spd_045.txt.gz
Wind_Speed
28 27 27 27 24 22 23 23 23 22 21 21 20 20 19 18 15 17 16 17 13 10 7 7 6 3 3 5 3 3 13 23 19 15 10 15 10 16 8 11 6 1 3 8 10
27 27 26 26 26 25 25 25 22 22 21 21 20 20 19 18 15 16 16 15 10 8 7 7 7 3 3 3 4 9 17 19 18 15 14 13 19 16 16 14 12 11 13 9 9
25 26 26 25 26 26 26 27 25 24 22 20 20 20 17 18 13 17 11 7 8 9 8 7 8 6 7 5 3 10 19 22 18 16 13 18 17 23 18 17 12 13 10 10 10
26 25 25 25 25 26 27 27 26 26 26 24 23 22 18 19 10 14 10 12 13 10 8 7 8 6 4 8 6 19 15 15 13 17 24 17 14 13 10 10 10 12 16 18 15
29 27 25 25 24 25 25 26 26 26 27 26 25 26 24 24 14 22 16 15 13 12 9 8 11 5 4 15 22 11 15 15 17 15 15 10 17 16 17 18 15 18 16 21 21
31 30 28 27 25 25 24 24 24 25 26 27 27 28 29 26 19 21 15 14 13 13 11 12 9 3 19 22 15 12 15 15 15 12 14 16 13 18 23 26 12 11 20 23 10
32 31 29 29 28 26 25 24 24 24 25 26 27 29 30 21 19 24 16 12 13 14 13 11 10 16 18 14 12 12 16 21 16 19 17 18 13 14 11 12 9 13 16 21 2
35 34 32 30 28 27 26 23 24 23 24 25 26 27 31 20 22 22 21 14 14 15 16 12 15 23 19 15 14 13 14 20 17 20 17 14 7 20 13 9 12 12 13 10 9
37 36 35 33 31 28 26 23 22 24 24 24 25 25 26 21 20 19 22 17 14 18 16 20 21 20 16 15 14 15 23 17 18 12 13 16 12 12 10 10 10 9 11 4 3
37 37 37 35 33 30 27 23 22 26 26 26 27 24 18 13 11 15 20 20 17 17 16 19 21 19 17 15 20 18 18 14 10 11 15 17 15 13 8 15 9 10 4 2 4
35 36 36 36 35 31 30 25 24 25 28 28 22 20 16 16 11 10 14 19 19 17 22 18 19 23 17 15 16 17 22 25 20 17 11 18 22 12 6 14 10 10 3 1 6
32 33 34 33 32 32 31 26 21 25 36 31 30 29 24 17 20 15 13 22 27 27 21 17 27 19 11 11 19 26 27 18 12 9 9 12 16 12 8 10 8 5 4 7 4
29 29 30 30 28 27 31 27 22 25 36 39 32 36 29 26 28 17 17 20 29 28 28 26 24 16 16 18 19 20 20 19 19 8 10 22 19 21 15 14 10 12 5 8 7
30 30 29 26 24 21 25 26 25 24 25 42 34 37 33 32 36 21 23 22 26 28 27 30 26 21 27 29 21 21 16 18 18 10 10 12 9 18 24 19 19 14 10 8 6
28 28 30 26 22 15 20 23 21 16 6 5 8 8 9 32 33 24 28 30 32 31 25 34 22 29 27 22 16 22 19 15 15 15 18 20 7 22 25 22 22 17 12 10 11
29 27 28 27 16 10 13 15 15 12 12 7 11 17 16 16 22 14 24 34 32 29 31 31 22 26 26 21 20 17 20 16 13 12 15 23 19 21 26 17 26 18 21 16 12
29 25 25 26 14 19 19 20 16 18 10 18 11 14 19 19 18 24 18 37 34 33 38 32 35 30 29 23 18 19 16 3 4 6 7 11 13 20 21 16 27 21 24 22 20
27 22 22 21 20 20 27 26 17 25 31 11 17 10 17 18 20 22 32 31 40 34 17 31 26 33 23 27 20 23 22 11 4 2 4 17 7 11 11 14 8 19 15 20 21
24 23 23 20 24 26 28 34 30 29 14 37 10 17 22 18 15 19 28 40 31 44 36 20 38 20 28 22 23 23 24 21 9 4 2 7 20 28 13 14 13 8 13 13 20
24 25 29 18 25 31 36 46 48 35 32 19 22 16 8 14 18 21 19 19 30 36 40 36 21 30 29 25 27 29 20 18 7 4 2 8 17 15 11 5 7 11 11 13 13
26 29 30 20 24 37 47 57 47 48 26 40 33 32 26 23 16 19 26 25 18 31 37 38 32 27 19 30 27 27 28 25 14 13 5 2 6 8 13 19 11 12 12 14 14
32 37 30 27 33 42 55 56 49 30 32 39 34 35 34 27 27 22 22 15 10 21 36 41 25 36 37 18 25 28 30 29 22 14 10 12 16 7 1 9 11 13 13 12 15
39 40 35 31 45 51 48 51 51 30 33 22 38 42 33 31 25 23 16 26 25 20 36 37 41 28 23 32 28 27 32 27 26 29 31 12 14 12 6 11 7 19 17 16 20
45 42 40 44 45 48 49 51 49 43 44 34 33 30 40 30 30 30 25 27 23 17 24 31 42 37 33 23 27 29 26 31 33 26 28 28 24 17 16 22 15 18 19 17 20
54 52 50 49 62 51 47 42 44 47 45 29 40 40 45 33 28 31 25 26 25 20 14 11 31 39 43 34 27 25 29 34 34 35 33 30 23 27 27 26 24 26 27 26 20
61 64 54 56 50 52 49 56 51 40 21 35 38 36 40 40 34 28 27 26 28 20 23 10 19 26 28 34 35 38 29 32 32 23 29 31 31 28 22 21 26 24 23 15 28
63 66 48 50 40 45 61 58 54 40 25 23 31 25 41 55 33 29 27 28 27 26 26 21 12 16 33 33 32 37 48 35 26 28 30 31 27 26 28 26 21 20 17 22 33

GFSSW_700_spd_048.txt.gz
Wind_Speed
25 24 24 24 26 25 24 24 22 21 21 21 23 23 23 21 19 19 15 13 13 11 11 7 4 6 3 8 6 7 10 13 14 13 6 11 10 14 19 15 14 20 17 16 16
23 24 23 24 25 25 25 25 23 24 23 22 23 22 22 21 19 17 16 12 9 7 9 7 7 9 7 11 8 9 13 9 15 16 10 16 20 17 17 20 16 15 14 15 10
24 23 23 23 23 24 24 25 25 24 25 25 25 22 20 19 18 18 14 9 5 6 9 8 8 9 8 10 8 6 15 14 16 6 17 22 24 17 19 22 14 11 11 12 15
26 24 24 23 23 22 23 23 24 25 26 27 27 26 22 21 11 10 11 10 8 8 10 10 10 8 13 10 3 14 11 15 10 11 18 21 23 20 19 23 17 20 14 15 16
30 26 26 25 23 22 21 23 23 24 25 28 28 27 25 27 16 21 21 16 15 11 11 12 12 12 13 10 12 15 16 10 13 17 17 17 17 15 21 24 23 20 16 23 28
29 28 28 27 25 24 22 22 23 23 25 28 29 28 28 29 18 21 25 19 17 14 12 14 9 11 16 16 16 18 16 12 13 13 15 15 16 18 21 25 15 15 14 22 8
29 27 29 28 27 25 25 24 23 24 24 27 28 28 30 22 18 24 20 15 18 15 13 13 15 16 16 16 14 16 17 20 20 10 16 17 19 19 21 22 15 13 11 15 13
35 33 29 30 30 27 26 25 23 25 25 27 28 29 30 21 20 23 22 18 19 16 14 17 20 22 19 19 17 12 16 19 2 9 17 21 21 17 15 15 11 12 12 10 13
28 32 33 33 32 29 29 26 24 28 26 28 29 26 28 23 22 21 25 21 19 19 17 24 24 20 20 17 17 18 22 17 20 5 7 16 22 12 11 14 10 11 8 6 4
35 37 34 33 32 31 31 28 27 28 31 30 31 25 23 18 15 19 21 24 22 20 21 27 24 23 21 19 18 14 16 16 15 11 12 19 21 14 13 13 8 11 7 2 3
31 31 31 30 30 30 29 29 30 32 37 34 25 20 14 14 16 20 16 21 24 25 26 22 28 33 23 19 17 17 20 24 23 16 13 13 12 17 16 12 9 7 6 4 6
28 29 28 26 25 25 27 25 30 33 40 37 37 33 25 21 24 21 22 22 28 30 25 21 33 26 17 15 17 17 22 25 24 9 7 13 16 15 18 14 9 7 6 7 10
28 28 26 23 19 21 21 20 28 33 39 42 35 38 29 29 32 23 23 23 27 30 29 31 25 17 18 16 18 20 25 25 20 15 11 13 18 18 21 19 14 12 9 8 7
27 27 26 22 19 17 16 16 25 26 23 43 39 36 35 34 40 28 26 26 25 33 31 26 27 24 15 20 17 24 17 22 19 12 8 10 8 17 13 19 21 15 13 9 6
25 25 24 19 17 15 13 15 19 16 6 10 10 7 7 28 32 32 30 30 30 31 32 32 22 24 25 23 18 26 15 19 21 20 17 18 9 11 10 18 25 19 15 14 10
24 24 25 16 14 16 16 15 15 9 10 7 8 11 14 12 24 18 35 31 26 29 31 31 28 20 20 18 20 21 23 18 18 15 6 13 8 19 18 19 20 22 17 15 15
24 23 23 15 12 21 16 19 14 13 6 12 9 13 13 12 22 24 23 42 37 27 34 32 35 28 25 24 22 24 23 6 4 3 6 14 11 15 17 19 19 18 19 19 18
23 22 21 12 20 23 24 27 19 11 25 7 13 12 22 16 16 21 19 29 43 31 14 27 17 34 26 32 26 19 23 15 6 3 4 8 7 14 16 4 26 30 17 14 18
22 24 25 15 21 29 33 38 20 26 2 36 11 11 6 17 12 16 23 28 36 42 24 12 21 22 33 26 22 19 26 22 17 4 1 7 19 25 17 14 11 18 20 19 17
25 27 28 19 22 31 39 44 32 21 21 9 13 6 5 12 11 13 16 14 30 36 33 34 16 14 29 24 27 29 25 12 10 5 3 5 11 10 3 10 12 7 11 16 17
27 28 28 24 24 33 49 47 39 38 26 24 17 13 14 11 5 6 4 12 15 16 40 33 38 36 20 29 30 25 34 21 15 14 5 1 7 10 7 13 14 14 12 15 19
30 35 32 30 35 39 49 49 29 12 23 34 34 27 20 12 18 20 10 6 4 4 29 35 25 38 44 28 12 25 30 34 23 8 13 16 19 15 5 8 23 16 20 19 19
34 37 34 33 43 49 46 40 46 28 22 22 33 35 32 26 11 6 8 11 15 11 2 12 32 23 24 38 39 34 26 29 29 28 26 13 6 9 19 14 15 19 13 17 19
38 37 40 45 50 46 42 38 41 40 39 29 32 31 28 33 31 22 21 13 13 18 15 16 20 32 32 23 25 23 29 28 32 30 25 32 33 30 23 25 21 17 14 16 21
44 44 48 43 58 50 42 38 41 41 31 26 43 40 31 32 28 42 33 20 20 18 19 19 27 20 34 32 38 26 34 32 29 33 30 28 34 29 26 24 20 23 24 24 29
52 57 46 54 36 43 53 54 47 24 29 25 38 28 31 42 31 15 19 13 14 19 24 17 17 18 25 30 31 35 36 33 38 32 37 33 39 33 29 28 29 28 24 24 25
57 57 51 46 48 42 59 47 40 34 32 21 16 15 31 30 26 29 30 29 25 21 22 22 24 16 15 25 20 32 49 38 36 31 20 32 23 20 25 28 26 27 30 24 26

GFSSW_700_spd_051.txt.gz
Wind_Speed
30 29 28 27 27 26 25 24 24 24 23 23 22 21 22 22 20 22 20 17 15 15 14 9 10 9 8 6 10 10 9 8 8 8 15 11 13 19 24 23 18 27 20 13 14
30 29 27 27 25 24 24 24 24 24 25 25 25 22 20 20 20 19 20 17 15 13 13 10 11 10 10 12 12 11 10 6 14 17 18 16 17 22 22 19 20 16 15 12 9
32 30 28 26 25 24 23 23 24 23 25 25 25 24 22 19 19 19 17 16 14 10 11 11 11 11 12 16 14 13 12 12 8 15 12 14 20 22 23 20 23 18 17 17 14
38 35 28 27 25 24 23 23 24 23 23 26 26 24 23 21 14 9 11 14 13 11 11 12 12 14 13 17 15 14 10 10 12 13 12 17 20 24 23 22 23 23 15 14 19
42 41 31 27 28 25 24 23 24 23 23 25 25 24 25 23 21 20 21 17 16 17 15 14 13 14 14 19 13 14 13 7 7 10 15 20 22 24 26 24 26 22 19 21 23
35 36 37 37 28 26 26 25 25 24 25 25 25 24 27 24 21 21 28 23 21 18 17 16 12 16 18 21 17 19 16 12 11 14 17 20 22 26 25 26 23 15 18 20 23
32 33 25 24 27 28 29 27 26 26 28 27 26 26 28 20 20 20 25 23 20 17 18 15 17 17 22 23 22 19 23 20 19 20 22 20 27 24 25 24 18 14 13 18 17
25 23 32 26 27 28 28 27 27 29 30 29 28 29 30 22 17 20 24 23 18 17 15 19 22 22 23 21 17 14 16 18 5 8 17 22 28 20 21 18 15 11 12 13 14
32 28 33 30 30 29 28 27 29 32 30 30 30 30 30 25 22 24 26 24 21 22 16 22 27 25 23 22 18 19 20 15 7 4 14 12 17 18 20 15 14 10 11 8 8
31 35 32 33 33 28 29 30 31 32 33 32 32 29 25 17 11 21 25 26 27 24 22 29 29 28 28 23 22 17 19 19 14 10 15 24 22 18 17 17 16 11 10 7 5
29 30 27 29 33 29 29 34 34 35 37 34 30 26 20 22 18 25 20 22 29 29 28 31 34 39 33 23 19 19 18 17 13 10 25 18 23 18 16 19 17 10 8 8 5
29 28 28 25 25 23 24 25 31 34 39 39 38 37 29 26 20 21 25 21 29 34 28 30 42 36 27 21 20 20 20 18 13 10 14 9 16 19 18 18 15 13 10 8 4
28 28 26 23 22 19 19 23 26 29 34 41 38 39 32 36 35 28 25 25 26 32 34 37 28 30 30 26 23 22 21 17 18 14 16 18 20 18 20 19 20 16 14 11 6
28 27 24 21 19 18 18 18 19 18 19 37 35 31 34 36 41 28 32 28 27 30 33 33 36 9 14 27 23 24 18 16 18 19 14 15 7 18 18 15 16 17 16 10 6
29 25 21 19 17 15 17 13 10 10 6 9 10 14 13 20 27 36 32 35 31 28 33 33 32 31 30 24 20 22 11 15 20 21 23 19 10 13 15 18 16 13 16 13 8
28 24 20 16 15 17 16 12 11 7 9 5 4 9 15 8 18 18 34 39 30 29 23 33 22 14 21 23 22 18 20 20 22 19 7 19 17 16 22 26 21 19 15 16 13
27 23 20 16 13 17 18 17 11 12 3 3 2 10 11 9 14 15 21 46 37 27 31 30 32 28 21 21 23 21 15 4 5 4 6 14 11 18 11 13 18 19 15 15 15
26 21 20 16 17 19 23 25 19 7 22 6 0 4 14 8 9 22 11 37 41 26 11 28 14 36 33 34 27 22 21 13 6 4 5 10 7 7 10 20 13 18 17 16 20
21 22 22 17 17 23 28 34 17 23 5 16 7 6 6 14 6 14 22 17 34 41 22 14 19 18 22 31 31 28 28 22 26 1 2 9 14 23 18 15 19 15 18 17 19
22 26 26 21 22 25 34 38 28 11 19 12 7 3 2 6 10 5 9 7 27 24 42 24 7 12 15 17 29 30 21 11 10 5 4 4 6 14 19 10 12 11 14 15 15
27 31 33 27 28 30 42 34 33 25 21 16 8 9 5 2 1 2 3 5 5 9 18 34 33 28 19 12 18 26 28 24 21 20 6 2 8 13 6 5 14 15 13 11 9
33 35 38 31 37 40 43 39 37 18 35 27 30 19 19 15 10 6 4 2 7 5 7 14 20 33 43 37 25 12 30 31 26 6 10 15 22 15 7 6 15 12 14 13 15
36 38 35 33 45 47 35 34 37 33 29 19 35 29 27 28 15 10 15 6 3 5 4 4 7 24 32 28 24 33 31 20 22 31 33 15 12 9 14 13 10 12 20 19 20
36 37 35 38 45 46 39 33 25 34 38 25 21 25 23 15 19 17 11 10 5 8 14 17 8 6 9 13 9 17 29 34 29 30 24 38 32 32 27 21 21 22 20 22 20
43 39 40 44 50 46 38 37 35 31 26 34 39 37 29 20 15 17 18 25 25 7 7 14 18 18 21 21 22 26 31 24 32 36 32 28 32 33 29 26 27 26 25 20 20
50 51 33 50 34 42 48 46 30 25 31 25 31 28 28 35 34 26 14 9 15 15 10 13 15 24 24 16 20 28 34 33 39 35 39 29 30 29 28 27 27 29 25 28 30
53 52 48 37 40 47 52 46 37 34 27 22 15 13 18 21 26 12 11 20 19 19 19 15 13 15 11 15 20 23 33 38 36 37 37 37 33 26 32 31 27 26 30 32 35

GFSSW_700_spd_054.txt.gz
Wind_Speed
36 36 34 33 32 32 30 31 27 26 27 27 26 25 20 20 18 19 19 18 17 18 15 14 15 13 13 12 12 14 13 12 7 6 12 12 15 16 18 16 19 18 17 14 14
36 36 36 35 34 31 31 30 30 27 27 27 26 26 24 21 18 15 17 17 15 18 15 16 16 14 15 14 14 17 16 14 7 14 14 15 14 16 19 19 21 21 19 18 17
38 37 35 37 35 32 32 31 29 28 27 26 26 24 25 22 20 17 15 15 15 17 13 16 16 15 16 16 16 17 15 10 11 13 13 15 16 19 20 21 21 21 18 15 15
25 31 43 40 40 43 37 32 31 27 27 26 26 23 25 20 11 8 8 12 15 15 14 14 15 17 17 19 19 20 15 14 12 15 15 16 19 20 21 21 25 23 16 13 18
33 33 32 37 35 36 40 37 33 28 26 27 27 24 24 22 18 15 11 10 13 16 14 13 17 17 19 17 19 24 20 18 14 13 14 17 20 21 25 26 25 23 15 15 19
31 30 27 33 33 36 41 41 35 29 28 28 29 24 26 22 20 17 23 23 20 18 20 18 18 18 18 20 20 21 22 21 19 15 16 20 22 25 21 24 26 21 14 16 16
32 30 26 24 31 31 36 44 38 31 28 29 30 29 31 17 21 14 24 24 24 24 22 20 20 22 21 20 21 21 24 23 21 21 21 23 28 24 20 20 21 19 14 16 15
34 31 28 24 25 31 32 31 40 36 24 27 30 33 38 19 21 16 25 21 21 20 20 22 23 25 24 21 20 19 21 22 8 8 11 17 26 17 14 17 17 16 14 13 9
32 32 34 35 31 35 30 36 31 30 24 29 31 33 33 25 25 24 23 22 23 21 19 21 25 25 26 22 22 20 21 16 11 7 10 12 20 16 18 16 17 18 15 13 10
32 31 30 30 30 33 32 31 30 32 31 34 33 30 25 14 8 18 26 27 24 27 24 26 27 29 31 28 27 22 18 21 17 11 12 18 17 11 15 14 15 17 16 11 10
30 30 29 28 29 27 29 32 31 32 36 36 32 27 22 22 18 22 18 20 26 31 31 30 31 39 36 32 24 18 14 15 19 14 16 16 18 8 13 16 15 11 10 10 8
31 28 27 26 26 25 26 27 28 28 35 33 35 38 31 33 27 17 25 22 22 32 34 31 41 35 29 28 24 22 21 21 19 14 14 15 17 16 16 16 15 15 13 12 7
30 28 26 26 24 23 23 23 23 27 31 35 32 36 33 37 34 25 23 24 24 28 36 38 24 35 33 32 30 25 24 21 18 15 16 15 22 17 16 19 18 14 13 14 11
31 28 25 24 22 22 21 19 18 21 20 33 27 25 27 33 37 26 33 29 27 26 30 31 40 19 22 39 31 31 23 17 18 19 13 17 11 22 18 23 20 17 12 11 10
31 28 25 23 19 19 20 14 12 12 6 7 5 11 8 12 15 21 31 39 34 26 25 25 31 30 19 24 33 31 19 18 15 20 24 22 13 19 19 21 23 19 14 10 10
30 28 25 19 16 18 17 12 5 4 8 3 5 8 10 9 12 16 25 41 39 31 24 20 23 22 34 30 18 19 16 13 16 20 8 23 19 13 18 24 24 20 17 12 13
28 27 26 19 15 16 15 13 8 9 4 1 1 7 9 10 10 15 15 42 38 31 29 24 25 17 15 15 21 25 17 1 2 2 6 13 16 25 21 22 17 12 15 12 13
25 27 24 20 17 17 18 19 13 4 17 13 7 6 5 5 6 16 5 28 37 28 18 25 11 29 32 27 17 27 26 9 6 4 4 9 8 11 7 8 16 18 16 16 13
26 27 27 19 19 17 22 23 9 17 8 10 15 7 1 5 1 10 9 7 32 33 18 15 17 16 14 29 33 23 18 25 17 3 2 8 12 17 25 25 16 18 11 15 15
27 26 25 20 20 20 26 32 21 11 15 21 8 6 6 4 3 4 6 7 12 33 35 18 6 4 9 13 25 33 14 16 11 5 5 4 6 11 9 20 13 9 13 13 15
24 23 24 22 20 30 38 31 26 21 9 17 10 8 5 5 7 6 5 8 8 8 25 34 21 13 12 10 14 23 31 24 14 13 4 2 6 10 14 5 8 8 9 9 12
22 27 25 23 28 36 40 32 31 28 27 22 25 19 17 15 8 6 6 6 8 6 7 17 10 27 35 24 12 11 13 25 23 8 10 11 16 12 10 3 6 8 10 11 11
28 30 29 29 34 41 34 37 32 29 29 32 26 20 24 23 14 6 2 4 4 2 5 3 2 1 4 13 15 14 18 27 22 20 26 13 7 9 13 10 12 15 15 16 16
33 27 39 34 42 36 42 36 33 31 31 32 23 18 22 17 13 11 16 8 11 7 2 6 2 3 3 3 9 13 9 13 26 30 21 27 25 25 20 23 24 20 18 17 19
37 43 30 29 47 41 39 35 35 32 24 21 36 31 18 9 9 15 17 14 21 14 9 3 6 8 10 11 15 19 20 18 20 22 30 29 32 29 26 26 26 24 25 24 24
42 45 46 32 39 43 35 39 35 29 28 24 23 26 27 31 29 20 14 9 9 8 19 10 5 8 11 11 16 19 19 23 27 26 31 28 32 27 24 24 22 24 22 24 26
45 48 38 34 38 34 43 42 39 31 30 25 17 13 13 17 15 19 21 16 16 13 11 10 8 10 8 9 14 15 5 7 15 21 21 30 34 32 29 29 27 27 30 29 28

GFSSW_700_spd_057.txt.gz
Wind_Speed
35 35 34 34 34 33 34 34 34 33 29 30 30 30 29 26 20 19 18 21 19 20 18 17 16 15 15 16 16 15 17 19 15 7 7 9 11 9 13 16 19 20 17 22 16
28 30 33 36 36 35 34 33 32 34 32 29 31 28 30 27 24 19 18 19 19 20 19 18 18 17 18 18 19 18 21 19 16 9 10 10 14 13 15 18 18 18 17 20 16
18 22 25 27 31 37 38 34 32 31 31 31 31 28 27 26 23 22 19 17 18 20 19 20 21 19 20 19 20 20 20 14 14 12 13 11 12 14 16 19 18 18 18 20 16
25 26 26 27 29 33 34 40 37 38 38 35 34 29 26 23 13 11 11 15 19 18 18 20 21 20 21 22 19 21 17 15 15 13 15 15 15 15 21 19 20 16 20 20 18
29 29 29 30 29 28 32 34 32 33 36 38 36 32 27 25 19 14 11 11 15 19 18 18 19 18 20 21 21 23 20 20 18 17 17 19 19 18 18 17 19 18 20 19 17
29 30 30 29 28 26 29 28 28 32 40 38 38 35 30 30 17 16 22 18 16 19 18 17 16 16 19 24 21 21 21 24 22 18 21 20 21 21 14 17 16 17 17 18 17
31 30 30 29 29 27 26 27 25 31 30 41 39 40 39 27 21 16 21 29 26 24 22 19 19 21 23 21 21 21 23 24 24 20 23 23 27 21 16 9 8 13 13 17 16
31 31 31 31 30 30 30 31 32 35 34 28 38 38 46 25 24 25 23 25 26 33 31 27 24 25 23 23 19 20 22 25 21 20 13 15 22 14 11 10 10 10 10 16 14
32 31 30 31 31 31 29 32 35 33 28 33 33 41 32 21 21 25 24 25 25 25 28 30 29 28 26 24 21 21 17 19 16 14 10 9 19 13 16 11 8 10 10 12 12
30 30 30 30 30 30 29 30 30 28 32 33 32 29 31 19 13 16 24 29 26 27 26 27 30 31 32 32 25 22 21 23 20 16 15 12 17 12 13 10 9 9 9 8 11
29 29 29 29 29 29 29 28 28 30 28 30 27 19 21 16 12 16 17 17 23 29 32 32 33 38 37 33 29 20 14 18 18 16 18 16 17 13 9 8 9 9 10 8 11
29 28 28 28 26 27 28 28 28 29 35 23 27 30 27 19 25 16 17 19 19 28 33 32 39 35 29 29 31 27 21 22 20 19 17 16 18 17 13 11 11 12 13 10 12
29 28 29 27 24 24 26 25 25 25 31 32 24 24 24 31 30 28 22 19 23 23 32 41 28 34 31 30 31 30 26 23 20 16 15 18 20 18 18 16 14 11 13 11 10
28 28 30 27 23 21 22 21 20 19 20 15 10 5 8 21 34 28 31 32 27 28 24 33 40 17 20 37 32 32 26 22 20 16 9 11 10 20 24 24 16 13 10 10 10
28 29 29 28 20 19 18 17 13 14 6 11 7 6 7 5 7 12 27 35 36 28 22 23 28 39 20 17 28 33 25 21 19 17 17 15 12 13 10 19 16 14 14 15 12
28 27 28 25 21 18 14 13 9 2 7 2 4 6 12 8 8 9 13 35 35 29 28 22 20 18 33 31 24 20 18 9 10 13 9 14 13 14 11 10 11 10 11 13 12
26 26 27 24 19 17 13 10 5 6 5 4 4 11 13 12 7 13 8 28 21 26 25 22 26 20 16 30 23 18 12 3 5 5 8 10 11 27 24 24 19 13 7 10 10
26 27 26 22 18 17 14 10 10 4 10 15 15 13 6 6 5 8 4 15 30 24 21 22 14 26 23 22 26 32 29 10 7 6 5 7 7 13 8 5 6 14 15 15 14
28 27 24 19 19 19 16 16 9 14 10 9 7 9 5 2 2 5 6 4 23 27 16 22 19 13 28 25 21 16 22 28 7 1 1 4 8 15 21 20 14 15 13 14 15
28 27 24 19 19 19 20 25 16 11 11 17 10 8 8 11 3 7 6 7 6 28 22 12 5 13 13 21 27 24 14 14 15 6 8 3 6 11 14 16 13 10 9 12 15
25 27 22 18 21 24 29 24 25 23 9 10 12 10 6 6 10 7 3 9 4 8 30 18 14 7 7 14 22 23 25 16 12 16 4 4 6 6 5 7 4 5 6 9 14
19 24 18 16 25 29 31 25 31 23 25 20 24 18 14 15 14 8 3 4 10 12 11 26 12 15 14 10 10 16 17 27 14 6 7 10 16 13 10 16 13 9 6 7 7
22 24 18 18 29 31 29 29 26 25 26 26 18 16 9 13 11 6 3 4 7 6 5 7 8 5 6 17 25 17 15 17 20 21 19 10 7 11 8 13 17 12 9 11 8
23 22 24 27 30 24 29 27 26 29 31 25 27 19 19 19 15 10 14 12 8 5 1 2 6 3 5 5 4 5 10 8 8 12 16 21 16 15 20 17 18 19 20 15 14
31 34 29 15 30 34 28 26 29 30 25 20 20 30 27 15 15 17 17 11 13 15 11 1 2 3 2 4 5 6 7 11 13 11 10 11 13 12 16 17 18 21 21 20 23
36 39 36 35 20 27 37 31 32 32 28 25 22 19 16 28 33 23 21 15 11 6 14 12 5 4 2 5 7 10 12 16 15 16 17 14 14 16 18 18 16 15 18 22 24
38 41 34 36 39 32 29 31 33 30 26 25 24 19 15 14 19 22 20 21 20 16 12 9 10 10 8 8 9 12 8 4 8 10 9 6 10 17 21 25 26 19 15 23 28

GFSSW_700_spd_060.txt.gz
Wind_Speed
20 22 23 25 27 31 34 37 38 37 36 33 32 29 31 30 26 25 22 19 25 24 22 22 21 18 19 22 20 19 15 15 15 16 11 12 10 15 12 13 16 16 15 19 21
18 17 15 16 19 20 23 26 32 39 38 36 33 29 29 30 27 24 24 21 22 25 25 23 22 20 22 22 24 21 18 15 13 17 13 11 11 12 14 14 16 18 18 17 20
23 24 22 22 24 26 26 27 29 29 37 37 34 29 28 27 26 25 23 24 23 23 25 25 23 22 24 22 24 21 23 15 11 17 13 12 11 14 13 14 14 19 18 17 19
28 27 27 28 27 28 28 28 29 29 30 37 39 39 32 26 15 14 15 19 21 24 26 26 28 26 24 24 23 23 22 17 13 16 18 13 15 18 19 18 14 15 14 16 19
24 23 23 24 26 28 28 29 27 27 29 31 34 35 34 32 25 23 11 14 14 21 24 24 27 23 22 20 20 27 19 16 16 18 19 17 18 20 20 18 18 16 13 15 16
23 23 24 26 28 29 29 29 29 27 27 23 25 28 37 39 28 27 19 17 15 18 22 24 23 20 17 20 23 14 22 20 18 20 18 21 17 22 13 19 16 12 11 14 15
26 25 26 27 28 30 30 29 30 32 29 29 29 31 32 37 32 31 30 26 23 22 24 24 23 22 17 15 22 20 16 17 20 20 18 19 22 21 14 10 7 9 10 12 14
27 27 27 28 29 30 29 29 30 31 31 32 32 29 33 25 35 34 29 29 23 27 26 25 24 23 22 18 17 18 19 23 17 18 19 21 24 12 12 11 14 10 10 10 14
26 26 27 27 28 29 28 28 30 30 28 29 27 29 29 22 23 21 37 33 24 26 34 31 28 26 22 20 17 17 22 21 17 15 14 16 13 13 11 15 12 9 9 10 11
25 26 27 28 27 29 28 27 29 29 28 25 24 22 20 14 13 21 28 34 34 23 29 32 37 31 27 26 29 22 20 20 17 11 16 16 19 13 14 11 11 10 9 10 10
25 26 26 27 26 28 28 26 27 31 24 24 24 22 20 17 15 19 33 18 30 27 28 32 28 36 33 31 25 19 17 16 15 15 17 18 19 17 12 11 10 8 7 11 12
24 25 26 25 25 28 28 28 26 28 31 18 22 24 23 23 19 22 27 28 25 20 26 23 34 28 23 24 26 26 19 18 14 12 15 20 21 19 16 14 13 11 10 9 14
25 25 25 23 23 26 25 25 26 25 30 14 7 7 15 25 25 20 26 21 19 19 24 32 18 28 23 23 25 28 26 20 18 10 12 14 22 22 19 21 18 16 12 10 10
26 26 26 22 21 22 22 21 20 20 17 10 11 8 10 3 20 25 29 22 18 15 18 22 30 24 20 29 26 27 24 22 18 15 15 9 19 21 19 21 20 18 20 12 6
26 27 25 22 19 19 18 16 14 17 6 8 8 7 10 6 2 9 28 32 31 22 16 22 19 29 26 21 24 26 15 17 17 18 17 18 14 20 17 17 16 16 19 17 14
26 26 24 20 19 17 15 10 7 3 5 2 3 6 15 14 4 8 7 28 32 28 26 23 17 16 23 23 17 9 10 9 12 15 16 19 18 12 18 14 7 7 12 15 15
26 26 24 19 17 15 13 7 2 6 4 4 5 9 14 11 5 8 9 18 21 26 27 23 24 14 15 23 20 20 16 9 10 10 11 7 15 22 12 16 14 12 13 11 10
26 26 23 17 17 15 11 5 9 3 7 9 14 12 6 6 3 5 8 14 24 20 14 25 12 21 16 19 17 24 26 12 8 10 9 12 10 11 6 7 3 5 10 14 14
26 25 20 17 18 16 13 11 6 8 9 12 10 8 2 2 1 3 4 4 12 21 18 18 25 19 21 22 23 18 31 22 13 3 5 10 9 14 10 11 10 9 12 13 16
25 27 17 19 17 13 16 15 11 12 11 9 7 6 5 7 4 2 6 7 4 21 21 11 9 16 18 20 22 14 11 14 19 13 12 11 10 11 4 11 8 7 8 11 14
24 24 17 16 16 19 25 16 16 15 12 10 10 8 9 9 7 4 4 2 6 8 28 16 12 7 15 22 24 27 19 13 14 22 11 10 9 8 6 2 1 4 10 5 9
16 20 12 13 22 25 29 16 19 15 16 17 16 13 12 11 10 5 4 6 6 6 14 24 9 14 12 9 17 21 21 27 20 13 14 14 14 11 7 9 14 10 9 5 3
21 22 17 17 22 27 20 21 20 18 15 15 17 21 15 9 7 6 4 8 10 4 8 11 13 10 17 17 9 13 12 12 22 21 19 11 6 11 14 12 10 11 9 7 5
20 17 19 25 26 20 21 23 20 19 20 18 16 20 16 17 15 11 10 9 12 9 8 3 10 18 12 10 12 13 15 8 13 15 17 22 18 16 17 17 20 18 13 13 11
27 24 18 13 31 31 22 16 22 22 21 17 18 23 19 19 15 17 17 16 13 20 11 5 2 4 3 6 6 8 9 9 11 12 11 10 13 12 13 20 19 19 22 22 20
34 34 24 21 20 16 27 35 21 21 19 17 19 14 17 22 24 16 11 10 10 8 13 12 3 1 2 3 3 5 8 10 10 12 14 15 16 13 16 18 19 18 24 25 24
37 34 22 25 26 27 25 24 23 26 24 22 19 17 19 15 17 18 22 22 20 15 12 13 13 8 10 6 6 10 16 11 10 6 7 10 8 7 9 9 14 25 26 23 24

GFSSW_700_spd_063.txt.gz
Wind_Speed
15 17 17 16 15 14 14 16 20 23 25 26 29 33 32 32 29 26 26 27 23 23 26 25 26 24 22 21 21 17 23 26 21 17 16 13 12 10 12 14 15 13 11 17 21
24 22 21 23 22 21 24 25 27 27 28 28 28 30 33 33 30 26 31 26 26 23 25 27 24 24 24 22 22 23 23 24 16 16 17 15 11 12 13 13 15 17 17 18 16
27 27 27 29 28 28 28 26 25 25 27 27 27 26 29 33 31 20 27 27 27 25 23 25 23 22 23 22 25 23 30 21 16 16 16 17 15 12 13 14 10 12 14 16 17
25 25 26 26 26 26 25 25 25 25 26 27 26 26 23 28 18 20 24 24 25 25 27 26 25 26 26 28 23 28 25 24 22 17 17 19 15 17 16 17 17 17 15 16 15
23 23 24 25 25 25 25 26 26 25 27 27 26 26 24 25 32 30 27 17 15 23 26 27 25 26 29 24 25 25 26 23 21 21 20 19 20 19 19 17 16 18 15 16 14
24 25 25 25 25 26 25 24 26 27 26 27 30 30 32 31 22 24 33 29 22 17 17 17 21 21 22 26 24 25 24 27 24 21 21 22 22 21 20 13 14 19 15 14 14
25 26 26 26 24 25 24 24 25 26 25 27 29 32 34 24 20 22 26 30 29 23 21 15 19 17 22 23 22 23 27 22 24 25 23 21 25 25 20 17 16 15 14 15 13
26 27 26 25 25 24 23 23 26 24 23 26 28 31 34 24 22 22 25 27 36 36 25 23 18 21 22 16 19 19 23 26 21 21 21 20 27 16 15 17 13 13 14 14 15
26 25 25 24 24 24 23 23 26 24 22 24 26 25 27 14 17 17 23 28 32 42 30 25 20 20 19 20 20 22 24 25 21 19 20 22 19 12 13 14 14 14 14 14 14
24 25 24 23 24 24 22 24 25 25 21 22 19 15 10 9 11 14 14 23 33 44 25 25 25 23 24 23 28 22 23 24 21 17 19 22 22 17 14 15 15 14 15 15 14
25 25 24 22 23 24 24 22 26 27 23 21 18 25 21 20 16 8 14 19 26 31 30 19 26 33 29 25 24 25 21 20 16 17 18 19 22 20 17 18 14 15 15 14 14
25 25 24 22 22 23 24 22 22 23 24 21 13 17 18 23 24 15 15 17 20 28 27 21 34 29 26 26 27 28 28 22 17 12 12 19 23 21 20 21 18 16 16 15 14
27 26 24 21 21 23 22 20 21 22 28 5 5 7 10 12 23 22 14 15 18 17 27 28 19 25 24 25 27 30 30 25 21 13 13 17 24 23 24 22 21 18 17 16 15
27 27 25 22 21 20 22 18 15 17 11 2 4 5 9 9 6 17 17 15 16 15 21 24 27 14 21 28 23 30 24 24 22 21 22 14 20 19 20 21 22 19 19 19 18
26 26 24 22 21 19 17 12 8 13 6 1 4 3 8 9 9 5 22 22 19 15 10 18 17 28 29 22 25 31 19 19 21 25 23 23 16 20 16 19 20 20 21 22 20
27 26 23 21 19 17 13 6 4 3 6 1 1 4 9 14 8 7 5 25 20 20 20 21 17 17 23 26 22 16 23 19 18 21 21 23 21 19 16 15 12 10 15 18 20
27 25 23 21 18 13 9 3 5 9 2 2 2 5 10 9 8 10 9 17 20 15 25 24 24 20 16 18 23 23 17 12 14 16 15 20 19 25 12 7 10 12 10 14 17
27 26 23 20 18 13 8 3 12 4 7 5 7 11 9 8 3 7 8 12 22 22 14 23 20 22 21 21 21 24 26 17 12 10 14 21 10 12 11 10 7 6 11 13 14
27 25 25 20 17 14 11 16 9 10 9 7 11 11 7 5 5 5 9 6 11 22 21 12 25 14 21 20 20 23 34 31 24 12 9 10 16 17 11 8 6 8 9 12 17
25 26 25 21 16 14 18 20 15 13 9 6 7 6 6 5 5 5 11 1 3 8 22 19 23 17 23 19 27 26 16 26 27 11 11 11 15 6 7 7 4 4 4 7 13
22 22 16 16 15 21 28 21 14 14 10 7 9 12 10 9 5 6 3 4 2 4 13 18 13 12 15 26 24 27 29 20 24 25 9 13 14 13 9 4 5 2 4 5 4
18 19 16 12 24 25 28 21 20 13 15 16 12 13 14 12 13 9 7 7 12 4 6 22 13 21 21 23 22 25 28 24 18 6 25 16 8 8 9 10 1 3 5 5 4
20 20 17 18 24 25 19 21 23 17 17 13 18 16 16 15 11 10 10 6 11 7 3 8 17 16 19 10 13 22 26 25 25 21 16 9 12 15 4 6 4 4 4 4 5
21 16 20 26 27 21 21 21 20 17 20 17 16 16 18 20 19 15 12 7 8 13 9 4 15 19 17 19 16 17 17 16 15 17 23 22 16 14 13 11 11 13 9 11 8
30 27 12 15 26 25 20 12 22 21 17 19 21 21 19 20 22 23 22 22 16 14 11 5 7 11 14 11 12 13 22 21 19 20 16 16 16 17 14 11 18 18 26 17 13
34 27 22 21 15 20 27 26 20 18 21 19 21 19 20 24 23 21 14 19 17 12 8 9 7 7 9 7 5 9 13 15 16 17 18 18 16 13 10 6 6 9 17 20 22
34 30 23 16 20 19 20 23 22 20 18 23 16 18 21 18 19 18 21 21 16 11 10 11 14 8 4 4 4 8 17 16 15 16 16 18 13 6 4 5 6 8 16 24 28

GFSSW_700_spd_066.txt.gz
Wind_Speed
19 20 21 22 21 20 20 18 22 24 24 23 23 23 23 24 22 25 30 29 29 24 27 22 23 24 25 24 24 22 28 32 26 22 20 17 15 11 13 15 14 13 14 19 22
24 23 23 24 25 27 25 23 24 25 23 23 23 22 24 25 23 23 26 30 30 28 26 25 23 23 26 26 25 29 33 31 23 23 18 12 10 9 12 14 13 15 14 21 21
26 26 24 23 23 24 24 23 22 23 23 24 24 22 23 23 24 21 19 27 29 30 26 25 22 20 24 24 25 29 39 27 23 20 15 17 17 14 15 16 14 10 15 10 19
24 23 22 21 21 21 22 23 25 24 24 24 25 23 23 22 8 20 22 24 24 26 25 26 25 24 26 26 26 30 32 31 28 26 18 17 18 19 18 16 15 17 21 20 23
24 23 24 23 21 22 23 24 24 25 25 23 24 24 23 23 23 15 25 28 20 19 21 24 26 23 30 26 25 32 30 30 30 25 25 20 21 21 22 20 16 17 24 17 20
26 24 22 23 23 22 23 23 25 23 22 22 23 24 25 23 16 16 19 28 28 16 12 18 19 20 25 27 30 27 28 31 28 29 23 23 24 21 24 20 18 17 22 20 19
26 27 25 23 22 24 23 23 22 20 20 20 22 26 26 15 19 19 23 19 23 27 23 15 13 19 19 27 25 27 34 28 32 29 30 23 26 28 23 21 20 20 20 17 16
24 25 25 26 23 23 23 23 20 18 17 19 21 24 29 20 17 15 16 20 22 25 23 22 24 24 23 21 23 29 25 33 30 27 25 24 34 24 21 22 19 20 17 15 18
25 24 25 25 23 23 22 22 22 20 18 17 20 20 19 8 10 14 14 17 20 22 28 25 28 23 17 17 20 22 29 28 28 24 25 25 29 22 17 11 18 15 16 17 19
26 26 25 24 24 22 21 21 21 21 15 15 13 14 15 7 13 15 12 12 15 23 20 26 25 26 21 21 27 22 24 26 26 25 24 26 26 21 16 16 18 18 16 19 19
27 25 25 24 24 23 22 18 19 23 17 17 17 24 18 21 22 17 9 10 9 14 24 22 27 29 26 23 25 23 27 28 30 21 21 24 22 22 22 19 21 15 15 17 18
27 26 24 23 23 22 21 20 21 20 19 20 15 16 12 14 19 18 9 9 9 15 12 23 30 26 22 21 24 25 27 28 25 18 11 14 19 20 21 21 20 20 15 16 18
28 26 24 23 22 21 19 15 16 18 23 9 6 6 8 13 15 10 18 11 13 13 17 21 20 16 22 27 28 29 29 27 27 20 17 15 22 24 24 23 22 22 18 15 18
28 26 23 22 23 18 17 15 13 13 13 5 5 6 7 10 10 6 22 12 12 14 15 21 27 26 24 24 26 32 26 27 27 26 23 20 18 19 22 23 24 24 23 20 18
28 26 22 21 20 16 13 11 6 9 6 7 6 7 5 6 10 6 7 16 15 17 14 10 13 29 18 19 24 25 19 22 24 26 26 27 21 19 14 17 24 22 23 22 22
28 27 22 22 17 16 13 4 3 3 8 6 5 1 5 9 8 11 6 17 13 13 16 18 13 16 17 19 21 14 23 24 24 24 20 28 26 22 22 16 17 15 15 16 24
29 27 22 23 15 17 8 8 3 9 2 8 4 5 5 7 8 12 8 16 15 10 15 15 26 22 18 18 22 23 17 12 10 16 11 23 22 24 18 8 4 9 9 11 16
29 28 24 22 18 15 12 10 12 7 13 3 4 9 12 8 6 9 10 11 17 16 8 3 7 25 15 20 19 24 29 14 6 4 15 28 13 28 20 16 8 9 8 11 15
30 29 27 23 19 16 15 18 10 15 12 8 9 12 10 8 7 8 12 12 12 17 18 5 7 13 18 19 22 24 36 34 27 20 11 14 27 14 8 8 7 7 8 8 11
30 29 31 21 19 19 22 27 19 11 11 5 9 6 6 3 6 7 6 2 4 4 15 13 17 14 18 15 21 23 21 20 16 4 6 5 14 7 14 13 10 7 6 5 10
25 26 20 13 15 22 34 29 18 15 9 9 9 12 10 9 8 9 5 5 2 3 10 14 18 12 10 24 22 21 28 21 16 21 4 1 6 11 7 11 11 11 3 1 1
18 23 12 14 22 29 37 26 19 15 13 18 13 12 11 11 11 12 13 5 7 12 5 8 10 18 18 12 20 23 27 26 13 17 27 21 2 3 9 12 13 6 9 9 8
22 25 20 18 28 29 22 22 25 23 19 15 16 13 13 13 12 11 15 7 5 10 5 4 8 17 10 17 20 21 25 31 24 10 10 7 9 7 7 10 10 6 7 8 6
21 19 20 26 29 22 23 24 22 21 25 19 19 15 17 16 16 13 11 7 4 12 21 8 11 12 14 10 11 15 22 25 28 17 13 14 8 9 16 4 10 9 7 5 10
26 29 20 20 28 28 23 14 21 20 21 15 20 20 18 17 18 19 19 21 20 17 15 13 8 13 18 17 17 23 18 20 20 17 8 10 19 12 12 8 9 14 17 18 6
35 28 26 25 13 23 25 26 21 14 20 19 20 18 19 21 18 18 17 16 15 11 4 6 9 13 15 13 13 16 15 21 20 20 16 12 16 10 8 6 8 3 15 16 20
32 34 23 23 21 21 15 22 23 20 19 17 19 18 18 18 24 17 16 16 16 14 9 4 5 7 6 9 8 15 16 18 17 18 14 15 16 14 9 8 2 6 9 12 15

GFSSW_700_spd_069.txt.gz
Wind_Speed
20 21 19 20 20 20 20 20 18 18 18 18 18 19 19 17 16 19 18 16 18 25 24 23 25 18 24 27 25 22 27 35 29 26 25 18 23 15 10 11 16 17 21 19 18
23 23 23 22 23 21 22 21 19 18 16 16 18 19 21 19 19 17 16 11 13 20 25 23 22 21 26 27 28 29 34 39 29 24 26 24 22 17 12 11 13 14 20 21 18
24 24 24 22 23 21 20 19 19 19 18 17 19 20 22 21 19 16 11 15 14 17 23 25 22 24 27 27 29 31 40 34 33 26 30 33 23 12 15 15 16 17 15 15 19
25 23 23 22 22 21 21 20 18 19 20 19 20 19 20 20 14 14 18 18 14 19 21 24 22 28 30 27 27 29 32 30 29 29 29 26 24 26 15 11 14 16 21 22 23
24 25 23 24 23 21 22 21 21 20 20 19 20 20 19 22 12 19 23 21 14 16 20 19 21 25 32 28 23 28 28 26 29 28 29 27 27 26 23 19 16 16 20 25 24
23 23 24 23 22 23 22 21 21 22 21 19 20 21 20 18 19 16 23 20 13 14 20 11 13 20 24 24 29 27 27 30 30 31 33 33 33 25 29 25 25 21 26 28 26
23 23 23 23 22 22 22 21 21 20 21 22 20 22 20 12 18 20 22 16 14 15 21 18 17 21 23 25 27 29 34 33 36 34 33 32 36 34 27 26 23 23 26 27 27
23 23 24 23 22 21 22 22 20 20 20 23 21 24 18 18 15 13 15 12 13 16 18 22 22 27 25 25 26 25 30 33 33 32 30 26 38 38 28 26 27 23 26 29 26
24 23 23 23 23 23 22 22 21 20 20 20 22 23 18 9 11 15 12 11 14 15 19 22 26 29 24 21 24 25 24 26 26 24 28 27 36 31 27 27 26 27 27 26 25
25 24 23 23 23 23 23 23 20 22 21 20 22 19 14 11 12 16 12 15 11 11 15 21 26 23 25 18 15 18 20 22 26 20 22 32 37 35 25 21 16 17 30 25 26
27 25 24 24 23 24 23 24 19 20 21 19 22 21 21 18 19 18 17 10 8 10 16 21 21 23 20 29 21 18 22 24 27 29 28 29 33 31 32 22 20 25 25 21 22
26 26 24 24 23 22 23 21 25 23 24 18 21 24 12 14 12 8 13 15 8 9 10 12 20 23 30 23 22 28 27 29 34 35 20 21 31 35 25 23 25 30 28 20 23
27 25 24 24 23 21 21 17 20 21 27 19 16 15 12 10 7 7 15 15 12 10 12 19 20 17 28 34 23 23 27 27 26 28 16 24 28 21 23 26 29 22 23 26 23
28 25 23 24 22 18 17 17 21 15 17 15 14 9 6 3 5 6 10 15 10 14 21 18 19 16 18 20 22 21 19 25 24 23 25 25 16 21 19 21 22 29 22 23 23
28 25 22 23 22 18 19 16 14 8 6 4 7 6 6 3 3 5 3 16 15 17 13 14 17 15 34 32 18 20 13 16 16 17 24 31 19 25 23 25 19 27 33 30 27
29 25 21 25 19 20 18 13 8 1 8 13 10 7 8 3 3 5 7 6 12 13 19 18 20 14 22 32 23 15 13 16 18 16 8 25 19 18 24 24 17 17 31 33 33
31 27 22 24 16 20 11 10 3 7 3 12 11 9 6 7 11 14 9 7 11 13 14 13 18 21 10 12 21 15 4 3 2 5 3 16 22 29 24 22 19 8 20 26 17
30 29 24 23 18 17 13 12 11 8 16 7 11 7 10 9 8 19 10 9 9 13 10 7 6 11 18 18 11 19 21 6 6 3 2 18 11 21 18 16 13 13 9 11 12
29 28 27 21 19 16 19 18 11 17 8 10 5 10 10 8 11 10 14 12 7 10 12 5 7 7 13 11 15 17 18 28 11 10 2 8 14 27 14 20 17 13 12 12 13
22 25 26 18 20 18 22 32 28 20 12 6 5 5 8 3 10 5 7 7 7 14 12 10 17 10 9 10 13 18 18 10 12 3 4 7 17 7 4 15 8 9 11 11 8
18 22 12 14 13 19 33 37 33 26 8 7 9 12 12 9 4 6 1 6 12 14 12 10 15 12 4 13 19 17 19 11 8 13 2 2 5 13 17 20 24 18 17 13 10
16 19 0 12 21 29 34 36 36 24 13 12 14 13 11 11 8 5 6 3 4 6 4 9 8 16 24 16 13 18 17 20 7 2 13 10 9 7 7 16 17 17 18 17 13
19 21 9 14 31 31 31 31 28 26 21 12 11 8 13 10 8 6 8 8 1 4 4 6 5 6 6 10 12 14 25 18 23 17 13 2 5 6 15 8 16 14 10 13 11
19 17 13 20 29 32 25 25 24 15 24 19 21 17 14 13 13 10 8 0 4 8 16 16 13 13 9 15 8 13 17 22 24 9 12 19 10 13 4 11 4 4 3 8 10
23 23 22 15 17 28 30 24 15 21 21 16 20 23 15 17 15 17 15 15 12 15 14 10 12 11 18 14 18 16 13 15 24 28 11 16 20 12 19 13 2 5 12 13 12
27 27 28 26 23 21 19 30 30 20 15 17 23 14 14 19 17 18 17 9 10 8 6 4 6 12 14 15 15 17 20 18 19 25 16 15 10 18 3 16 9 9 11 12 12
27 29 26 33 16 19 17 19 32 20 17 15 13 19 18 13 18 20 18 15 16 14 11 5 4 9 6 10 15 15 20 14 18 21 12 11 10 10 14 8 8 8 8 6 4

GFSSW_700_spd_072.txt.gz
Wind_Speed
21 22 20 19 21 21 20 21 22 21 20 21 21 19 18 18 15 17 15 15 15 17 23 24 21 19 24 24 28 28 35 41 37 33 32 16 12 3 15 20 19 21 21 17 18
22 20 20 21 21 20 21 19 20 20 19 18 20 20 19 18 16 16 15 13 14 16 18 22 20 22 27 23 30 34 44 45 37 33 31 23 20 14 18 21 21 22 17 16 18
23 21 21 20 19 19 20 20 20 20 21 20 19 19 21 17 15 18 13 14 14 14 13 13 18 24 30 28 32 38 48 40 37 33 30 29 24 17 21 24 28 22 20 18 16
22 22 22 21 20 20 19 20 21 22 21 21 20 20 19 16 12 9 16 18 20 16 12 14 16 24 31 34 30 39 41 38 36 34 31 30 25 26 22 22 18 22 22 20 18
23 22 22 21 22 20 20 21 21 21 22 22 22 19 18 17 13 21 20 19 19 18 14 17 19 19 28 31 29 37 36 36 35 32 27 24 27 26 25 17 23 16 20 19 17
22 22 22 22 22 22 22 21 21 22 23 22 22 20 19 17 15 22 22 20 16 19 17 18 17 18 24 26 32 33 29 29 29 29 27 30 30 32 27 23 25 26 22 21 21
23 21 21 22 22 23 22 21 21 22 22 23 22 20 19 17 18 21 24 22 17 19 13 15 18 20 21 25 28 30 31 31 32 31 32 31 41 38 28 25 26 27 26 27 23
23 22 21 21 21 23 23 22 22 23 22 22 23 22 19 20 20 18 20 20 18 16 14 15 22 26 28 25 26 23 28 33 35 32 34 27 41 34 28 27 31 27 24 25 30
23 22 21 21 22 22 23 21 21 23 24 24 25 22 20 21 17 18 20 15 18 18 15 15 28 28 29 24 23 27 29 30 31 29 26 23 33 31 27 27 30 34 30 31 31
24 22 21 21 23 23 23 22 22 24 24 24 27 24 17 18 20 21 17 15 15 12 14 13 23 30 28 27 21 24 18 23 24 26 24 30 33 33 32 31 34 30 27 32 34
24 23 22 22 22 23 23 22 20 24 25 25 25 24 24 24 21 17 15 19 17 13 15 14 19 29 28 27 24 22 22 21 23 21 20 29 31 32 28 30 33 30 26 22 24
24 23 22 22 22 22 24 25 23 24 28 22 26 29 23 24 26 18 19 23 17 13 12 13 21 18 20 25 22 26 27 26 26 26 17 26 31 26 25 29 30 30 29 26 24
25 23 22 21 21 22 24 24 24 24 31 23 22 24 23 25 17 12 18 19 16 12 11 16 13 9 14 21 26 23 32 32 27 27 27 27 34 28 18 15 26 27 31 25 32
25 23 23 21 19 21 23 21 21 19 20 24 22 13 17 17 9 6 6 15 18 17 15 15 19 22 20 21 22 32 28 19 23 23 17 8 9 29 18 15 20 26 31 31 26
26 23 22 22 18 20 21 20 17 12 5 5 7 7 11 10 7 3 4 18 20 18 15 10 12 12 18 25 17 27 29 21 19 16 15 21 10 31 19 23 20 28 21 34 29
26 23 21 24 18 21 19 16 13 5 8 7 7 8 10 10 7 5 3 13 15 18 17 18 18 18 16 12 23 17 13 21 17 17 8 22 9 24 25 23 23 26 21 22 36
24 23 22 20 16 21 16 15 7 8 4 3 9 15 8 11 14 14 11 10 13 13 17 10 14 12 13 13 19 23 8 4 7 6 6 14 14 30 19 21 25 22 18 22 32
22 21 20 16 17 19 16 13 10 8 16 16 4 17 14 12 12 19 22 15 12 14 7 4 5 5 5 16 14 20 18 3 4 3 1 14 7 20 19 31 29 19 16 16 24
22 21 16 14 15 16 17 18 13 16 8 14 8 4 13 13 20 17 27 19 8 8 9 4 6 6 10 6 11 10 15 23 3 3 2 9 11 23 25 22 23 14 15 10 22
21 19 13 13 14 16 20 28 26 22 12 10 7 5 10 10 1 17 18 11 15 13 12 4 6 3 4 12 10 13 14 5 11 2 4 6 5 5 13 21 24 23 20 21 22
21 16 10 7 13 19 27 32 31 28 25 18 11 17 15 12 10 5 10 11 13 9 12 9 11 5 3 10 12 14 12 11 8 9 1 2 4 10 11 7 19 23 22 22 21
21 14 10 8 16 18 26 26 26 30 18 20 23 13 9 12 9 4 3 2 6 10 9 6 5 10 15 13 16 17 16 14 7 7 15 3 5 15 17 17 20 18 23 23 21
20 17 13 15 15 26 24 27 26 28 21 23 15 13 8 7 7 5 3 4 1 4 4 3 2 5 3 3 15 12 18 15 20 16 9 3 5 2 12 11 14 16 13 13 14
17 11 11 18 20 20 19 25 23 24 24 17 23 18 14 11 8 7 5 2 3 5 10 12 3 5 7 6 7 11 12 18 26 8 13 20 8 10 9 3 13 6 9 12 12
18 19 16 10 7 9 17 23 28 30 16 19 18 18 16 15 11 11 9 12 10 16 12 8 11 11 10 15 21 16 19 21 24 30 15 14 15 21 23 12 11 8 8 9 9
22 23 22 21 20 18 18 23 23 18 24 20 19 18 17 16 15 18 13 13 7 6 4 5 6 10 13 11 13 23 24 22 25 25 29 27 23 18 20 14 15 10 4 9 14
24 26 22 24 22 19 18 13 15 13 15 18 11 14 20 15 15 17 12 13 14 13 12 10 8 10 7 10 18 15 18 21 29 20 28 21 17 19 10 15 15 20 14 3 6

GFSSW_700_spd_075.txt.gz
Wind_Speed
26 25 24 24 24 24 24 24 25 25 25 23 24 25 26 22 19 20 18 20 19 20 19 22 23 25 26 27 29 30 37 46 44 39 34 26 24 14 10 9 13 19 24 21 15
26 25 26 24 23 23 24 23 24 25 25 23 22 23 24 20 20 21 21 20 20 22 22 21 22 28 30 29 31 34 44 49 45 36 31 31 29 20 19 12 13 17 21 23 19
24 23 23 23 22 22 23 23 22 23 24 23 24 23 23 20 22 24 19 20 22 18 17 19 23 28 32 31 34 39 50 44 42 33 33 32 32 25 26 19 7 9 16 30 24
24 23 22 21 22 22 22 22 22 23 24 25 25 24 22 20 14 11 11 14 17 18 16 19 23 27 32 33 33 42 44 42 40 35 35 32 31 33 27 20 11 10 18 22 25
25 24 22 21 21 22 22 23 23 24 24 25 24 24 24 21 19 20 21 22 23 19 20 21 22 24 27 29 31 40 43 40 37 35 36 33 35 31 32 25 19 16 18 16 19
21 21 21 21 21 22 22 22 23 24 25 25 25 25 24 21 19 19 19 21 23 19 19 20 20 22 26 25 28 34 31 41 37 36 36 33 33 29 33 27 25 20 18 23 23
19 19 20 21 23 22 23 22 22 25 24 24 25 26 25 19 19 21 20 20 22 19 19 20 21 23 23 26 24 28 36 38 33 32 33 27 35 37 30 30 26 23 19 23 26
21 22 22 23 25 24 24 23 23 27 24 24 25 26 25 23 20 23 22 23 21 20 20 19 21 26 27 27 24 20 26 34 34 31 31 24 45 36 30 29 27 23 22 24 26
23 22 23 25 26 26 25 23 25 27 26 25 26 25 25 26 23 25 24 19 17 18 18 18 22 28 29 29 28 27 33 29 29 30 27 22 36 34 27 28 29 26 24 25 29
27 26 23 24 27 29 28 23 24 28 27 26 28 26 21 24 21 16 19 17 17 17 17 20 23 30 33 32 26 17 26 21 25 22 19 25 33 33 30 30 32 32 29 28 28
26 24 22 23 26 28 29 23 23 29 29 26 27 24 17 20 18 19 23 20 22 20 18 20 24 31 29 33 28 23 27 29 30 23 22 27 34 39 39 36 33 35 29 27 27
24 24 21 22 25 26 28 25 23 27 35 26 29 35 24 27 33 26 24 24 23 21 14 19 24 15 18 22 26 25 24 32 32 24 24 22 30 33 39 35 32 32 30 25 28
23 23 22 22 22 25 25 23 21 25 36 35 26 27 26 31 30 23 27 28 24 23 19 21 11 7 11 15 24 28 26 25 29 29 31 29 39 39 36 31 25 27 27 26 26
22 22 21 19 21 22 22 20 19 21 26 27 17 12 17 22 21 19 28 22 22 22 16 14 17 17 16 22 20 27 25 28 24 22 22 17 11 29 27 30 27 17 24 28 27
21 22 20 19 19 22 20 17 15 14 6 10 4 7 6 6 8 15 12 16 17 19 20 11 9 8 13 20 15 26 20 20 21 18 18 21 19 32 27 30 26 17 22 19 19
21 20 19 19 19 22 18 15 12 5 8 7 7 9 9 10 9 10 8 13 15 19 21 22 21 19 15 13 14 14 16 17 23 19 10 21 18 15 26 30 24 22 18 17 20
21 19 17 18 20 20 16 14 6 8 3 4 7 6 15 14 13 11 10 12 15 14 21 21 22 19 16 14 16 12 12 3 5 7 6 3 16 25 13 19 18 21 25 28 24
22 17 14 18 19 18 15 13 10 5 9 19 20 15 19 15 14 15 18 18 20 16 9 6 4 8 2 9 10 15 21 6 4 3 3 20 8 13 8 16 24 23 28 27 25
20 15 12 17 15 16 16 15 9 9 15 18 16 5 3 5 9 13 23 26 23 20 11 7 5 5 7 10 8 9 17 20 5 5 1 5 8 25 21 21 27 31 25 25 20
20 14 15 14 11 14 18 24 16 15 18 16 13 5 11 13 11 8 19 10 24 16 18 6 5 4 6 7 8 6 10 6 7 3 2 5 11 4 3 7 25 29 26 21 12
20 14 16 12 12 15 17 20 22 22 20 20 12 16 17 18 14 9 5 10 13 16 17 15 8 2 4 7 12 9 9 9 5 5 2 3 0 1 7 2 10 15 24 20 20
21 11 14 13 13 12 17 18 15 17 16 20 19 18 18 11 9 5 6 6 10 11 10 12 5 9 16 13 10 13 14 14 5 3 8 2 4 8 12 9 9 6 14 21 17
18 9 13 13 10 15 16 20 21 21 19 13 13 10 10 18 10 5 1 6 6 6 3 2 2 5 0 2 10 12 15 13 16 16 9 3 3 9 15 13 12 11 11 17 26
13 5 11 16 20 19 20 20 17 17 21 15 18 14 18 24 11 9 6 6 3 4 3 5 1 3 5 9 12 10 10 12 17 7 7 15 10 14 11 5 8 13 10 10 19
12 11 12 7 10 9 7 10 15 19 17 16 16 16 13 20 11 9 6 2 4 5 6 4 5 8 12 12 15 19 23 20 19 19 15 20 12 19 24 22 2 6 9 7 9
17 17 15 14 15 16 16 14 13 7 16 13 17 17 16 15 15 16 11 10 4 2 2 2 3 7 13 14 13 21 22 25 28 24 26 21 33 19 19 19 17 5 14 16 12
19 20 19 18 18 18 16 15 12 15 7 14 14 17 19 21 17 11 13 9 4 4 6 6 6 9 7 10 22 18 7 13 16 26 24 30 22 18 19 17 22 21 9 9 12

GFSSW_700_spd_078.txt.gz
Wind_Speed
28 29 29 29 30 29 28 28 29 28 28 28 29 28 27 28 26 28 25 26 25 23 22 20 24 29 29 28 29 31 37 44 41 37 38 27 28 26 24 18 7 10 19 19 22
28 28 29 29 28 28 28 28 28 28 28 27 28 27 26 25 26 27 24 26 25 22 25 24 24 27 29 29 31 32 42 45 42 38 37 31 30 26 29 24 14 15 13 24 17
29 28 28 27 27 27 28 27 27 27 27 27 27 26 24 24 24 29 25 22 22 23 21 21 24 27 29 30 33 37 44 41 40 37 34 33 32 29 33 33 18 12 18 19 21
27 27 27 27 26 26 26 26 26 26 26 26 26 25 25 22 16 15 10 15 17 15 16 16 20 24 28 31 31 38 40 40 40 36 37 37 36 36 35 32 22 17 16 14 17
24 23 25 26 26 26 25 25 25 26 27 25 25 26 25 25 22 27 23 25 23 20 18 21 23 26 29 30 32 38 38 38 37 37 38 35 39 38 40 31 27 27 22 15 13
21 21 21 22 23 23 23 24 24 26 26 26 26 26 26 24 23 23 19 26 26 24 20 23 21 24 28 28 30 32 31 33 34 34 36 38 41 39 38 28 31 31 25 17 17
20 20 21 20 22 21 22 23 25 25 25 27 28 28 28 20 25 23 23 24 25 22 20 20 19 22 22 23 21 25 31 31 31 32 30 31 49 45 35 30 32 31 28 22 17
24 25 24 27 29 25 23 25 28 26 27 27 28 29 28 23 26 21 24 22 26 24 19 19 20 22 25 24 25 26 28 29 21 18 22 29 58 35 30 29 30 32 31 25 20
25 23 23 25 27 24 25 28 32 29 29 28 29 30 28 24 25 25 25 25 21 21 21 21 23 23 24 25 27 22 24 30 32 24 21 25 45 32 30 26 30 33 30 25 22
26 26 26 28 29 30 28 29 32 32 31 31 30 28 21 22 22 20 17 18 15 16 19 21 25 27 26 28 18 18 19 22 23 14 13 23 38 31 28 23 27 30 31 29 26
25 24 25 26 28 29 28 25 26 32 32 29 27 30 21 17 18 15 16 16 17 19 19 19 24 30 27 25 25 28 30 35 32 29 30 29 35 31 29 32 35 35 33 32 33
23 22 22 24 27 28 28 25 26 30 41 29 28 34 31 29 34 31 23 22 22 24 20 21 27 24 22 20 21 21 26 32 31 26 27 31 43 37 30 33 35 38 36 32 33
19 19 18 20 23 24 24 23 23 26 37 36 27 25 24 27 32 26 33 31 26 24 23 24 13 8 16 13 17 20 25 30 31 29 29 33 48 40 35 36 35 29 32 30 32
18 19 19 19 20 22 20 19 20 22 24 20 15 10 13 12 17 19 28 32 31 27 21 18 20 23 20 17 14 18 18 23 23 22 18 15 14 29 30 31 30 28 25 21 28
18 19 20 19 21 20 19 18 15 15 6 9 11 11 13 6 6 7 12 22 30 27 20 12 7 8 14 9 9 17 17 21 19 23 25 20 15 6 13 22 25 21 21 18 19
18 20 20 22 23 21 17 16 13 4 6 4 2 8 13 9 5 3 7 13 15 16 18 20 18 15 13 11 11 13 16 16 16 20 9 23 19 7 13 19 20 17 17 12 10
19 20 21 21 22 19 16 14 6 6 4 8 7 17 17 16 11 12 11 14 13 11 18 19 21 20 20 18 15 14 11 4 2 4 5 5 13 19 16 14 10 18 19 17 15
21 21 23 23 18 14 13 12 8 4 8 17 22 22 10 6 10 16 17 15 17 13 5 4 3 7 5 7 8 10 17 5 3 2 4 11 6 3 7 12 16 19 21 21 19
21 22 21 20 16 14 11 10 4 4 11 16 26 17 9 4 7 6 14 23 21 20 10 4 3 4 4 5 6 5 15 15 7 6 3 5 10 14 17 18 16 18 20 21 23
21 20 18 16 14 13 11 12 8 10 14 14 15 9 13 15 9 10 6 5 12 23 15 7 4 2 5 8 7 10 6 3 7 3 2 6 3 6 12 9 18 22 23 25 19
21 19 17 15 14 13 11 10 11 10 12 12 15 17 19 22 19 14 6 3 8 9 21 19 8 1 4 6 6 12 6 5 5 4 1 3 0 3 7 12 10 11 15 27 22
19 14 16 12 12 10 6 5 8 7 7 13 15 13 9 15 22 17 7 3 7 9 15 21 8 7 13 12 10 11 11 10 6 3 6 2 6 6 7 14 11 7 13 16 22
16 11 15 12 8 8 8 8 10 11 10 10 11 10 7 14 12 10 13 2 1 10 15 15 7 3 3 4 6 6 10 13 14 12 10 3 3 7 2 14 11 6 8 16 20
13 5 9 10 12 14 15 15 9 6 10 9 11 14 10 12 17 17 23 5 4 1 6 3 7 3 3 3 7 13 13 11 14 6 6 16 18 20 23 25 8 7 4 5 12
12 6 7 3 5 7 9 7 8 13 8 12 8 7 11 15 13 17 23 11 2 3 4 5 3 0 2 5 10 12 15 17 20 23 18 27 22 22 22 11 13 13 4 11 6
12 9 7 10 10 11 13 13 12 9 11 10 7 12 14 17 17 15 11 13 11 5 3 1 2 1 6 8 11 18 20 22 24 23 27 31 33 20 25 25 22 12 8 11 16
10 13 12 14 13 13 12 12 14 15 14 8 18 21 15 14 19 19 16 9 8 4 3 4 2 5 3 13 21 13 6 9 13 15 21 24 21 21 13 18 18 15 16 12 18

GFSSW_700_spd_084.txt.gz
Wind_Speed
32 31 30 30 31 31 32 31 29 29 28 28 28 27 28 28 29 30 29 28 25 26 26 24 22 21 22 28 29 27 26 32 28 24 21 19 25 17 20 20 19 20 17 19 21
32 33 32 31 30 31 30 29 29 29 28 27 26 26 27 28 28 29 29 28 27 25 26 25 23 22 23 26 30 32 29 31 26 24 22 21 20 19 19 18 21 22 23 21 22
30 31 31 29 29 28 27 27 28 28 28 29 26 25 26 27 27 30 28 26 25 24 24 26 27 25 23 24 26 28 36 24 26 33 27 25 25 25 23 28 24 24 23 24 24
30 31 31 29 26 25 25 25 26 26 27 29 27 25 24 24 17 17 18 16 13 13 16 20 24 25 25 24 23 28 28 32 27 23 28 27 27 29 29 29 27 25 29 36 30
32 29 28 25 24 23 23 24 26 25 25 26 26 23 22 21 23 26 25 26 25 23 20 13 14 18 20 17 22 28 27 26 27 32 35 31 33 35 32 29 28 28 32 38 35
27 26 24 23 23 23 24 26 26 24 25 26 24 22 22 22 23 21 19 17 19 22 23 19 17 17 16 18 21 16 20 23 24 29 30 32 33 28 33 31 33 30 32 35 38
24 23 23 24 25 26 27 29 27 27 29 30 29 28 25 22 25 25 23 20 20 20 20 21 24 22 14 15 20 26 24 24 26 28 28 26 30 33 30 28 30 32 31 34 35
23 24 25 25 25 24 23 23 22 20 21 21 23 26 26 23 25 26 23 23 19 20 21 22 23 26 20 17 21 19 17 19 13 13 16 16 24 15 8 14 19 22 26 28 32
21 21 18 20 19 19 21 21 21 21 20 20 21 21 21 17 14 16 16 21 20 19 22 22 22 23 15 16 16 15 18 16 16 15 17 19 20 12 13 18 23 22 21 24 27
17 18 19 18 17 16 18 19 19 18 18 18 18 8 9 9 14 14 10 15 16 15 19 23 20 17 17 18 17 12 16 13 16 13 17 26 31 28 27 24 26 28 24 25 26
18 15 11 10 11 11 13 15 18 16 14 15 18 19 18 23 23 21 24 21 14 17 17 21 19 22 23 22 21 20 20 23 23 23 27 30 28 25 25 28 29 28 26 26 26
8 6 6 8 10 11 12 13 15 17 15 13 9 9 10 14 16 20 25 25 21 17 16 15 23 20 18 18 20 21 22 23 23 18 17 24 32 31 32 32 31 30 29 28 24
3 3 6 8 11 12 13 15 17 19 18 4 2 2 9 10 8 9 14 22 20 21 22 21 9 11 15 15 17 21 20 19 19 20 23 23 31 11 9 15 18 26 31 29 27
2 3 7 10 11 13 15 16 17 19 7 4 4 5 11 11 5 8 10 12 20 20 20 20 21 22 18 18 17 16 13 13 13 13 11 8 10 17 13 10 11 17 19 27 26
2 5 7 9 11 13 16 17 17 16 5 4 4 4 8 11 11 11 14 9 17 17 19 11 10 9 17 21 13 12 10 8 11 14 18 19 12 8 8 5 3 5 12 19 23
3 6 8 9 12 14 15 16 14 3 1 1 5 7 11 11 9 9 11 11 5 15 17 19 16 11 11 11 18 10 8 9 11 12 9 18 13 4 1 10 10 8 7 10 18
4 6 9 10 13 14 15 13 3 4 3 5 7 9 12 10 9 10 8 9 5 6 13 15 20 17 16 9 9 11 6 3 7 6 7 4 9 13 10 9 11 10 6 11 16
6 8 10 11 14 15 13 10 5 5 7 13 17 19 11 13 10 9 7 11 12 10 11 8 7 17 15 23 14 16 15 7 6 5 2 4 8 4 2 7 10 13 10 14 13
7 10 11 14 15 15 11 1 2 5 9 11 15 11 10 6 9 9 7 6 6 9 10 6 4 6 6 9 17 11 13 9 9 14 9 13 8 5 3 8 15 19 19 13 16
8 11 13 15 15 13 8 4 6 9 11 12 6 6 9 11 12 8 8 10 7 6 17 7 10 7 9 9 15 10 9 5 8 4 5 6 10 4 4 11 16 16 17 19 17
9 13 14 15 15 10 4 3 7 9 10 4 5 8 10 13 9 12 9 11 16 11 12 13 13 7 12 15 13 11 11 9 6 5 4 3 2 2 6 16 15 21 19 11 17
10 12 14 14 9 8 2 3 4 5 7 7 8 9 9 10 12 10 12 9 18 17 7 10 11 19 16 9 10 9 9 12 7 5 4 6 5 1 7 22 24 23 23 14 9
10 13 11 10 5 3 2 2 3 5 5 4 6 7 9 11 10 8 10 10 19 22 9 5 13 17 10 10 16 13 13 12 8 5 8 4 1 6 15 11 22 22 19 15 11
10 8 9 7 3 2 1 2 1 5 5 4 6 9 9 9 10 11 16 14 19 14 23 18 15 18 12 3 9 12 11 9 8 4 6 11 18 15 16 17 21 20 21 17 12
8 5 5 3 3 2 3 1 3 5 6 5 4 5 6 7 15 12 12 15 14 13 21 10 11 10 5 4 6 8 8 8 10 9 9 12 20 21 18 16 18 19 19 19 12
6 3 1 1 3 4 3 2 5 7 8 7 10 13 12 15 16 24 21 15 16 13 15 6 8 9 5 5 3 4 6 9 10 10 12 14 17 12 17 14 17 18 16 17 14
3 3 6 7 7 5 4 3 5 10 8 9 10 15 17 18 19 21 24 23 22 20 17 16 5 8 1 3 6 7 8 2 2 2 7 13 18 18 14 12 15 18 15 16 14

GFSSW_700_spd_087.txt.gz
Wind_Speed
31 31 31 31 31 31 31 29 29 29 28 25 24 25 27 28 28 28 30 27 26 23 23 22 23 20 20 22 23 18 29 38 32 27 28 21 23 20 22 23 22 21 22 20 26
32 32 31 32 32 32 32 32 31 30 28 26 24 25 25 25 27 28 29 27 25 24 23 23 22 20 21 22 25 28 29 33 27 24 21 21 21 18 20 20 21 23 24 24 28
35 33 33 33 34 34 33 32 31 29 28 25 23 24 25 24 24 29 25 22 21 21 19 21 18 18 20 20 25 28 38 27 25 22 24 21 25 24 26 30 26 24 21 21 21
35 35 35 35 34 33 33 32 31 29 27 24 23 22 23 21 11 20 17 18 15 12 13 12 19 22 23 25 24 33 31 26 27 28 26 25 24 28 28 29 25 26 26 24 27
35 34 33 33 34 33 32 31 30 28 27 24 22 21 20 20 22 25 23 24 24 22 21 18 14 18 25 22 25 31 28 30 27 26 27 27 31 33 33 29 29 29 30 30 29
34 33 31 31 32 33 32 30 30 29 28 28 27 27 24 22 21 21 21 19 17 19 18 14 13 16 18 21 26 25 20 28 25 27 28 27 29 30 31 29 30 31 32 29 30
35 32 29 30 30 29 30 28 27 26 24 22 19 20 22 21 24 22 20 19 18 18 18 15 15 17 11 17 21 23 29 28 29 28 29 25 32 32 30 29 32 32 30 30 32
33 28 26 27 27 26 23 19 18 18 18 20 20 19 19 18 18 19 20 22 21 20 20 21 17 19 20 20 21 20 24 27 22 20 19 22 32 19 18 18 21 25 27 28 29
27 25 24 22 18 18 18 18 18 18 18 17 16 15 12 11 9 11 12 13 15 19 21 23 23 21 18 20 24 22 27 25 21 18 17 19 23 16 14 16 20 19 21 23 24
25 22 19 17 15 15 14 12 10 10 11 11 12 5 8 8 11 11 16 13 9 13 18 22 16 19 20 23 25 21 25 25 23 17 17 21 27 25 24 28 31 30 27 26 25
20 17 15 11 9 9 8 9 10 11 12 8 14 16 18 24 23 22 17 16 15 12 13 13 18 23 23 23 27 26 27 25 25 23 26 28 31 29 26 27 30 31 29 29 26
14 12 9 7 5 5 7 8 9 8 11 13 10 10 9 7 7 10 12 18 15 18 13 18 22 21 21 20 24 24 28 30 28 22 23 25 29 27 29 31 32 30 28 29 27
12 11 8 6 4 6 7 9 10 10 12 9 7 4 4 5 3 4 6 8 18 18 19 24 15 10 21 21 21 24 26 27 26 23 24 28 33 27 18 17 20 23 28 28 27
12 9 5 4 3 4 7 9 10 10 2 5 4 6 4 5 1 6 5 5 10 19 19 25 22 23 17 21 20 25 21 23 21 19 19 11 18 21 17 16 12 11 14 17 23
10 6 3 3 4 5 7 10 11 9 4 5 4 7 7 3 7 9 8 8 7 12 13 19 17 18 26 27 20 23 17 15 16 19 21 23 18 22 13 8 5 3 5 6 16
9 6 3 2 3 5 8 10 10 2 2 3 3 4 5 7 6 7 7 6 7 9 16 23 20 17 16 15 18 16 14 17 18 19 18 27 22 17 10 5 3 5 6 5 5
9 6 3 1 3 6 8 8 3 7 1 3 6 5 8 10 9 9 8 13 9 9 14 17 25 28 21 17 13 17 15 9 11 8 10 7 9 18 3 2 1 4 4 6 11
8 5 2 1 4 7 7 4 7 1 3 7 11 16 14 13 7 10 13 14 15 19 22 22 18 20 23 26 18 20 20 13 9 8 10 6 9 9 6 6 2 5 8 8 10
5 3 0 3 6 7 5 6 6 4 6 8 14 12 8 7 8 11 11 13 10 6 6 10 14 5 14 19 23 24 22 22 24 28 18 15 14 9 8 2 3 9 11 14 13
4 1 2 5 7 7 2 7 5 10 11 7 7 6 8 10 13 10 8 5 8 14 12 13 21 16 13 12 19 23 15 14 15 6 10 17 22 14 10 4 8 10 15 15 13
3 3 5 6 8 4 4 6 5 8 8 4 6 9 10 11 8 10 9 7 12 13 16 15 21 18 16 16 17 21 18 12 11 15 5 6 2 6 7 6 9 14 16 16 13
2 4 7 8 4 3 3 5 9 5 5 5 6 8 10 10 12 12 11 11 11 12 15 15 11 26 26 15 17 16 19 21 15 15 12 6 3 5 6 9 12 18 16 17 14
4 7 7 7 2 3 4 3 4 3 4 4 6 7 8 10 10 6 7 8 13 13 11 17 6 12 23 16 15 21 19 16 17 8 11 6 1 3 8 11 14 23 18 17 16
3 4 8 5 4 9 5 4 3 5 5 5 7 8 8 8 9 10 12 10 13 15 21 16 17 20 22 16 13 26 22 17 15 9 8 9 14 7 15 14 12 21 18 18 15
4 3 6 2 2 4 3 4 3 3 4 6 4 6 3 7 10 13 12 16 16 17 11 12 23 26 30 13 7 12 17 16 15 12 10 12 14 17 14 15 14 20 20 17 15
3 4 4 5 5 5 2 3 3 5 6 5 8 10 12 15 16 21 19 16 14 11 15 15 21 30 23 10 6 6 7 7 8 10 13 12 11 13 12 10 15 18 19 15 14
4 5 8 7 4 3 3 3 3 6 6 6 8 12 16 16 18 20 22 24 23 23 19 15 23 25 9 5 5 6 11 6 4 2 4 6 11 17 14 12 18 17 19 21 19

GFSSW_700_spd_090.txt.gz
Wind_Speed
31 32 30 29 29 29 30 29 30 29 28 26 26 26 27 27 27 29 26 26 24 18 20 19 20 19 20 20 22 22 32 40 32 30 29 21 26 25 21 25 27 18 23 19 24
33 34 33 33 32 31 32 32 32 31 30 28 26 25 27 27 26 27 27 27 23 19 18 18 18 18 22 22 22 28 37 35 27 26 27 25 23 18 22 24 23 25 21 22 25
34 36 35 35 34 35 34 33 31 29 29 28 26 25 25 25 23 24 23 16 14 13 13 15 17 15 19 20 21 28 42 32 28 27 26 25 24 21 26 28 23 22 18 25 31
41 40 37 35 36 36 35 32 31 29 27 27 28 24 25 22 10 17 17 15 16 16 14 11 12 19 22 24 23 30 30 32 32 28 29 30 26 29 31 31 27 27 28 28 25
43 39 37 37 37 35 33 33 31 30 29 28 26 25 25 25 21 29 22 20 21 19 16 16 15 14 22 23 23 28 31 31 31 32 33 30 31 32 34 30 29 30 30 31 34
43 40 37 37 37 36 34 31 31 30 28 27 26 23 22 24 21 28 20 17 16 17 13 12 14 15 17 18 23 24 28 28 31 29 33 31 35 34 36 31 34 34 34 35 34
40 40 39 37 35 34 31 30 28 26 23 19 18 18 20 15 19 23 22 21 17 16 15 11 13 17 15 17 22 24 26 27 31 30 32 29 40 37 33 32 34 34 34 33 33
37 38 36 35 33 30 27 24 23 20 18 18 18 19 19 18 17 18 18 19 18 19 18 19 14 18 19 19 22 24 24 28 27 24 27 28 45 31 27 22 26 25 29 31 32
37 33 32 29 28 25 21 19 18 17 16 16 16 17 17 13 11 12 11 11 9 14 19 20 22 21 14 18 24 23 31 30 31 25 26 24 33 24 20 20 21 20 20 21 23
34 31 27 25 22 20 16 14 12 12 12 10 12 11 9 4 13 11 10 10 7 8 10 15 18 17 19 21 30 23 25 27 28 23 21 32 35 28 28 29 32 28 27 27 26
26 25 23 21 17 13 11 9 10 11 8 8 11 15 14 15 21 19 19 16 13 12 15 14 15 22 20 23 24 24 29 31 29 30 31 26 28 33 32 32 38 35 34 32 29
24 22 19 15 12 11 10 8 6 9 14 13 14 14 12 9 5 8 7 14 13 17 15 15 23 19 20 22 24 26 26 28 28 26 26 33 39 35 33 36 39 35 33 29 25
16 17 14 13 12 10 7 5 5 7 13 15 12 7 6 5 5 3 5 7 16 16 20 25 19 11 21 22 24 26 24 24 25 23 27 30 37 38 34 38 27 27 21 20 26
16 16 15 13 11 8 5 3 4 6 8 7 8 6 3 4 6 6 9 6 12 18 20 25 21 26 27 23 22 28 22 22 23 25 23 22 23 29 23 23 17 12 13 15 17
17 17 15 12 9 8 4 3 3 2 3 7 6 10 3 5 6 12 10 11 11 14 16 22 19 22 29 29 24 28 19 20 22 21 24 27 25 26 28 30 20 11 6 9 6
19 16 13 11 9 6 3 3 2 2 5 5 4 3 3 5 9 9 13 14 9 15 18 26 23 22 24 22 21 23 20 20 20 22 20 27 29 27 29 8 8 10 10 12 12
17 14 12 10 7 4 1 2 1 6 4 4 3 4 7 11 13 15 15 15 17 18 21 21 23 24 26 23 19 17 16 13 10 14 12 18 21 30 18 9 6 5 8 10 20
17 13 11 9 6 3 1 4 6 1 2 1 6 11 16 14 14 12 14 19 18 17 23 25 25 20 24 31 22 23 22 16 9 9 10 13 8 11 17 11 6 3 4 10 13
16 13 10 8 5 3 2 6 5 3 3 7 14 10 10 7 7 11 14 17 12 7 5 12 17 10 10 20 24 25 20 23 22 25 16 18 14 19 3 12 8 6 3 10 10
14 12 10 6 4 2 3 6 2 6 12 6 5 6 8 10 12 13 12 10 9 8 9 11 22 18 20 16 23 25 21 18 19 4 7 15 20 12 12 9 7 2 5 7 10
13 11 9 5 4 4 5 3 5 8 12 2 5 10 11 12 13 14 14 15 8 10 13 15 12 24 15 15 22 21 27 14 11 18 4 4 3 4 8 7 7 6 9 10 11
10 7 6 4 3 4 3 6 10 5 6 3 5 5 8 10 12 14 17 16 16 10 10 13 11 18 29 23 25 18 22 27 9 6 15 16 15 2 1 7 5 4 15 13 13
10 7 5 4 5 4 12 5 4 3 3 2 4 5 7 9 13 10 9 9 11 10 10 12 6 12 17 21 24 18 22 28 20 20 10 4 1 8 11 11 4 12 15 16 15
8 4 1 2 4 9 8 4 2 8 4 6 6 8 9 9 10 11 11 15 13 15 19 20 16 16 16 24 25 29 26 22 19 11 11 11 8 9 11 7 6 10 16 19 18
7 6 5 1 2 3 3 2 2 3 4 5 5 7 7 10 13 14 13 17 14 18 21 15 16 17 25 28 31 28 25 18 23 21 7 4 7 7 9 10 9 16 17 16 16
8 6 5 7 8 5 1 1 3 3 6 4 7 9 12 16 16 20 20 18 18 16 16 13 13 19 29 22 22 29 13 8 2 5 8 12 4 11 12 13 14 17 20 15 22
6 7 10 4 3 4 3 3 2 5 6 6 8 11 14 16 20 22 23 25 25 24 23 22 16 14 18 25 14 17 14 6 5 7 5 10 10 11 14 16 15 17 16 17 21

GFSSW_700_spd_093.txt.gz
Wind_Speed
34 30 30 30 29 28 27 26 25 26 26 26 25 25 26 25 24 26 23 25 23 22 22 19 16 17 21 20 22 21 29 35 33 32 33 22 22 22 26 24 29 26 22 24 25
36 35 33 31 34 31 29 28 28 27 26 26 26 25 26 26 24 23 24 23 26 22 18 19 16 18 23 20 26 31 39 42 34 30 25 23 31 29 24 20 19 26 27 22 26
38 39 36 35 37 33 31 30 29 28 28 27 26 25 27 27 24 24 20 19 17 16 14 11 15 21 20 19 27 32 43 35 33 26 27 35 33 29 22 24 20 17 15 25 28
42 41 38 41 40 37 32 33 30 27 28 29 28 27 28 26 16 13 12 13 14 14 14 12 10 18 21 23 18 26 26 25 23 23 30 37 34 35 30 26 26 29 25 24 27
42 42 42 39 39 38 34 35 31 29 29 29 29 27 27 27 19 25 22 20 21 23 19 16 17 15 20 21 23 31 30 30 33 32 33 33 39 39 41 32 31 36 34 33 32
42 41 42 40 39 36 35 34 31 29 28 27 26 26 25 22 21 18 19 18 18 17 16 15 16 10 14 16 21 24 28 30 31 32 30 29 38 37 41 38 39 40 43 44 42
42 41 40 40 39 36 34 30 29 27 24 24 23 22 23 12 18 22 17 15 18 18 18 13 6 14 19 21 20 25 31 32 31 35 33 30 40 41 41 38 38 39 32 29 40
33 39 39 38 36 35 33 29 25 22 21 21 22 23 21 18 17 16 19 18 13 16 17 16 18 21 25 24 21 20 21 27 28 27 31 27 47 33 30 24 27 25 30 32 24
39 36 32 32 39 33 28 25 23 21 19 19 19 20 18 15 14 16 11 12 12 12 13 18 20 26 21 23 26 25 33 30 30 20 23 25 39 37 25 27 28 28 27 23 28
41 35 38 36 29 22 22 23 21 17 15 15 17 15 11 7 9 13 9 9 8 7 9 12 18 21 24 23 22 17 22 25 31 23 22 26 30 29 31 30 37 35 34 29 28
35 36 36 33 19 19 17 18 15 16 16 15 13 11 13 14 16 15 16 17 18 13 14 12 16 20 19 21 21 20 24 28 28 30 31 36 35 36 30 26 28 36 35 38 38
33 35 35 23 19 17 15 16 12 14 14 14 15 16 17 13 8 7 5 9 15 13 7 15 27 20 13 15 23 29 32 33 33 29 24 31 38 35 33 37 27 34 36 34 36
33 32 24 16 17 14 14 12 10 11 15 15 15 14 9 8 6 5 7 4 9 14 14 21 22 14 21 21 22 28 29 29 30 27 30 31 40 35 33 26 32 35 34 41 42
34 21 16 17 16 16 14 10 9 8 9 8 7 7 9 3 5 8 6 6 6 12 12 18 21 22 22 26 21 30 22 26 27 24 24 21 23 32 31 34 25 21 23 25 35
24 17 18 18 17 16 11 9 8 5 2 7 7 4 9 8 2 9 8 12 11 11 15 23 18 17 26 29 29 34 21 24 29 25 28 29 25 36 27 29 28 21 20 20 23
20 20 20 19 16 12 11 7 5 3 4 9 5 4 5 1 5 7 9 15 16 14 15 21 17 24 27 25 24 26 28 26 24 24 19 33 26 38 31 29 23 17 19 23 19
23 21 20 17 13 11 10 7 5 4 7 6 6 3 5 6 10 7 17 14 18 20 24 26 28 25 24 31 24 21 14 5 6 8 13 24 17 33 24 23 22 21 22 19 19
25 23 19 15 15 12 10 8 4 3 8 8 9 7 12 10 7 10 9 12 8 22 21 20 22 17 5 26 29 26 23 13 7 6 9 14 9 8 12 12 4 17 24 28 19
23 21 19 16 14 12 10 7 1 1 4 7 9 6 7 3 3 6 6 10 7 11 8 11 17 22 12 9 22 28 31 28 25 27 13 19 25 20 25 18 12 14 6 6 9
21 19 18 16 14 11 10 10 4 10 11 11 5 2 6 8 6 5 4 8 5 5 6 7 20 22 24 20 20 23 25 16 12 4 5 8 18 4 8 7 4 6 7 4 4
21 18 18 15 12 10 8 5 3 14 11 6 6 6 6 8 9 9 7 14 14 15 16 16 10 26 29 22 19 18 20 24 19 18 3 3 1 12 17 6 9 7 11 12 9
21 16 15 12 11 9 12 11 9 4 10 1 1 3 2 5 7 7 9 13 14 14 11 13 10 17 30 39 27 20 26 23 9 8 9 14 12 8 2 16 12 7 7 13 15
19 14 13 11 9 8 6 9 8 3 1 3 5 2 4 4 6 4 8 11 15 14 9 13 6 13 25 17 13 13 13 19 21 24 19 9 2 2 3 12 11 1 9 15 15
16 10 12 11 12 13 10 9 2 3 1 3 2 3 4 7 7 7 10 10 14 15 17 16 18 16 16 22 26 33 31 27 23 13 14 14 7 7 4 7 8 10 15 15 15
13 11 12 10 6 11 10 6 6 2 3 2 1 3 6 8 10 14 16 19 17 17 15 15 21 17 21 27 26 27 31 28 30 26 14 8 6 4 5 8 12 15 15 18 11
15 15 10 9 9 6 6 7 6 5 4 2 7 7 10 11 12 20 21 22 21 19 19 18 15 23 32 24 21 23 30 19 19 4 11 12 9 9 9 10 10 11 14 13 10
13 12 10 6 9 12 9 10 7 5 2 4 5 10 13 15 19 25 30 33 35 31 26 23 24 23 23 13 25 21 18 16 13 14 17 15 11 7 8 9 11 13 13 13 9

GFSSW_700_spd_096.txt.gz
Wind_Speed
34 30 30 28 28 27 26 27 26 24 25 25 25 25 26 24 23 22 21 23 20 23 21 19 17 22 25 25 27 26 37 40 39 35 35 22 23 21 19 21 13 8 18 19 20
38 34 32 31 30 28 27 27 26 26 27 27 26 26 27 25 23 21 24 22 23 20 18 18 19 25 27 25 29 32 41 42 36 32 34 28 26 26 25 23 18 12 9 12 20
38 39 39 38 34 30 32 29 28 28 29 29 28 27 29 27 26 26 21 20 19 17 15 14 21 27 28 28 30 36 43 37 35 31 28 30 30 27 30 32 21 21 14 8 17
40 37 39 37 34 33 33 32 30 30 31 31 31 30 29 26 17 11 12 14 15 15 15 14 15 21 24 29 27 33 34 34 33 27 25 24 27 36 35 35 30 27 24 22 18
39 39 37 34 33 32 31 32 31 31 31 31 31 30 29 27 21 25 23 23 24 24 22 20 18 19 21 20 23 30 30 25 23 24 26 29 33 36 39 34 36 36 32 32 32
38 35 35 34 33 31 30 30 28 29 30 32 31 29 27 24 22 18 20 17 21 22 18 18 15 16 20 20 20 23 25 28 28 30 32 32 39 36 38 36 40 41 42 39 40
34 34 32 29 30 32 31 28 27 26 26 29 29 28 27 14 23 20 18 15 13 16 17 15 19 23 19 22 21 22 28 31 31 32 35 32 50 44 40 41 40 40 41 45 50
36 33 33 34 36 33 31 27 29 27 24 25 26 30 26 20 22 22 18 17 13 12 16 16 20 25 24 24 23 21 26 32 30 30 32 28 62 43 38 40 41 31 27 26 34
36 38 32 35 35 30 30 30 30 26 25 23 27 27 20 19 18 18 14 13 14 13 14 17 21 26 23 25 26 27 33 30 32 25 23 21 39 28 27 33 35 32 31 32 34
35 35 33 37 29 30 29 31 27 25 26 23 26 20 14 16 14 14 8 6 8 11 11 12 14 24 26 26 22 22 27 28 28 16 19 28 37 37 33 34 33 34 38 41 36
43 42 40 42 32 33 29 27 25 24 23 22 14 9 11 10 12 11 12 13 14 15 14 13 15 20 16 19 25 26 26 28 24 19 28 33 38 45 43 44 43 37 37 38 36
37 39 40 38 33 32 28 27 23 21 18 17 22 19 15 18 17 12 11 11 17 20 14 16 21 14 10 11 14 18 24 30 32 27 25 34 39 39 36 33 36 46 43 33 38
37 35 35 38 35 31 27 21 16 16 17 15 17 18 14 15 10 11 7 2 5 11 12 14 16 7 15 17 20 24 27 29 33 30 30 31 43 42 41 34 32 34 35 42 40
41 40 34 37 31 25 19 15 15 11 9 9 10 11 14 6 4 11 7 1 3 6 6 13 5 11 16 23 22 34 24 27 31 29 30 24 22 51 43 37 37 32 29 35 36
41 32 39 38 26 21 17 16 13 7 3 7 7 9 9 9 5 2 3 4 6 6 12 13 10 10 18 22 18 29 24 28 24 25 30 44 11 57 36 47 41 29 32 29 33
37 35 33 25 21 19 18 17 12 7 6 9 6 9 9 6 7 3 7 7 10 13 13 17 13 18 15 21 22 23 21 18 22 21 15 49 17 46 35 28 23 18 22 23 23
34 30 25 23 24 21 20 18 10 7 9 11 12 11 13 10 10 9 8 13 10 10 15 23 24 21 19 23 23 25 25 7 6 4 13 30 19 33 25 29 28 22 19 20 29
29 28 28 28 24 25 20 19 7 6 11 14 17 10 3 3 2 6 8 9 14 16 16 11 11 5 8 10 15 19 21 15 4 3 5 17 9 10 19 19 17 25 32 30 23
31 30 30 24 24 22 21 13 6 10 14 16 10 6 6 6 10 6 4 2 6 11 7 9 8 12 12 18 16 16 17 22 27 25 11 13 28 24 23 21 21 23 26 8 19
29 30 25 23 24 22 19 6 8 11 6 5 6 8 7 6 4 4 7 0 3 6 7 7 18 15 21 27 21 14 16 13 15 4 7 8 18 5 13 22 10 5 9 10 6
28 28 26 23 22 19 15 9 11 10 7 6 7 9 9 4 4 3 6 7 10 11 14 15 16 22 26 20 25 26 19 17 13 18 5 6 6 10 14 22 24 0 7 7 9
27 20 24 23 20 19 16 15 10 6 5 3 5 7 4 4 6 4 5 6 10 13 16 13 11 17 26 26 26 24 25 20 11 3 11 12 11 14 14 15 14 9 4 12 11
21 22 21 21 14 18 17 13 11 8 7 6 7 7 6 7 3 4 6 7 10 13 6 11 4 9 18 6 11 7 11 13 20 16 14 7 7 14 18 1 6 9 8 10 11
24 14 20 20 16 17 15 10 10 7 5 4 7 7 4 5 7 6 10 8 11 15 10 10 9 10 12 20 22 28 29 21 16 15 17 21 20 12 13 6 9 13 11 15 13
20 14 19 20 18 15 15 11 8 7 7 7 9 5 7 6 11 13 16 20 22 18 19 12 16 17 20 18 22 28 27 25 25 27 21 26 12 6 3 5 3 8 12 13 8
16 21 18 20 15 13 12 12 9 9 7 7 8 12 12 12 14 17 21 22 24 20 15 14 15 16 32 28 25 21 23 22 21 22 23 20 18 6 2 2 2 7 8 9 7
16 17 16 16 13 14 16 15 11 7 3 2 5 9 14 18 21 23 23 26 28 30 29 27 23 17 27 23 25 24 17 16 13 8 15 4 9 9 2 4 5 6 8 9 8

GFSSW_700_spd_099.txt.gz
Wind_Speed
33 34 33 29 29 29 29 28 27 27 27 26 25 25 27 26 26 24 24 24 23 24 22 21 21 23 25 27 29 29 35 41 40 36 33 26 27 23 24 24 15 7 7 11 16
32 31 31 30 30 31 32 31 30 28 28 27 27 27 28 28 28 25 27 27 25 23 21 22 23 25 26 28 30 33 41 43 40 34 35 30 32 28 29 27 24 16 10 10 8
33 34 33 36 35 30 30 30 29 28 28 28 29 30 29 28 29 30 23 18 20 19 18 20 24 26 28 30 31 36 44 38 38 33 32 31 31 25 31 32 26 25 18 13 11
36 35 34 37 34 34 31 28 28 28 29 31 30 29 30 27 19 17 19 19 17 16 16 16 19 23 27 31 28 37 38 36 38 35 34 33 30 33 28 31 28 28 26 25 20
38 35 35 34 35 34 33 31 29 29 30 33 32 30 29 28 20 27 26 24 25 24 23 21 21 23 24 22 24 34 35 32 32 29 29 29 30 31 34 29 29 29 30 31 30
36 33 34 31 32 33 29 27 29 29 30 32 32 32 30 25 23 24 21 20 22 23 26 24 21 25 27 26 28 29 27 28 31 30 31 35 35 33 34 32 32 31 32 34 37
33 36 33 32 34 31 32 35 33 30 29 31 31 32 31 14 25 26 22 20 22 20 20 20 19 24 24 24 27 29 32 32 29 29 32 33 42 39 35 35 38 39 40 41 38
38 35 35 40 35 34 33 32 30 28 30 33 34 34 32 23 27 22 23 20 19 17 17 20 21 25 26 25 24 22 26 31 25 23 27 29 47 33 30 34 37 39 43 44 44
45 40 36 40 31 36 35 29 29 27 32 33 35 31 31 25 22 23 22 18 20 20 20 20 24 26 24 26 27 24 28 28 26 21 23 28 45 27 23 24 29 31 36 37 39
49 43 39 43 34 30 28 29 32 34 34 31 33 28 24 22 17 17 14 13 12 13 16 20 20 21 26 29 22 22 22 22 24 19 19 26 41 33 29 30 34 37 38 39 40
40 42 43 41 35 39 37 34 34 34 35 28 27 13 15 15 15 14 10 12 14 15 17 16 20 22 15 20 23 26 29 32 26 17 22 26 38 33 31 34 34 34 36 41 45
38 42 38 38 30 29 34 35 34 32 33 26 27 28 25 20 17 16 16 18 18 20 19 20 24 20 15 14 14 16 20 24 23 14 22 25 39 38 36 39 35 36 35 33 35
41 44 49 31 30 31 33 34 33 29 30 28 26 25 18 24 21 17 16 12 13 15 21 22 15 2 9 12 14 17 21 23 28 24 26 32 46 38 36 37 36 30 34 42 42
40 38 36 32 33 37 34 30 26 19 13 17 22 25 23 23 18 18 16 9 7 4 5 12 10 10 11 17 17 26 18 22 25 27 23 21 18 50 39 35 34 41 30 30 24
43 37 34 32 37 35 30 23 17 14 3 6 13 12 16 20 13 13 15 9 5 4 8 8 7 9 13 14 14 25 21 17 18 21 21 35 8 42 44 48 35 24 25 26 22
37 37 37 35 32 31 24 20 20 12 8 11 12 18 18 18 14 12 17 14 10 11 13 12 12 14 13 14 17 16 18 21 20 18 9 40 11 35 34 27 21 30 33 26 28
45 40 34 33 32 27 22 24 17 8 7 15 17 20 15 14 9 15 16 16 15 7 12 15 15 11 17 17 12 8 10 3 4 3 9 21 13 14 22 22 23 25 26 28 26
34 44 40 35 28 25 28 28 11 12 15 15 18 20 16 14 13 14 20 17 18 13 9 6 4 6 5 5 9 6 9 6 4 3 5 22 9 15 22 26 25 30 33 33 33
38 35 33 29 28 29 28 21 13 8 16 18 19 16 11 12 10 13 16 12 8 9 4 4 4 10 8 12 15 8 9 11 9 20 8 12 20 23 28 20 18 26 33 21 12
30 30 28 28 29 29 27 17 13 15 15 20 16 14 14 13 13 13 11 7 5 6 7 6 10 11 15 20 18 13 12 9 5 3 6 8 14 14 14 19 26 33 36 17 16
28 31 28 26 31 30 22 10 17 15 13 17 14 13 13 13 13 13 8 7 6 7 7 11 12 13 17 12 21 22 17 8 10 11 4 5 7 12 22 25 27 30 43 20 16
35 27 31 28 26 26 16 14 12 12 11 10 11 13 12 12 10 11 12 9 6 8 11 12 9 13 21 15 6 11 9 9 5 4 12 10 8 14 20 17 22 34 13 6 14
27 26 27 26 19 24 18 15 13 10 7 9 10 10 10 10 7 11 11 9 10 10 5 6 4 7 11 8 7 8 10 9 12 14 14 6 5 19 22 14 10 17 16 14 15
29 25 27 28 21 24 23 17 13 10 8 9 8 9 8 7 10 9 9 11 14 12 12 12 10 12 10 15 19 26 20 16 18 14 16 19 29 27 16 15 18 20 15 16 14
24 25 26 27 20 21 19 15 13 11 7 9 9 10 10 8 11 13 15 16 17 17 18 16 18 18 22 22 23 25 30 30 27 26 22 29 24 26 15 5 5 3 12 12 11
23 27 25 21 19 20 17 13 12 10 7 8 6 8 8 10 12 12 14 17 20 19 18 16 15 15 24 24 24 26 32 36 33 28 25 26 26 21 14 8 3 7 12 7 7
19 20 21 21 22 21 19 17 12 8 7 6 7 10 13 16 18 21 23 25 25 25 24 24 17 13 22 20 20 27 22 28 29 26 21 18 15 10 9 9 10 7 5 6 7

GFSSW_700_spd_102.txt.gz
Wind_Speed
30 30 27 29 28 28 28 28 30 31 33 31 31 30 28 27 26 26 27 28 26 26 26 26 26 24 24 26 28 28 33 38 38 35 33 27 28 26 24 26 26 21 11 8 8
34 33 31 30 29 30 31 32 30 31 31 31 30 30 30 29 29 28 29 30 29 28 29 28 27 27 27 28 30 30 38 39 37 32 33 28 30 28 28 27 29 28 18 11 9
36 35 34 34 30 31 34 35 34 31 30 31 31 28 29 29 29 31 27 23 20 19 20 22 25 26 28 29 30 34 41 36 37 32 32 31 30 29 32 32 26 31 29 20 15
39 37 37 37 34 34 35 37 35 35 35 33 33 32 29 27 18 20 21 24 24 23 22 20 21 21 24 28 28 36 38 35 34 31 32 35 32 34 33 33 28 28 30 31 24
43 39 39 38 37 35 33 34 34 33 31 33 35 34 34 33 22 29 28 26 25 25 25 24 22 22 25 25 23 31 34 33 33 33 33 33 33 32 35 31 31 30 30 31 31
44 43 40 40 37 33 31 32 33 33 34 36 35 34 33 33 28 27 25 24 23 24 27 28 29 30 31 30 28 28 25 25 27 28 30 33 34 31 31 25 30 31 30 30 32
42 43 37 40 36 34 32 32 32 35 34 34 33 36 35 23 30 27 25 23 22 21 21 21 25 26 25 23 25 29 31 32 31 28 30 28 35 32 29 28 30 32 34 35 34
39 43 39 42 39 36 33 34 35 37 38 35 32 33 36 27 29 26 28 25 22 22 19 20 22 26 25 23 22 23 23 26 21 21 20 21 32 28 19 21 24 28 31 35 37
47 46 44 40 41 37 34 34 34 38 40 34 34 34 39 28 23 27 28 23 24 22 21 23 25 26 24 24 25 22 25 26 27 21 24 25 30 20 13 21 26 26 28 31 35
50 48 43 52 36 43 40 42 40 35 32 33 33 32 30 27 26 26 17 21 22 19 20 26 23 25 25 27 21 17 18 18 21 21 23 29 35 29 24 25 29 31 31 34 37
49 49 52 51 53 37 44 36 31 38 42 38 35 33 21 17 16 16 16 14 16 17 18 22 25 27 23 22 22 23 24 26 24 14 21 28 33 28 24 25 26 29 31 30 28
46 43 43 48 40 43 40 50 42 38 36 36 34 36 33 32 30 19 18 19 19 18 18 22 26 21 19 17 17 14 17 21 18 7 22 26 37 30 25 25 24 26 24 27 29
44 40 44 36 38 39 42 28 34 32 31 42 38 40 32 31 36 24 22 20 20 20 23 27 15 7 10 14 15 18 20 16 18 17 20 26 42 30 22 23 16 24 31 25 24
38 39 38 38 39 39 37 29 34 24 16 34 31 28 32 32 34 27 24 18 20 15 13 16 16 22 19 18 17 22 18 17 15 15 12 13 15 32 13 11 31 20 16 18 23
37 38 37 35 44 33 30 37 34 20 1 9 16 19 19 32 22 23 23 22 14 11 12 5 4 8 10 10 10 15 12 15 15 17 23 16 8 31 25 29 20 20 21 21 27
40 35 37 39 40 34 31 26 24 8 9 8 11 15 19 24 17 15 27 21 15 12 11 10 9 11 13 11 11 16 14 11 14 15 8 17 15 33 23 21 25 19 25 32 30
32 41 38 41 31 38 23 25 12 8 2 9 14 15 17 25 18 13 28 24 16 11 14 11 11 15 16 13 12 8 6 2 3 3 6 1 9 25 16 21 24 29 28 27 29
35 44 35 35 34 26 25 21 8 8 13 6 9 17 17 16 16 16 19 24 24 20 10 5 4 9 4 3 2 3 3 2 4 3 4 21 8 10 16 22 31 27 28 28 31
38 44 48 37 30 35 26 17 13 6 16 12 16 24 15 17 13 17 17 22 19 14 10 7 7 9 4 4 5 4 4 4 7 14 7 10 16 23 24 24 23 26 25 31 31
38 45 36 32 32 28 26 17 16 9 10 18 16 12 12 14 11 15 16 13 14 12 12 8 5 14 14 11 9 4 7 4 4 3 5 8 8 11 8 13 17 25 32 35 37
36 32 28 28 30 27 29 21 11 13 11 9 13 14 11 15 16 18 11 11 12 11 9 7 7 5 8 9 16 15 8 8 9 9 3 3 4 6 16 20 24 25 25 29 20
22 26 28 32 29 30 24 20 12 11 13 12 14 12 16 20 17 15 13 10 12 12 11 10 6 3 11 5 7 8 2 3 4 3 6 5 10 13 12 28 24 22 20 21 25
24 24 26 30 22 24 18 15 16 14 14 14 16 18 15 16 10 14 12 11 10 8 4 4 3 1 5 10 6 4 5 8 9 13 14 4 9 16 22 31 26 22 21 23 26
26 27 29 31 21 23 20 20 19 17 14 13 13 14 15 13 14 11 13 13 12 11 9 10 7 10 7 8 13 21 23 19 15 9 18 25 29 26 29 26 23 24 14 14 20
20 30 30 32 27 28 24 22 20 16 13 12 11 12 12 11 13 12 13 13 13 13 12 11 14 15 16 16 20 25 29 29 28 31 25 35 34 33 32 29 22 21 17 15 16
20 30 26 31 23 25 24 18 19 15 11 12 10 11 10 10 10 6 13 15 14 13 13 14 11 13 22 23 24 30 33 32 32 32 35 35 35 32 32 29 20 15 18 12 13
21 28 27 28 23 24 24 20 15 12 10 8 8 8 9 10 12 15 17 19 18 18 17 15 12 9 7 9 15 21 18 12 24 33 29 34 31 30 27 16 13 12 17 5 7

GFSSW_700_spd_108.txt.gz
Wind_Speed
29 30 30 32 29 31 31 31 30 30 28 28 30 30 28 26 26 28 27 25 24 26 25 24 24 23 22 24 24 23 18 21 24 20 17 19 16 18 25 22 21 22 23 24 20
33 34 33 35 33 33 32 32 33 33 33 32 34 33 33 30 29 28 29 27 27 26 27 26 26 24 24 25 27 26 21 22 23 22 23 24 23 19 22 19 23 24 22 23 20
38 38 38 37 37 37 36 36 36 35 35 35 36 35 36 33 29 33 28 23 20 19 20 21 20 19 21 24 25 23 29 21 27 27 27 26 28 27 28 26 26 24 25 26 26
41 40 40 40 41 42 41 40 40 39 38 39 37 35 37 34 20 23 26 26 23 22 23 24 26 23 22 24 22 27 27 29 26 26 27 28 29 31 30 31 26 27 25 27 25
38 39 40 41 42 42 42 40 39 40 40 37 36 36 36 36 25 30 29 28 29 29 28 28 28 26 24 20 23 30 27 27 27 28 27 28 30 29 31 26 26 27 26 25 26
39 40 39 40 41 43 43 36 41 39 38 36 35 37 37 37 30 25 26 23 22 23 24 25 28 30 31 30 27 17 25 27 26 28 27 27 26 22 27 21 24 24 25 24 25
37 39 40 41 42 42 42 41 41 40 38 38 39 38 39 32 32 28 26 24 25 25 26 24 25 26 25 24 27 31 30 24 25 27 26 22 27 29 24 22 25 23 23 23 24
38 39 38 38 40 42 42 44 41 38 39 39 40 39 43 35 31 31 33 32 32 32 28 28 27 25 27 24 24 22 20 20 13 9 12 14 22 16 12 17 18 17 16 19 19
38 38 38 37 38 39 42 43 40 40 38 38 37 39 45 35 25 22 19 19 22 26 28 30 27 25 23 21 18 19 24 20 16 13 14 17 17 11 12 14 16 19 18 16 16
35 35 36 36 36 39 41 42 41 39 43 39 42 36 38 33 24 24 21 16 22 24 28 31 29 27 21 21 25 20 24 20 19 13 12 18 25 24 24 24 24 21 19 16 21
34 34 36 37 38 37 38 42 42 45 50 44 45 37 29 24 26 31 35 37 29 26 31 29 26 35 28 27 27 24 21 23 22 21 21 22 23 20 19 20 20 18 16 18 23
35 35 37 38 40 38 38 39 42 45 44 46 46 52 46 43 43 44 41 36 31 31 22 25 34 30 27 25 25 23 23 24 20 16 17 19 23 22 22 22 19 16 15 20 17
35 36 38 40 40 39 38 36 34 38 37 48 51 54 55 54 50 48 40 36 30 27 30 32 21 16 26 24 26 26 25 21 20 17 21 22 27 17 9 9 12 13 14 14 14
35 37 40 41 38 39 39 28 35 31 22 33 41 42 40 39 44 41 40 34 26 30 28 26 27 23 17 23 22 25 21 22 20 16 14 6 8 7 11 10 10 6 10 12 11
37 38 41 38 38 37 32 32 33 28 5 10 23 31 33 30 27 26 24 32 35 25 26 21 15 17 27 24 20 20 18 16 15 16 17 19 13 13 12 13 9 8 10 13 15
38 39 37 38 37 31 32 31 28 17 8 9 17 14 18 21 18 23 13 26 25 26 22 24 17 11 12 20 25 14 11 12 13 14 16 21 18 14 15 12 9 15 15 16 21
39 36 31 29 29 35 33 28 18 9 6 11 14 17 15 12 18 11 17 27 21 26 27 21 19 12 11 9 13 15 12 11 11 9 11 4 13 16 10 12 10 16 18 22 22
34 29 30 26 32 31 30 32 13 17 21 14 8 10 13 12 14 10 17 26 24 18 16 20 14 14 10 14 14 19 19 16 11 11 5 6 9 7 14 17 15 15 17 19 18
32 31 28 31 32 39 39 29 15 20 13 19 14 15 15 15 12 14 16 24 23 21 18 15 10 8 10 15 17 12 16 13 9 13 12 17 12 9 8 4 9 14 12 14 18
29 31 33 38 34 37 35 30 19 20 14 17 17 14 16 16 17 15 17 20 21 26 17 10 6 11 17 17 16 10 10 5 8 5 12 11 15 11 10 9 10 10 13 20 27
34 38 46 45 40 39 39 28 26 21 19 17 16 12 13 15 16 16 14 14 24 23 17 9 14 5 14 13 13 12 11 10 9 11 7 10 8 4 11 10 13 17 25 30 31
34 48 44 42 35 37 40 36 31 30 22 13 20 19 15 16 11 11 9 10 16 11 11 18 11 14 12 18 20 17 14 15 16 12 14 15 19 7 12 16 23 27 26 30 32
37 44 42 45 35 35 27 30 20 16 15 16 10 15 13 18 12 16 12 10 11 15 13 18 8 9 5 7 16 11 12 13 13 8 16 14 5 5 10 16 26 28 31 33 32
30 21 36 41 30 29 23 24 25 22 19 16 19 14 8 8 14 9 14 16 20 21 22 14 11 12 11 2 4 10 15 13 13 11 19 26 28 21 19 23 26 34 31 31 29
34 22 39 44 32 29 26 19 19 17 18 17 14 14 14 9 11 12 16 18 19 18 18 14 10 12 14 12 10 13 16 19 23 25 27 29 32 29 27 28 33 34 31 27 24
33 27 39 17 38 26 23 20 20 17 17 17 13 14 13 10 13 14 17 15 13 18 16 15 7 10 12 13 14 18 22 25 26 26 30 32 39 28 25 33 34 29 21 20 16
27 27 36 23 32 26 24 20 20 20 16 14 14 11 13 15 14 13 14 15 14 13 16 12 9 5 9 7 8 16 21 21 20 17 19 23 23 23 30 24 22 19 14 13 11

GFSSW_700_spd_111.txt.gz
Wind_Speed
28 29 29 30 30 32 31 31 29 28 28 29 29 30 29 28 27 26 27 25 24 24 24 23 22 24 25 22 20 18 18 23 23 23 24 18 18 12 15 18 16 15 17 18 29
31 32 32 32 33 35 35 34 33 32 29 33 33 34 32 31 31 30 27 27 25 24 24 22 22 21 21 19 19 20 22 24 19 21 22 20 20 17 19 18 17 19 17 19 20
36 38 38 38 38 38 39 39 38 37 34 36 35 34 33 33 27 29 21 19 20 19 17 18 16 16 16 17 18 19 29 23 23 22 24 25 23 21 23 25 21 21 20 18 19
38 40 39 39 39 39 40 40 39 38 36 37 35 35 34 28 15 30 29 28 26 24 26 27 25 24 18 18 20 28 28 26 25 25 25 25 24 26 26 26 23 24 23 21 18
38 37 37 37 37 39 38 40 41 41 39 39 37 34 32 34 25 34 28 27 24 23 21 23 21 18 20 18 19 28 29 27 25 27 27 26 28 29 29 26 25 23 23 24 25
37 38 38 38 38 39 40 40 42 41 42 39 39 35 36 41 30 31 26 24 24 20 19 21 20 17 24 25 24 22 22 26 24 27 25 27 28 25 25 23 24 22 21 25 25
36 35 36 36 38 40 40 41 43 42 43 42 42 40 44 42 35 31 24 27 27 26 27 26 24 23 18 18 20 25 31 30 31 31 31 26 31 30 28 26 26 24 21 19 22
36 36 36 35 36 38 40 40 42 42 44 43 45 42 49 45 35 34 34 30 31 31 31 29 28 26 25 22 23 21 24 31 24 23 22 24 32 17 15 16 16 14 13 14 14
36 35 36 35 35 36 38 38 39 41 43 44 46 43 50 46 30 25 20 18 21 22 24 29 27 25 19 22 24 23 31 29 26 21 17 19 18 9 14 14 15 15 17 16 15
34 33 33 33 33 34 34 35 39 41 41 42 44 41 36 30 20 18 23 26 22 18 22 25 24 24 22 25 31 26 27 29 28 22 23 24 29 25 21 20 22 20 19 19 18
34 32 30 33 34 35 33 36 39 42 43 41 35 39 23 20 30 25 25 25 24 24 24 23 24 35 29 30 32 32 33 34 31 22 22 29 32 29 27 25 25 21 19 18 17
32 32 31 33 35 32 36 39 40 39 38 41 41 45 48 41 46 33 24 32 26 30 26 27 35 31 30 31 32 33 34 36 32 28 28 30 33 29 25 25 24 22 19 19 17
31 31 31 33 34 37 35 38 38 36 36 45 44 44 41 36 46 49 33 36 32 33 34 38 35 30 25 32 33 36 34 33 30 26 23 26 35 32 31 28 24 22 17 20 15
31 30 32 34 35 35 39 36 34 31 17 39 25 34 28 26 36 34 34 38 39 38 35 35 35 34 33 27 31 34 29 29 28 26 29 25 23 12 10 12 15 18 15 13 14
32 32 34 32 35 35 35 32 30 16 6 14 13 27 24 22 16 13 16 26 39 36 29 33 29 28 31 35 27 30 25 24 25 25 27 29 25 26 26 22 16 16 15 11 15
31 33 33 34 34 35 32 25 18 14 11 13 14 20 22 19 17 13 16 19 25 30 34 36 25 23 24 23 28 28 24 22 25 25 22 31 30 27 22 23 23 20 11 7 15
31 31 31 34 33 31 29 24 19 14 11 18 18 16 17 15 15 16 12 18 27 21 33 32 28 28 20 18 14 21 23 18 15 17 16 26 26 25 8 15 19 15 10 8 14
31 29 31 31 33 29 27 28 17 27 32 11 15 15 17 14 18 16 18 21 24 22 18 17 14 24 20 20 18 20 24 14 7 12 12 13 11 5 11 20 21 14 11 15 21
29 32 33 32 26 32 31 39 29 35 20 29 19 19 21 19 18 18 20 23 24 27 16 10 16 14 12 13 13 13 28 21 18 25 15 14 7 3 12 14 22 22 18 21 18
31 31 32 24 37 31 42 40 30 26 23 21 25 17 17 22 20 20 19 16 24 23 23 14 8 15 11 11 11 14 6 9 13 10 17 17 22 15 14 12 11 10 14 16 20
31 31 35 34 48 37 43 43 38 25 21 21 22 21 19 16 21 21 17 14 17 17 15 16 14 6 10 15 17 14 16 12 10 12 6 11 6 6 13 10 4 4 11 19 25
41 36 40 40 43 45 50 31 32 26 24 18 19 17 20 16 17 19 16 8 16 15 18 13 9 12 13 10 18 16 15 17 19 17 23 23 23 8 4 4 10 11 19 22 28
44 38 41 49 47 51 43 42 28 23 21 20 19 20 19 15 13 15 11 13 16 15 11 12 7 11 13 11 18 18 22 22 20 21 24 18 11 10 8 13 17 22 25 29 30
45 38 40 40 49 34 32 27 26 21 19 18 13 14 15 15 16 15 16 17 15 12 15 10 14 16 12 5 4 9 17 20 21 20 25 27 25 17 10 14 21 23 26 36 35
51 36 42 47 52 32 27 24 22 22 18 17 16 18 16 13 14 14 15 24 26 23 21 17 15 16 19 18 14 12 13 17 21 23 24 22 25 25 29 28 28 32 38 34 29
31 19 33 21 46 32 30 23 27 25 21 19 13 17 17 13 14 12 14 12 11 14 12 12 9 9 14 14 16 19 20 23 26 27 29 30 33 26 26 23 27 31 30 23 19
38 30 18 27 37 40 30 26 23 21 16 14 14 15 14 12 10 8 13 12 11 11 14 11 10 6 12 8 11 15 21 25 28 27 26 26 24 17 19 25 25 28 21 16 14

GFSSW_700_spd_114.txt.gz
Wind_Speed
26 27 28 28 28 29 29 29 30 29 28 27 28 28 31 29 25 26 29 24 22 20 19 19 19 19 19 19 17 12 16 19 23 21 22 21 15 20 14 18 18 11 17 22 22
29 30 30 31 32 33 34 34 35 35 32 31 30 31 32 31 27 25 24 21 18 16 16 16 16 16 16 16 15 19 18 23 19 20 23 25 21 17 17 17 19 17 16 22 20
34 34 35 35 36 37 37 37 36 36 35 32 30 32 31 31 30 26 16 16 20 21 21 22 20 19 18 14 16 20 29 21 23 24 24 24 26 25 26 26 22 23 23 22 24
35 35 35 36 37 38 38 37 38 37 36 35 31 32 32 31 16 25 26 25 24 21 20 20 19 19 19 16 18 26 28 28 27 26 26 28 27 28 27 28 24 26 28 27 30
37 36 36 36 35 36 37 37 37 37 37 37 35 37 34 33 30 33 26 24 23 20 19 18 14 13 19 16 18 24 26 29 30 28 31 28 30 33 31 29 28 27 29 32 31
36 35 35 37 36 36 37 37 39 40 39 37 38 38 41 41 27 30 29 31 24 26 21 18 15 14 24 24 25 26 29 29 25 27 29 29 31 27 29 27 27 26 28 30 29
34 34 33 34 35 35 37 36 37 39 40 37 39 41 44 42 31 32 35 29 28 27 25 23 23 24 24 20 17 19 26 29 31 32 34 29 39 35 28 20 27 28 27 22 24
32 32 32 34 34 36 36 36 37 39 40 38 40 40 49 43 42 34 30 34 29 29 29 26 27 29 28 27 31 30 30 35 28 25 28 27 46 24 20 15 18 20 23 23 22
32 33 33 33 36 35 34 35 36 38 39 38 39 38 45 37 31 30 27 20 15 17 19 21 21 24 21 21 27 22 34 31 38 26 27 27 32 20 11 16 16 15 15 15 16
32 31 32 32 34 35 33 33 35 37 38 40 37 37 24 22 15 19 18 14 17 18 23 22 23 24 16 19 34 28 30 33 38 29 23 30 31 25 25 23 22 19 16 18 17
32 31 31 31 33 32 32 33 36 36 40 38 35 40 26 14 23 20 20 24 24 24 25 22 23 26 22 25 31 34 35 38 39 35 36 35 29 28 24 25 26 26 26 23 22
32 30 30 30 32 30 32 33 34 34 41 42 42 42 39 33 38 35 21 23 17 26 22 23 35 29 27 29 32 36 40 42 40 36 34 38 39 38 34 33 32 28 26 22 19
31 30 29 30 33 33 30 31 33 34 37 46 43 44 38 30 36 34 26 30 29 28 27 32 36 30 32 34 36 37 38 40 43 39 38 37 38 34 32 34 35 29 24 21 26
30 30 30 32 35 32 31 30 31 24 18 43 26 29 19 19 30 19 28 30 36 41 37 37 33 34 38 37 37 36 30 34 37 33 30 32 25 35 32 34 26 38 28 28 28
32 31 31 32 34 32 30 24 20 10 5 11 10 22 10 16 10 3 5 23 32 35 33 47 35 33 34 33 31 36 34 30 28 24 28 34 30 28 32 34 23 24 28 28 33
31 30 29 31 33 33 29 22 10 9 12 11 13 12 19 18 19 17 9 13 18 24 27 34 31 32 28 27 24 23 22 28 29 28 22 40 31 34 36 33 28 29 25 23 26
32 29 30 28 31 31 27 12 13 16 11 20 24 18 16 18 19 19 18 18 17 18 25 26 32 31 28 24 20 18 18 10 5 10 15 28 27 34 6 3 34 33 17 17 19
31 29 29 27 29 30 24 24 15 30 36 13 11 20 24 19 21 20 18 21 18 19 23 20 17 22 24 25 20 14 14 11 6 7 15 18 13 8 7 18 28 21 13 12 12
30 30 31 28 29 29 26 34 36 38 25 27 27 27 28 24 22 20 19 22 19 18 23 13 12 11 13 20 17 17 24 22 17 22 18 19 11 8 14 14 12 11 6 6 7
30 30 30 28 27 25 31 38 43 33 29 24 29 24 28 26 27 25 21 14 16 21 22 22 19 18 13 11 15 15 6 6 8 4 10 17 19 5 6 5 3 3 6 12 15
30 29 33 30 31 39 39 47 46 34 26 23 28 29 28 25 26 17 17 16 12 14 15 15 14 10 9 13 17 17 21 14 9 8 4 6 6 10 6 9 5 9 12 18 21
32 37 37 34 43 42 48 46 39 31 30 26 22 26 27 24 22 20 17 14 14 12 13 20 7 10 15 10 10 18 18 19 22 15 17 18 18 11 8 6 8 13 18 23 24
34 39 40 43 47 48 48 48 50 36 27 29 29 24 22 21 12 17 14 19 17 17 10 18 11 10 11 14 13 14 17 18 18 19 22 12 10 5 5 7 5 11 7 15 32
38 35 40 44 48 48 48 49 46 43 35 27 26 22 21 20 22 15 15 14 19 15 15 10 9 11 8 2 6 10 15 19 22 21 23 22 24 21 8 5 16 16 22 26 34
42 35 42 35 52 48 42 42 37 28 41 33 23 20 22 17 16 15 17 11 18 20 21 14 13 13 19 20 15 16 15 14 19 24 24 24 21 20 19 19 16 20 24 33 35
41 43 39 41 33 40 37 35 32 30 25 25 22 21 20 15 19 16 17 19 22 22 23 14 11 12 16 15 15 19 20 21 23 23 25 24 26 21 23 23 22 27 31 29 31
40 39 27 34 41 38 49 32 28 29 24 25 20 16 21 18 12 12 14 12 6 11 13 14 9 7 12 11 13 13 19 22 23 22 24 26 22 19 20 23 25 33 30 26 23

GFSSW_700_spd_117.txt.gz
Wind_Speed
26 26 25 25 25 25 26 27 27 27 28 27 26 28 28 26 21 22 22 21 18 17 15 14 13 12 12 11 12 12 17 25 23 19 16 15 24 20 8 9 14 15 17 20 23
27 30 29 29 30 30 31 32 31 31 30 30 27 26 27 27 24 21 22 17 12 15 17 16 16 15 11 7 10 16 24 27 21 15 20 23 25 24 28 20 14 14 13 19 27
32 32 33 33 33 33 33 33 33 33 32 29 29 27 26 27 26 24 10 14 20 19 18 20 19 18 16 14 13 15 27 21 23 21 24 28 31 29 30 30 31 28 25 25 27
35 34 34 35 34 33 34 34 33 32 31 30 31 29 29 27 20 18 25 20 23 20 16 16 18 18 18 17 12 20 22 25 29 27 29 31 32 39 38 37 35 31 28 30 29
35 35 35 34 35 35 34 34 34 35 33 33 34 32 32 31 22 26 26 21 18 23 18 19 18 17 17 15 13 21 23 26 29 29 32 35 37 41 41 36 34 36 34 33 37
33 33 32 32 33 33 35 33 34 35 35 33 35 33 36 33 23 23 28 28 24 24 18 16 17 16 24 22 22 26 26 31 31 33 32 31 39 38 38 34 33 32 31 27 30
32 31 30 30 30 32 32 33 33 34 37 35 37 36 39 30 30 25 32 32 30 26 25 19 19 21 24 27 20 16 27 29 26 27 30 26 44 38 32 26 21 19 21 28 29
31 30 29 30 30 31 32 34 34 35 36 36 36 38 42 36 35 25 19 19 20 17 19 19 22 27 27 28 28 27 31 41 34 25 25 18 49 39 33 22 27 28 27 23 24
30 30 29 29 32 31 33 31 33 33 35 37 35 37 39 26 28 24 18 13 12 15 14 14 16 21 21 22 24 15 27 32 38 18 25 27 43 41 31 20 22 24 19 17 18
29 29 28 29 32 30 30 30 32 33 34 37 36 36 13 15 26 31 22 14 11 14 17 18 21 23 19 16 26 26 22 27 36 30 31 40 39 34 25 32 28 23 26 23 18
28 28 28 28 31 30 30 29 28 34 36 34 34 39 35 28 28 14 8 18 20 19 25 26 27 31 26 21 23 23 29 36 38 35 29 33 40 38 35 28 26 24 24 25 23
29 29 28 28 32 28 29 27 25 31 42 36 36 42 35 27 33 29 23 19 22 19 17 20 37 28 23 22 24 26 31 37 38 35 34 37 40 39 37 37 35 32 32 34 35
28 27 27 27 30 28 28 24 25 27 37 48 40 42 34 28 31 27 27 31 31 28 20 30 24 12 25 31 31 33 35 36 40 32 27 30 35 35 36 40 38 37 39 41 41
28 27 27 27 29 28 27 23 23 22 24 41 25 13 9 9 14 1 7 15 28 35 32 35 30 30 31 35 32 37 31 32 28 26 18 26 16 37 37 35 39 35 40 31 33
29 29 29 28 30 30 26 21 17 11 5 10 5 8 8 7 5 5 1 11 18 21 28 42 36 39 38 39 34 38 27 23 26 28 24 37 11 37 28 28 30 15 17 33 39
31 30 31 29 30 29 25 18 11 6 11 8 8 10 13 15 12 14 1 8 8 20 24 32 24 31 33 32 35 30 22 20 22 18 10 37 14 42 33 24 13 17 22 30 30
33 32 34 31 31 29 22 11 11 12 8 14 18 17 15 13 11 14 10 16 19 14 20 19 26 23 25 29 31 22 18 6 5 3 11 17 17 27 20 14 14 24 35 20 17
35 35 34 33 31 29 19 19 13 38 38 17 5 9 19 24 18 11 19 22 15 23 26 24 18 18 17 23 29 17 14 8 4 2 6 19 8 8 12 18 16 19 19 22 20
35 35 35 34 33 30 24 30 28 40 24 22 23 31 31 21 19 19 19 25 27 17 26 10 12 15 15 15 13 14 19 15 13 19 11 12 20 11 24 4 11 6 6 3 9
37 36 35 34 32 26 28 38 43 40 32 18 22 19 25 24 27 23 25 24 19 23 22 22 22 24 20 17 14 18 5 5 6 3 4 6 14 2 6 1 11 13 15 10 8
37 36 37 35 27 29 40 46 42 41 34 23 29 31 29 30 22 24 22 20 22 16 17 18 24 13 17 13 14 16 17 11 6 6 3 3 3 7 9 8 6 6 7 11 14
35 32 37 30 40 45 46 48 42 44 33 35 32 28 28 24 23 23 18 22 10 16 15 18 13 17 20 17 12 14 16 21 19 10 10 5 11 14 7 3 8 11 13 17 15
33 36 37 35 41 43 48 51 46 47 33 29 32 35 28 23 19 22 16 21 20 17 15 19 11 4 6 10 16 20 19 19 21 20 11 4 6 11 17 10 12 11 13 13 22
28 26 35 37 43 43 43 48 46 48 43 34 35 26 30 27 26 13 16 17 17 21 19 19 21 16 12 5 3 7 12 21 18 21 20 23 23 19 17 20 15 17 20 22 25
34 32 39 34 47 47 47 47 50 49 35 34 39 35 31 26 22 25 20 23 21 21 20 21 17 13 14 14 17 14 14 15 16 20 22 27 25 23 24 15 14 19 24 26 31
36 36 38 45 36 41 47 49 45 44 37 37 41 36 33 38 29 27 27 26 22 16 21 21 14 16 18 18 18 15 19 20 17 21 24 22 18 14 17 18 21 22 20 29 34
44 35 23 33 42 36 41 51 42 40 41 36 36 37 32 33 24 19 17 23 16 15 20 20 20 8 6 10 11 13 20 22 24 19 16 15 17 23 26 28 27 25 27 33 35

GFSSW_700_spd_120.txt.gz
Wind_Speed
24 22 23 25 26 26 25 25 26 26 26 25 26 25 23 20 17 17 18 18 15 13 8 8 9 9 10 11 13 15 20 24 20 18 19 14 15 11 12 11 12 14 15 15 19
28 25 26 26 28 30 31 30 30 29 28 28 26 25 23 21 18 17 21 13 6 10 15 12 11 13 12 13 13 16 24 22 18 18 21 22 21 22 21 20 19 17 16 17 21
35 34 32 31 30 32 32 32 32 30 29 29 26 25 21 22 22 19 8 10 17 16 15 15 13 15 14 15 15 19 27 19 21 18 18 24 26 27 30 30 25 27 25 23 24
35 35 37 36 34 34 33 32 31 31 28 28 28 27 25 23 17 17 25 20 20 18 14 15 16 15 16 18 14 23 23 21 21 20 23 25 28 31 33 35 36 35 35 36 32
36 36 37 36 36 35 33 31 30 30 27 29 30 29 27 25 20 24 24 22 17 17 16 17 16 17 18 19 18 25 25 24 26 27 29 31 33 33 33 25 30 31 35 35 34
35 36 36 36 34 32 32 30 30 30 29 29 31 31 29 27 23 24 22 23 22 23 17 17 14 19 23 22 23 26 27 28 27 28 30 33 34 33 32 27 29 30 31 28 26
34 34 33 32 32 30 31 30 29 30 30 31 32 34 32 25 25 25 28 25 26 22 18 16 20 22 24 23 20 23 30 29 27 22 23 23 40 32 25 22 28 25 23 23 21
31 30 31 30 30 29 30 29 29 30 31 31 34 36 33 28 28 26 20 18 17 17 16 14 19 23 23 23 24 27 31 36 26 14 13 15 46 31 23 22 29 26 24 28 30
30 30 30 30 28 28 29 29 29 29 31 31 34 31 31 18 21 17 15 17 18 20 19 15 16 18 18 19 23 21 31 33 30 16 10 18 44 25 28 32 24 19 23 27 20
29 29 29 31 28 27 27 29 26 29 30 31 34 30 13 11 23 29 27 23 17 15 15 14 20 22 21 19 24 25 24 27 22 21 24 27 41 41 35 32 28 25 26 26 21
27 28 28 30 28 26 26 24 26 30 32 30 31 34 32 28 29 27 27 26 22 20 19 16 24 30 23 20 21 22 24 29 29 26 29 30 36 39 37 37 35 30 26 28 29
27 27 27 29 27 26 24 21 23 29 37 31 30 36 28 28 36 28 26 23 25 25 16 21 28 24 20 18 17 20 26 31 36 32 31 37 39 34 35 35 37 36 31 35 33
28 27 27 26 26 24 22 18 19 24 33 42 34 36 25 26 30 19 28 29 26 25 29 26 18 7 15 20 22 26 27 29 31 29 23 32 41 38 43 38 37 36 37 30 23
26 25 25 25 25 23 17 17 18 20 23 32 17 12 6 2 3 1 17 28 31 32 33 26 29 27 22 24 24 36 25 28 32 30 24 26 20 40 48 39 35 33 29 19 22
26 26 26 24 27 23 17 17 15 14 5 9 3 7 4 1 2 7 7 14 16 15 25 20 14 12 23 33 27 40 30 29 27 32 29 49 7 37 32 36 26 21 21 22 29
29 29 29 27 27 24 18 16 13 7 8 4 6 9 9 9 8 8 12 11 8 12 20 27 18 22 24 24 23 22 26 27 24 19 7 34 17 24 15 11 10 10 11 21 29
31 32 32 30 27 25 18 15 10 11 8 10 15 18 15 12 11 10 9 14 17 14 19 18 17 17 18 21 19 21 20 5 4 3 6 7 10 11 7 13 10 20 24 19 22
33 34 33 31 28 26 18 18 14 25 36 11 6 13 13 18 17 16 15 14 18 22 24 20 15 17 12 15 15 18 21 9 4 3 4 17 8 7 6 7 13 13 18 22 4
34 35 35 32 29 28 23 31 28 38 28 28 29 32 33 27 23 17 27 23 18 18 26 11 15 13 14 17 16 9 12 11 9 17 6 6 10 10 9 10 13 7 16 10 13
35 36 35 31 31 30 30 40 45 42 26 15 18 14 17 13 12 11 19 13 26 18 24 30 29 24 22 19 18 15 11 6 8 3 5 4 6 6 2 11 14 9 8 7 7
36 36 35 31 26 27 41 45 44 44 36 28 33 29 29 24 22 19 22 25 21 18 16 8 28 23 19 21 20 15 18 11 8 8 3 2 5 4 9 8 8 11 9 9 11
33 35 36 30 32 36 44 45 45 42 32 36 36 27 31 25 24 23 23 23 23 23 26 27 16 25 25 22 19 15 22 23 11 6 12 8 11 14 11 8 11 14 7 8 10
28 32 36 27 36 41 47 45 46 47 29 36 32 29 33 39 30 17 19 23 22 20 21 20 16 13 10 11 12 18 19 21 20 17 24 10 8 8 15 13 16 15 19 9 25
28 26 32 35 37 39 46 50 49 46 44 38 34 30 35 28 32 21 17 16 16 16 17 22 26 22 18 15 12 10 18 20 19 12 15 21 28 22 22 18 21 21 23 22 15
31 30 35 28 44 47 41 40 49 49 47 33 35 45 41 34 32 30 31 26 21 19 23 23 25 24 27 23 13 15 16 17 16 18 26 28 26 20 21 17 20 21 20 17 20
39 37 33 35 35 41 48 48 52 51 39 34 40 32 30 40 38 31 30 32 27 23 22 22 17 18 20 20 17 14 15 17 21 21 19 17 19 22 18 18 17 19 19 18 21
42 39 34 28 43 40 46 44 53 41 41 45 39 34 38 35 31 38 36 30 28 25 24 22 21 17 8 14 14 15 21 25 25 24 23 25 26 24 18 18 19 19 20 21 25

GFSSW_700_spd_123.txt.gz
Wind_Speed
24 24 23 22 23 24 24 24 25 26 26 27 27 25 24 20 17 17 17 16 16 13 10 10 11 11 10 11 12 14 19 20 18 17 13 12 15 14 14 14 12 14 15 12 12
23 24 25 25 24 25 26 26 28 30 29 30 28 26 24 20 18 17 19 18 12 7 10 12 11 10 9 13 14 16 23 18 17 18 22 20 20 22 25 21 19 20 15 16 19
30 32 30 36 34 31 32 32 32 31 32 32 29 26 22 18 20 18 11 6 9 17 17 15 13 10 9 13 15 20 25 20 21 21 24 27 24 24 26 27 25 26 24 23 26
38 37 40 37 37 36 35 34 34 32 32 32 29 26 23 18 16 15 20 21 20 19 18 15 15 15 13 16 15 21 22 21 23 23 26 27 29 29 27 25 25 25 26 29 32
37 38 37 39 38 38 36 33 32 32 31 30 28 26 24 20 19 21 24 22 20 17 14 18 20 20 18 17 18 22 22 21 23 25 26 28 30 30 31 20 25 28 32 30 30
36 36 36 35 35 34 33 32 30 29 30 29 28 27 26 22 22 23 21 21 21 19 20 20 21 23 22 22 21 23 24 24 26 26 27 29 30 30 27 26 28 25 24 21 17
37 36 35 34 34 33 31 31 30 28 29 30 29 29 28 23 22 23 23 20 23 22 22 21 22 22 23 21 21 25 27 25 23 21 24 24 32 30 24 17 23 25 23 22 18
36 33 33 32 30 30 30 30 29 28 29 30 30 30 29 26 25 26 20 17 16 16 13 15 19 23 23 22 26 27 27 24 11 11 21 24 33 26 23 24 23 21 17 19 21
34 32 32 31 29 29 30 30 30 29 30 30 31 28 25 18 15 17 16 14 14 16 15 15 22 25 22 21 23 18 19 22 20 15 14 17 32 20 26 30 32 30 26 23 22
32 32 32 30 28 29 29 29 28 30 29 28 32 27 13 11 13 16 23 28 23 21 17 17 22 21 20 20 21 20 20 19 18 16 19 25 37 30 26 26 26 27 30 27 25
31 31 32 30 28 28 26 24 27 31 30 27 28 28 26 29 30 23 26 26 23 23 19 16 24 28 21 19 21 22 22 24 20 17 23 30 39 32 29 27 28 27 28 30 31
30 31 31 30 28 26 23 23 27 31 36 28 27 32 24 28 33 24 28 28 27 26 19 23 29 22 19 21 19 18 24 24 23 19 21 30 41 39 35 33 33 35 34 35 33
30 30 30 28 26 22 18 21 24 25 32 34 30 32 21 27 31 19 28 31 31 27 26 26 17 6 12 14 14 20 24 25 26 24 31 34 41 39 34 36 21 21 27 21 18
29 29 28 25 24 18 17 18 19 19 21 28 19 13 6 5 10 7 22 29 28 23 23 20 23 24 24 25 24 27 21 26 30 27 26 15 21 43 27 19 26 27 24 24 20
28 28 26 24 23 15 17 16 15 13 5 9 6 6 8 5 7 5 6 10 16 21 22 20 19 15 15 18 14 24 24 29 31 26 26 24 11 26 31 19 15 16 13 16 22
28 28 27 25 22 18 17 16 12 7 8 6 7 10 11 8 8 9 6 7 9 16 21 25 22 23 20 15 17 17 20 21 20 24 11 34 16 17 15 7 13 15 18 18 24
31 31 29 27 23 21 17 15 10 10 9 9 15 18 14 10 11 12 10 11 12 10 17 16 18 16 15 18 13 16 15 5 3 2 6 5 8 14 17 10 12 15 14 18 24
33 34 32 29 25 22 16 19 13 21 30 11 12 12 18 17 16 15 20 22 19 18 20 12 9 7 8 10 11 12 15 11 4 3 5 10 9 14 17 11 11 16 20 8 13
35 36 35 29 25 23 21 22 29 35 24 23 25 16 17 18 19 15 21 24 24 20 24 9 10 7 10 16 11 9 13 17 15 8 3 10 12 15 15 14 9 9 9 16 23
35 36 35 28 26 22 29 35 37 39 22 17 16 14 19 19 13 13 17 17 27 29 26 25 23 18 17 19 17 17 13 5 6 3 5 6 12 15 12 11 11 12 7 6 9
34 36 35 29 26 25 37 40 41 41 34 31 27 18 18 17 18 18 9 10 11 16 23 31 30 21 18 22 23 20 19 16 12 8 4 3 7 11 9 10 12 13 8 7 13
31 35 32 27 28 33 40 40 38 39 28 39 38 26 29 33 28 27 25 17 13 15 18 17 13 17 19 21 21 20 22 22 17 8 13 8 15 13 16 12 10 11 17 14 15
33 33 30 24 33 37 39 37 40 41 29 35 36 27 25 32 33 34 32 25 21 22 21 21 14 9 7 17 18 19 24 25 27 28 23 10 8 9 14 17 16 13 12 15 15
32 28 31 31 36 38 45 44 43 43 45 35 31 24 28 34 29 23 20 20 20 19 20 24 26 22 17 13 7 15 19 21 24 23 23 24 25 19 24 22 22 20 20 19 18
37 37 34 23 43 41 42 43 41 44 45 34 35 45 38 31 31 31 29 31 27 29 23 24 26 25 27 25 26 25 22 22 28 32 21 22 26 26 29 22 21 20 21 21 18
40 42 40 37 28 36 42 46 46 44 47 39 40 39 25 34 36 37 35 30 29 22 28 27 27 25 30 29 23 28 24 23 27 28 30 28 24 19 19 22 17 18 20 18 19
38 39 38 39 32 36 42 46 49 48 45 42 36 36 34 39 33 33 30 32 32 30 24 28 31 25 15 15 17 20 26 29 31 28 28 28 27 24 21 20 16 17 20 22 22

GFSSW_700_spd_126.txt.gz
Wind_Speed
21 22 22 22 22 22 21 19 19 21 23 25 24 24 24 21 21 20 18 17 17 15 16 13 11 11 12 12 12 14 15 15 15 15 10 9 15 15 17 18 15 12 9 10 9
22 23 22 22 23 23 23 23 26 27 30 30 26 25 26 23 21 21 18 18 17 14 10 9 12 12 12 13 13 15 19 14 14 15 18 20 21 22 20 21 20 19 16 16 17
26 26 27 28 28 26 31 31 33 35 33 33 30 28 26 22 21 20 14 10 6 10 18 17 15 13 13 12 12 18 20 17 16 19 24 25 24 24 21 18 17 21 23 24 25
33 32 33 35 35 35 34 36 35 35 34 32 30 28 25 20 15 12 15 18 19 18 19 19 17 14 15 16 16 19 19 18 18 18 23 24 26 24 20 19 21 20 21 23 27
37 37 34 35 35 35 35 33 34 33 34 31 30 26 23 20 21 20 21 20 19 17 16 15 17 19 19 18 18 18 20 21 21 21 22 24 24 24 25 20 21 22 22 26 29
37 38 37 35 33 33 33 32 32 32 33 29 28 25 23 22 21 20 18 20 20 17 18 20 22 22 22 22 20 22 23 23 25 23 23 26 26 24 22 23 18 19 22 22 24
37 35 35 35 34 34 33 32 31 31 31 28 28 27 24 22 22 20 18 18 22 21 21 23 24 23 24 19 20 21 25 23 20 21 22 26 26 21 12 14 17 17 19 20 26
38 37 34 32 31 30 29 29 30 30 30 29 28 28 26 24 24 22 19 19 16 15 13 17 19 21 21 19 24 25 27 23 7 16 17 24 28 21 20 25 27 26 26 25 27
37 36 33 32 31 30 28 28 30 30 31 30 30 28 25 19 14 11 11 13 13 12 13 17 21 23 22 22 24 18 16 19 20 16 16 14 21 20 21 25 28 24 24 27 29
35 35 32 31 31 30 28 29 30 32 31 30 30 25 16 17 17 11 11 18 22 21 18 19 24 26 21 22 16 12 12 20 23 24 20 22 28 23 20 21 21 21 22 24 25
32 32 29 29 29 28 27 28 30 31 32 29 26 26 25 26 28 24 24 25 24 20 19 19 26 28 16 16 18 17 19 23 24 19 24 26 27 25 27 27 27 24 25 28 28
32 31 30 29 27 26 26 26 27 30 35 29 29 31 26 27 30 22 27 26 26 25 20 23 28 20 18 19 18 18 19 20 21 15 23 28 35 33 22 24 25 19 19 20 22
32 32 29 28 25 24 24 26 25 23 31 33 30 31 24 28 31 20 28 29 32 29 25 25 16 12 14 14 15 18 16 18 22 22 24 33 29 1 25 20 14 24 24 21 22
31 31 29 27 25 22 24 21 20 17 19 29 24 21 14 14 19 15 23 27 30 26 24 19 17 20 19 20 21 21 17 18 20 21 20 25 10 27 6 9 26 19 19 18 17
31 30 29 26 21 18 19 17 12 10 4 10 7 5 8 11 8 8 4 5 11 16 19 10 11 11 18 16 9 18 12 14 17 19 21 11 13 7 19 29 18 15 13 14 19
29 29 26 23 20 20 18 14 10 6 7 6 5 9 11 11 11 8 8 9 10 18 18 20 21 19 18 14 12 14 15 19 18 18 8 17 17 16 16 17 18 18 13 16 21
29 29 27 24 21 19 17 14 9 10 7 5 11 11 13 12 11 8 8 10 9 8 15 16 15 14 16 16 13 17 14 4 2 4 6 9 12 23 26 24 21 13 9 13 17
31 32 31 26 22 20 17 16 12 13 28 3 7 8 15 17 15 14 16 16 15 16 17 9 7 5 5 14 13 10 16 9 4 3 4 5 8 11 19 22 19 12 11 8 9
34 35 34 26 25 21 21 19 24 32 21 18 22 11 13 16 18 11 18 23 21 20 24 8 10 7 7 8 11 11 15 16 19 11 4 8 17 22 24 22 22 18 8 7 1
35 36 38 26 26 22 24 30 33 37 24 13 13 11 13 17 14 16 20 15 22 25 25 27 24 21 19 17 19 23 14 6 7 2 4 7 14 19 21 19 20 18 8 6 8
34 36 38 29 26 26 34 39 39 40 31 27 23 14 17 11 12 11 7 11 9 10 14 21 30 27 19 20 24 21 20 15 13 10 4 2 10 14 18 18 13 11 5 8 11
36 36 33 27 29 33 39 41 40 39 30 29 32 24 28 30 27 22 23 21 17 14 19 18 10 14 21 19 22 22 26 26 16 7 12 6 25 28 21 15 15 7 11 12 13
38 32 34 21 32 37 39 41 40 37 27 31 30 25 25 30 30 31 33 30 26 25 19 21 22 11 5 13 19 25 28 27 30 33 26 9 13 7 12 12 15 14 14 18 18
39 37 33 32 32 36 38 43 40 39 42 35 25 20 24 27 28 24 22 13 7 15 19 22 27 25 20 21 20 16 19 23 28 24 24 32 34 31 25 22 23 27 22 23 23
38 33 34 29 40 37 29 37 37 43 42 31 30 41 30 25 24 30 29 26 26 25 26 28 30 29 30 28 29 27 22 19 25 31 29 41 32 30 32 24 26 24 21 22 23
43 43 33 40 32 34 37 43 39 41 38 34 34 31 23 34 37 35 33 33 30 23 22 27 31 26 34 31 30 29 32 34 31 33 41 38 38 35 28 24 20 20 21 21 22
46 43 41 33 33 32 37 38 43 42 42 42 29 32 34 38 33 35 35 33 33 29 28 30 30 26 21 25 26 27 38 33 31 30 31 32 34 29 25 22 20 19 19 19 20